     2.11           OBSERVATION DATA    G (GPS)             RINEX VERSION / TYPE
teqc 2010Oct21 OPUS Account 20111025 14:40:36UTC            PGM / RUN BY / DATE
N2277258                                                    MARKER NAME
1114                                                        MARKER NUMBER
CSMIDDLETON NGS                                             OBSERVER / AGENCY
4619K01307 TRIMBLE NETR5 4.41                               REC # / TYPE / VERS
12668873 TRM41249.00 NONE                                   ANT # / TYPE
  -741503.7067 -5462707.8500  3197295.8662                  APPROX POSITION XYZ
        1.9990        0.0000        0.0000                  ANTENNA: DELTA H/E/N
     1     1                                                WAVELENGTH FACT L1/2
     5    L1    L2    C1    P1    P2                        # / TYPES OF OBSERV
    15                                                      LEAP SECONDS
  2011     7    24     0     0    0.0000000     GPS         TIME OF FIRST OBS
                                                            END OF HEADER
 11  7 24  0  0  0.0000000  0  8G28G10G09G17G04G20G27G02
 113206083.35048  88212598.56946  21542388.1804                   21542396.9774
 127114223.29946  99050223.20342  24189053.5084                   24189065.8404
 117774691.04547  91772547.91844  22411779.2274                   22411789.2664
 111313273.113 8                  21182199.922
 105527618.29148  82229505.80446  20081236.7894                   20081245.9344
 126298038.37546  98413962.60643  24033678.9064                   24033689.5634
 118399738.58547  92259611.74745  22530722.9224                   22530732.6294
 120245287.68347  93697733.16745  22881909.5704                   22881918.8794
 11  7 24  0  0 30.0000000  0  8G28G10G09G17G04G20G27G02
 113244880.30248  88242829.93646  21549771.2664                   21549779.8874
 127020493.38246  98977187.16643  24171217.3594                   24171230.0274
 117726624.69147  91735093.64744  22402632.1884                   22402642.4694
 111341112.199 7                  21187497.602
 105493049.15648  82202568.85646  20074658.4224                   20074667.8164
 126315199.00846  98427334.49843  24036944.5864                   24036954.6214
 118373156.54947  92238898.47345  22525664.7584                   22525674.5084
 120156351.33547  93628432.20145  22864985.6724                   22864993.5204
 11  7 24  0  1  0.0000000  0  8G28G10G09G17G04G20G27G02
 113284039.16648  88273343.32745  21557222.8444                   21557231.2074
 126926703.63146  98904104.56543  24153368.4614                   24153382.0704
 117679156.47847  91698105.43844  22393599.6414                   22393609.5984
 111369065.555 7                  21192816.930
 105459048.27348  82176074.69246  20068188.3054                   20068197.4344
 126332864.26046  98441099.66943  24040306.5004                   24040315.8554
 118347057.43947  92218561.49645  22520697.7894                   22520707.9774
 120067653.63147  93559317.18645  22848106.9304                   22848115.5864
 11  7 24  0  1 30.0000000  0  8G28G10G09G17G04G20G27G02
 113323560.55148  88304139.18345  21564743.6564                   21564751.8054
 126832856.73646  98830977.39743  24135510.2114                   24135523.2194
 117632288.09347  91661584.61844  22384680.7034                   22384690.5434
 111397131.578 7                  21198157.680
 105425615.84448  82150023.47346  20061826.2894                   20061834.9774
 126351034.11146  98455257.99243  24043763.9614                   24043774.0124
 118321441.57447  92198601.07245  22515823.7664                   22515833.4534
 119979196.16547  93490389.37645  22831273.7584                   22831282.7734
 11  7 24  0  2  0.0000000  0  8G28G10G09G17G04G20G27G02
 113363444.90848  88335217.87746  21572333.3134                   21572341.7854
 126738955.93346  98757808.21843  24117641.3594                   24117655.0434
 117586020.89347  91625532.27544  22375876.4454                   22375886.5234
 111425309.899 7                  21203519.664
 105392752.44948  82124415.66946  20055572.3284                   20055581.5784
 126369708.42946  98469809.40543  24047317.4144                   24047327.7814
 118296309.61347  92179017.71145  22511041.2504                   22511050.9884
 119890980.40147  93421649.88845  22814486.5944                   22814495.2664
 11  7 24  0  2 30.0000000  0  8G28G10G09G17G04G20G27G02
 113403692.51348  88366579.62345  21579992.4384                   21580001.0314
 126645003.64745  98684598.93343  24099762.4534                   24099776.1914
 117540356.45847  91589949.61744  22367186.9534                   22367196.6524
 111453600.116 7                  21208903.625
 105360458.61148  82099251.66946  20049427.1954                   20049436.4734
 126388887.50746  98484754.17043  24050966.6884                   24050976.4414
 118271662.13547  92159811.86245  22506350.9384                   22506360.6684
 119803008.39847  93353100.36745  22797746.0944                   22797754.6564
 11  7 24  0  3  0.0000000  0  8G28G10G09G17G04G20G27G02
 113444304.23248  88398225.09145  21587720.7114                   21587728.9924
 126551003.20446  98611352.12043  24081875.0784                   24081888.1484
 117495296.52747  91554838.00144  22358612.1414                   22358622.6134
 111482001.625 8                  21214308.227
 105328734.98448  82074531.99646  20043390.3364                   20043399.6414
 126408571.36346  98500092.28443  24054712.9774                   24054722.3244
 118247499.93747  92140984.16345  22501752.7504                   22501762.4534
 119715281.75047  93284742.03645  22781052.3134                   22781060.5124
 11  7 24  0  3 30.0000000  0  8G28G10G09G17G04G20G27G02
 113485280.07048  88430154.30245  21595517.9454                   21595526.3554
 126456957.10946  98538069.72243  24063978.6174                   24063991.5984
 117450842.27247  91520198.34145  22350152.8984                   22350162.9104
 111510513.525 7                  21219733.477
 105297581.70048  82050256.73446  20037462.1414                   20037471.3364
 126428759.96646  98515823.66643  24058555.1954                   24058564.8364
 118223823.28047  92122534.80345  22497247.5554                   22497257.4024
 119627801.61047  93216575.78845  22764405.5394                   22764414.0044
 11  7 24  0  4  0.0000000  0  8G28G10G09G17G04G20G27G02
 113526620.50748  88462367.61145  21603385.0474                   21603393.2664
 126362868.58946  98464754.24343  24046073.2424                   24046087.3054
 117406995.15847  91486031.77745  22341808.6024                   22341818.5634
 111539135.275 7                  21225180.211
 105266999.32348  82026426.33646  20031642.1414                   20031651.3834
 126449453.26546  98531948.30843  24062492.4454                   24062501.8874
 118200632.61447  92104464.13445  22492834.2814                   22492844.5514
 119540570.02047  93148603.21245  22747805.4614                   22747814.0904
 11  7 24  0  4 30.0000000  0  8G28G10G09G17G04G20G27G02
 113568326.02048  88494865.38945  21611321.0164                   21611329.7234
 126268740.31946  98391407.78743  24028161.7424                   24028174.5084
 117363756.62547  91452339.45345  22333580.8914                   22333591.0744
 111567866.502 7                  21230647.734
 105236988.24648  82003041.10846  20025931.3674                   20025940.6214
 126470651.30746  98548466.30143  24066526.2584                   24066535.6844
 118177928.58047  92086772.65545  22488513.9454                   22488523.8914
 119453588.35747  93080825.39645  22731252.9924                   22731261.8134
 11  7 24  0  5  0.0000000  0  8G28G10G09G17G04G20G27G02
 113610396.89548  88527647.86745  21619326.5004                   21619335.1954
 126174575.02146  98318032.44943  24010242.3984                   24010255.8204
 117321128.30547  91419122.62345  22325469.1174                   22325478.8634
 111596706.478 7                  21236135.523
 105207548.95248  81980101.41846  20020329.4774                   20020338.4224
 126492354.08146  98565377.57243  24070655.7584                   24070666.0784
 118155711.91347  92069460.94245  22484286.4064                   22484296.4534
 119366858.37847  93013243.68645  22714748.7504                   22714758.0904
 11  7 24  0  5 30.0000000  0  8G28G10G09G17G04G20G27G02
 113652833.78648  88560715.54745  21627402.3054                   21627410.6214
 126080376.06146  98244630.88543  23992317.0944                   23992329.2234
 117279111.32447  91386382.15644  22317473.6024                   22317483.0354
 111625655.120 8                  21241644.789
 105178681.91348  81957607.65446  20014836.5234                   20014845.2234
 126514561.65846  98582682.14643  24074881.8284                   24074891.5944
 118133983.05747  92052529.34445  22480151.5634                   22480161.2584
 119280381.61847  92945859.30045  22698292.8674                   22698301.7504
 11  7 24  0  6  0.0000000  0  8G28G10G09G17G04G20G27G02
 113695636.92048  88594068.61045  21635547.3914                   21635555.7424
 125986146.21346  98171205.25543  23974384.1884                   23974397.2034
 117237706.80247  91354118.93145  22309594.4694                   22309604.4224
 111654711.447 7                  21247173.664
 105150387.03648  81935559.72046  20009451.9224                   20009461.2584
 126537273.77446  98600379.88143  24079204.4534                   24079213.6174
 118112742.25547  92035978.05745  22476109.7034                   22476119.4264
 119194159.58547  92878673.40245  22681885.2584                   22681893.6254
 11  7 24  0  6 30.0000000  0  8G28G10G09G17G04G20G27G02
 113738806.30048  88627707.06045  21643762.3594                   21643770.6054
 125891888.50146  98097757.88843  23956448.6804                   23956461.0864
 117196916.37947  91322334.23445  22301832.4304                   22301842.0204
 111683875.002 7                  21252723.102
 105122664.99548  81913958.14446  20004176.6644                   20004185.5164
 126560490.24746  98618470.68843  24083621.7814                   24083631.8094
 118091990.17147  92019807.59945  22472160.5084                   22472170.3524
 119108193.90447  92811687.26645  22665526.4224                   22665535.1764
 11  7 24  0  7  0.0000000  0  8G28G10G09G17G04G20G27G02
 113782342.84648  88661631.61545  21652047.1564                   21652055.5944
 125797605.83146  98024291.06243  23938506.8834                   23938519.0434
 117156741.02947  91291028.80145  22294186.9144                   22294196.6644
 111713145.081 8                  21258293.070
 105095515.84148  81892802.98946  19999010.2504                   19999018.9304
 126584211.16046  98636954.51943  24088136.3674                   24088145.1294
 118071727.02347  92004018.13045  22468304.5394                   22468314.6884
 119022486.04547  92744902.01645  22649216.8364                   22649225.5434
 11  7 24  0  7 30.0000000  0  8G28G10G09G17G04G20G27G02
 113826246.92348  88695842.55645  21660401.8054                   21660410.5234
 125703301.18046  97950807.07943  23920561.2194                   23920572.9614
 117117182.15447  91260203.76045  22286659.3444                   22286668.9144
 111742521.190 8                  21263883.117
 105068940.03148  81872094.58546  19993952.8754                   19993961.9104
 126608436.40046  98655831.38043  24092745.6254                   24092754.3014
 118051953.13647  91988609.90145  22464541.9614                   22464551.7584
 118937037.77647  92678319.06845  22632956.7194                   22632965.1334
 11  7 24  0  8  0.0000000  0  8G28G10G09G17G04G20G27G02
 113870518.21148  88730339.63545  21668826.5234                   21668835.2894
 125608977.36246  97877308.19343  23902611.9614                   23902624.1724
 117078240.98547  91229860.05345  22279248.9844                   22279258.5234
 111772002.870 8                  21269493.336
 105042937.67348  81851833.03046  19989004.8984                   19989013.8794
 126633165.69946  98675100.93443  24097451.2194                   24097460.9774
 118032668.90547  91973583.22245  22460872.0474                   22460882.1134
 118851850.51047  92611939.48445  22616745.5164                   22616753.9844
 11  7 24  0  8 30.0000000  0  8G28G10G09G17G04G20G27G02
 113915157.42448  88765123.42245  21677320.8444                   21677329.3984
 125514637.42446  97803796.73743  23884659.6644                   23884671.2424
 117039918.65747  91199998.53945  22271955.9454                   22271966.2114
 111801589.826 8                  21275123.727
 105017509.13648  81832018.60046  19984165.7424                   19984175.1174
 126658399.06846  98694763.29243  24102253.6174                   24102262.9534
 118013874.94747  91958938.59745  22457295.2114                   22457305.8014
 118766926.06247  92545764.69145  22600585.4844                   22600593.5514
 11  7 24  0  9  0.0000000  0  8G28G10G09G17G04G20G27G02
 113960164.81948  88800194.09845  21685886.1254                   21685894.3164
 125420284.49046  97730275.18043  23866704.1804                   23866717.0904
 117002216.58847  91170620.33345  22264782.0164                   22264791.6054
 111831281.653 8                  21280773.609
 104992654.71548  81812651.53246  19979436.3834                   19979445.7544
 126684136.25947  98714818.32643  24107152.0314                   24107160.9414
 117995571.64247  91944676.28145  22453812.6024                   22453822.4304
 118682265.51447  92479795.53745  22584474.5474                   22584483.4264
 11  7 24  0  9 30.0000000  0  8G28G10G09G17G04G20G27G02
 114005540.77148  88835551.97245  21694519.8054                   21694529.0234
 125325921.69256  97656745.89753  23848746.9614                   23848760.4384
 116965135.64247  91141726.10845  22257725.6174                   22257735.3524
 111861077.692 8                  21286443.758
 104968374.43048  81793731.84846  19974816.0634                   19974825.1844
 126710376.97146  98735265.62943  24112144.8364                   24112154.8014
 117977759.17547  91930796.44145  22450423.1414                   22450432.9964
 118597870.84747  92414033.55945  22568414.8524                   22568422.9144
 11  7 24  0 10  0.0000000  0  8G28G10G09G17G04G20G27G02
 114051285.70848  88871197.35645  21703225.4384                   21703233.6564
 125231551.88946  97583211.21843  23830789.5944                   23830802.3484
 116928677.09047  91113316.85945  22250787.2274                   22250797.2504
 111890977.277 8                  21292133.547
 104944668.53748  81775259.73346  19970304.8594                   19970313.8794
 126737120.91646  98756105.08143  24117233.6884                   24117242.1134
 117960437.80447  91917299.28145  22447127.1414                   22447136.6524
 118513743.41647  92348479.80845  22552405.7424                   22552414.3054
 11  7 24  0 10 30.0000000  0  8G28G10G09G17G04G20G27G02
 114097399.50948  88907130.16045  21712000.6954                   21712008.8714
 125137178.05346  97509673.37943  23812830.0634                   23812843.0744
 116892841.90847  91085393.34045  22243968.3914                   22243977.9614
 111920979.983 8                  21297842.641
 104921536.99148  81757235.16646  19965903.1484                   19965911.7234
 126764367.99546  98777336.54843  24122419.1804                   24122428.5824
 117943607.68047  91904184.90245  22443924.0554                   22443934.2274
 118429884.52847  92283135.31445  22536448.1334                   22536456.3874
 11  7 24  0 11  0.0000000  0  8G28G10G09G17G04G20G27G02
 114143882.55748  88943350.70445  21720845.9144                   21720854.6684
 125042803.17546  97436134.70043  23794871.2504                   23794883.5824
 116857631.01147  91057956.27745  22237267.7274                   22237277.3794
 111951085.208 8                  21303571.609
 104898979.67448  81739658.04646  19961610.4384                   19961619.4774
 126792117.62846  98798959.65843  24127699.7814                   24127709.3754
 117927269.08747  91891453.54545  22440815.1414                   22440824.6684
 118346295.71047  92218001.25045  22520541.7974                   22520549.7504
 11  7 24  0 11 30.0000000  0  8G28G10G09G17G04G20G27G02
 114190734.79948  88979858.92745  21729761.2274                   21729770.4344
 124948430.66047  97362597.81443  23776912.9384                   23776923.6604
 116823045.42547  91031006.44745  22230687.1484                   22230696.7234
 111981292.643 8                  21309319.539
 104876996.94448  81722528.65846  19957427.3284                   19957436.1564
 126820369.40146  98820974.07443  24133076.0474                   24133084.5904
 117911422.28947  91879105.38545  22437799.6024                   22437809.5784
 118262978.51747  92153078.86245  22504686.6884                   22504695.1294
 11  7 24  0 12  0.0000000  0  8G28G10G09G17G04G20G27G02
 114237956.46148  89016654.99945  21738748.1334                   21738756.2464
 124854063.20647  97289064.91043  23758955.2344                   23758966.9454
 116789086.13647  91004544.64545  22224224.7034                   22224234.1884
 112011601.755 8                  21315087.398
 104855588.76148  81705846.97346  19953353.4844                   19953362.3794
 126849123.19246  98843379.65743  24138546.9144                   24138556.7974
 117896067.57147  91867140.66745  22434877.8674                   22434887.4654
 118179934.49347  92088369.31145  22488883.9454                   22488892.0274
 11  7 24  0 12 30.0000000  0  8G28G10G09G17G04G20G27G02
 114285547.94548  89053739.23545  21747803.8594                   21747812.2194
 124759703.57546  97215538.08644  23740998.9384                   23741011.5824
 116755754.27547  90978571.73044  22217881.3984                   22217891.8094
 112042011.870 8                  21320874.398
 104834754.99448  81689612.88446  19949388.8444                   19949398.0274
 126878378.65846  98866176.15643  24144113.8284                   24144123.2584
 117881204.80147  91855559.29545  22432049.6804                   22432059.3094
 118097164.84447  92023873.56845  22473133.2584                   22473141.4774
 11  7 24  0 13  0.0000000  0  8G28G10G09G17G04G20G27G02
 114333509.55847  89091111.88745  21756930.9614                   21756939.1174
 124665355.07247  97142019.95344  23723044.5944                   23723057.1024
 116723050.88447  90953088.55344  22211658.0234                   22211668.0824
 112072522.987 8                  21326680.625
 104814495.91348  81673826.60446  19945533.6094                   19945543.2234
 126908135.39846  98889363.25243  24149776.6484                   24149784.9654
 117866834.44147  91844361.59145  22429315.0864                   22429325.0634
 118014671.57447  91959593.19345  22457435.2114                   22457443.5904
 11  7 24  0 13 30.0000000  0  8G28G10G09G17G04G20G27G02
 114381841.24847  89128772.92345  21766128.1254                   21766136.4734
 124571020.91646  97068512.99643  23705093.7894                   23705105.7424
 116690976.74647  90928095.68244  22205554.9614                   22205564.6134
 112103134.344 7                  21332505.695
 104794811.44348  81658488.07746  19941788.2894                   19941796.8634
 126938393.09146  98912940.70343  24155535.1484                   24155544.3324
 117852956.58747  91833547.67645  22426673.5314                   22426683.9384
 117932455.64647  91895528.90745  22441789.9304                   22441798.0984
 11  7 24  0 14  0.0000000  0  8G28G10G09G17G04G20G27G02
 114430543.22848  89166722.49945  21775395.7194                   21775404.0904
 124476704.38347  96995019.75443  23687146.3364                   23687158.3634
 116659532.87747  90903593.95644  22199571.7734                   22199581.0124
 112133846.114 8                  21338350.117
 104775701.78848  81643597.45046  19938151.2894                   19938160.3794
 126969151.27346  98936908.15943  24161387.2504                   24161397.7384
 117839571.48947  91823117.72345  22424126.1094                   22424136.5234
 117850518.83747  91831682.10745  22426197.9144                   22426206.4264
 11  7 24  0 14 30.0000000  0  8G28G10G09G17G04G20G27G02
 114479615.53148  89204960.62745  21784733.8914                   21784742.6844
 124382408.14947  96921542.35043  23669201.3444                   23669213.9454
 116628719.83447  90879583.77844  22193707.8284                   22193717.8094
 112164657.489 8                  21344213.164
 104757166.40448  81629154.31146  19934624.1254                   19934633.3324
 127000409.50646  98961265.24043  24167336.0084                   24167345.8834
 117826679.25247  91813071.82045  22421673.7664                   22421683.5554
 117768862.46547  91768053.84645  22410659.4224                   22410667.2624
 11  7 24  0 15  0.0000000  0  8G28G10G09G17G04G20G27G02
 114529058.45948  89243487.55045  21794142.8984                   21794151.3284
 124288135.70447  96848083.44443  23651261.9924                   23651273.6484
 116598538.88247  90856066.15944  22187964.4224                   22187974.4144
 112195568.032 8                  21350095.125
 104739205.62548  81615158.91146  19931206.3364                   19931215.3754
 127032167.03446  98986011.39943  24173379.4844                   24173387.7974
 117814279.97447  91803410.04445  22419314.3674                   22419324.0594
 117687488.00247  91704645.25645  22395174.0634                   22395182.1454
 11  7 24  0 15 30.0000000  0  8G28G10G09G17G04G20G27G02
 114578871.93848  89282303.20345  21803621.9454                   21803630.6024
 124193889.43346  96774644.95743  23633327.2504                   23633339.1254
 116568990.53047  90833041.49544  22182341.1954                   22182351.1254
 112226577.215 8                  21355996.164
 104721818.73948  81601610.69946  19927897.7734                   19927906.8094
 127064423.75046  99011146.54243  24179516.6414                   24179526.3364
 117802373.43747  91794132.21945  22417048.1804                   22417058.0124
 117606396.63547  91641457.27445  22379742.8914                   22379750.9064
 11  7 24  0 16  0.0000000  0  8G28G10G09G17G04G20G27G02
 114629056.62148  89321408.12745  21813171.8054                   21813180.0234
 124099672.94846  96701229.71043  23615397.9144                   23615410.3484
 116540075.76347  90810510.53745  22176839.0004                   22176848.5634
 112257684.862 8                  21361915.609
 104705006.22148  81588510.05546  19924698.4384                   19924707.5904
 127097178.94246  99036670.08843  24185750.2584                   24185760.5434
 117790960.13747  91785238.73145  22414876.8204                   22414886.3754
 117525590.25047  91578491.34745  22364365.8594                   22364373.8444
 11  7 24  0 16 30.0000000  0  8G28G10G09G17G04G20G27G02
 114679611.71648  89360801.68845  21822791.9144                   21822800.1994
 124005489.47546  96627840.18043  23597474.9064                   23597487.1644
 116511794.97047  90788473.59245  22171457.6174                   22171467.7814
 112288890.610 8                  21367853.516
 104688767.52348  81575856.53946  19921608.5084                   19921617.3714
 127130432.18646  99062581.77943  24192078.2114                   24192087.3484
 117780039.69747  91776729.29545  22412798.2664                   22412808.1994
 117445069.85247  91515748.26845  22349043.1334                   22349051.6054
 11  7 24  0 17  0.0000000  0  8G28G10G09G17G04G20G27G02
 114730537.91448  89400484.41545  21832483.0234                   21832491.6484
 123911341.91546  96554478.65843  23579560.0084                   23579571.7584
 116484149.07047  90766931.37244  22166196.6094                   22166206.3244
 112320194.293 8                  21373811.000
 104673102.56848  81563650.09346  19918627.3524                   19918636.3204
 127164182.99446  99088881.11643  24198499.5394                   24198510.0274
 117769612.36247  91768604.09945  22410814.1414                   22410824.1804
 117364836.83547  91453229.11645  22333775.3054                   22333783.4454
 11  7 24  0 17 30.0000000  0  8G28G10G09G17G04G20G27G02
 114781834.84248  89440456.01545  21842244.4844                   21842253.3634
 123817233.40247  96481147.51744  23561651.5234                   23561663.5354
 116457138.47247  90745884.20144  22161056.9384                   22161066.3054
 112351594.684 8                  21379786.094
 104658011.02648  81551890.46946  19915755.6174                   19915764.3714
 127198430.53946  99115567.48343  24205017.7814                   24205027.0554
 117759677.97547  91760863.02945  22408923.8524                   22408933.7424
 117284892.62747  91390935.01945  22318562.5784                   22318570.0124
 11  7 24  0 18  0.0000000  0  8G28G10G09G17G04G20G27G02
 114833502.80348  89480716.74245  21852076.9694                   21852085.6054
 123723166.80747  96407849.05144  23543751.3204                   23543762.3954
 116430764.06747  90725332.74844  22156037.6174                   22156047.2584
 112383092.174 8                  21385780.016
 104643492.72648  81540577.52846  19912992.7734                   19913001.5744
 127233174.23746  99142640.53243  24211629.2734                   24211638.4264
 117750236.58847  91753506.11945  22407126.8524                   22407137.0864
 117205238.76248  91328867.14545  22303404.7344                   22303413.1954
 11  7 24  0 18 30.0000000  0  8G28G10G09G17G04G20G27G02
 114885541.61448  89521266.44345  21861979.1884                   21861988.2974
 123629145.56647  96334585.91144  23525860.1254                   23525870.4344
 116405026.33147  90705277.39444  22151140.4694                   22151149.7194
 112414686.016 8                  21391791.648
 104629547.40848  81529711.05946  19910338.9144                   19910348.1254
 127268413.64146  99170099.81843  24218335.4924                   24218345.1804
 117741287.96447  91746533.18245  22405424.2974                   22405434.3054
 117125876.29948  91267026.35145  22288302.3204                   22288310.1954
 11  7 24  0 19  0.0000000  0  8G28G10G09G17G04G20G27G02
 114937951.64748  89562105.40845  21871953.0164                   21871961.2344
 123535173.09747  96261360.76844  23507976.7814                   23507988.4454
 116379926.08647  90685718.77344  22146363.5084                   22146373.1884
 112446376.288 8                  21397822.875
 104616175.21248  81519291.17846  19907794.4614                   19907803.3484
 127304148.13546  99197944.88943  24225135.1954                   24225145.0084
 117732832.27247  91739944.32745  22403815.0394                   22403825.4304
 117046807.02147  91205414.00045  22273255.9534                   22273264.4144
 11  7 24  0 19 30.0000000  0  8G28G10G09G17G04G20G27G02
 114990732.50748  89603233.34045  21881996.3524                   21882005.1334
 123441252.10247  96188175.70544  23490103.8754                   23490115.2234
 116355463.68847  90666657.16145  22141709.0864                   22141718.6214
 112478162.308 7                  21403871.117
 104603375.14148  81509317.12046  19905358.4694                   19905367.6174
 127340376.89445  99226175.07142  24232029.0314                   24232038.9844
 117724869.19647  91733739.33845  22402299.8674                   22402309.7814
 116968032.01848  91144030.95845  22258265.4144                   22258274.1414
 11  7 24  0 20  0.0000000  0  8G28G10G09G17G04G20G27G02
 115043884.35348  89644650.33845  21892111.1804                   21892119.9064
 123347385.82947  96115033.33044  23472242.2734                   23472253.3094
 116331639.70947  90648093.01045  22137175.0864                   22137184.7544
 112510043.724 8                  21409937.875
 104591147.10148  81499788.79446  19903031.4694                   19903040.4964
 127377099.42946  99254790.05942  24239016.7734                   24239026.4804
 117717398.59447  91727918.09545  22400878.3444                   22400888.0944
 116889552.48948  91082878.14245  22243331.3594                   22243339.5164
 11  7 24  0 20 30.0000000  0  8G28G10G09G17G04G20G27G02
 115097407.27948  89686356.48145  21902295.9774                   21902305.4144
 123253577.69047  96041936.18044  23454390.8524                   23454402.9574
 116308454.89147  90630026.88845  22132763.3204                   22132772.7384
 112542020.659 8                  21416022.797
 104579491.05348  81490706.18246  19900813.3524                   19900822.4264
 127414314.89646  99283789.14743  24246098.1334                   24246109.1174
 117710420.68347  91722480.76345  22399550.3444                   22399560.0274
 116811370.01348  91021956.81145  22228453.3524                   22228461.9264
 11  7 24  0 21  0.0000000  0  8G28G10G09G17G04G20G27G02
 115151300.71647  89728351.34145  21912551.3204                   21912560.3754
 123159830.56046  95968886.58944  23436551.1724                   23436562.3714
 116285909.39347  90612458.94245  22128472.9534                   22128482.6414
 112574092.207 8                  21422126.039
 104568405.84248  81482068.37646  19898704.1334                   19898713.0984
 127452022.32746  99313171.52942  24253274.7114                   24253284.4414
 117703934.86447  91717426.87445  22398316.2504                   22398325.8594
 116733485.44048  90961267.60445  22213632.8754                   22213641.0474
 11  7 24  0 21 30.0000000  0  8G28G10G09G17G04G20G27G02
 115205565.09347  89770635.24145  21922877.8984                   21922886.9964
 123066147.72746  95895887.11544  23418723.9384                   23418735.4734
 116264003.77747  90595389.59645  22124304.2734                   22124313.9884
 112606258.454 8                  21428246.938
 104557891.53748  81473875.42446  19896703.1954                   19896712.5314
 127490221.22446  99342936.91143  24260544.6024                   24260553.3794
 117697941.03247  91712756.33545  22397175.2344                   22397185.3954
 116655900.56248  90900811.91645  22198868.4454                   22198876.2624
 11  7 24  0 22  0.0000000  0  8G28G10G09G17G04G20G27G02
 115260200.00347  89813207.89445  21933274.5864                   21933282.7234
 122972532.16346  95822940.02844  23400909.6094                   23400920.8984
 116242738.38147  90578819.13245  22120258.1094                   22120267.3794
 112638518.709 8                  21434385.977
 104547947.74648  81466127.04146  19894811.0234                   19894820.1844
 127528910.78246  99373084.64043  24267905.7344                   24267915.0594
 117692439.06647  91708469.08445  22396128.4614                   22396138.4964
 116578616.47948  90840590.62245  22184161.9534                   22184170.0744
 11  7 24  0 22 30.0000000  0  8G28G10G09G17G04G20G27G02
 115315205.56448  89856069.32645  21943741.8284                   21943749.8914
 122878987.22246  95750047.99243  23383108.0634                   23383119.2624
 116222113.70447  90562747.91345  22116332.9844                   22116342.5004
 112670873.116 8                  21440543.156
 104538574.06548  81458822.89846  19893027.0554                   19893036.2114
 127568090.42146  99403614.22043  24275361.0554                   24275371.3984
 117687428.84147  91704564.99545  22395175.1954                   22395185.1134
 116501634.54048  90780604.77045  22169512.8914                   22169520.5664
 11  7 24  0 23  0.0000000  0  8G28G10G09G17G04G20G27G02
 115370581.70447  89899219.53145  21954279.7194                   21954288.5744
 122785516.19046  95677213.54743  23365321.2424                   23365332.5164
 116202130.22047  90547176.31645  22112530.6094                   22112539.7584
 112703321.446 8                  21446717.617
 104529770.02048  81451962.62246  19891351.7194                   19891360.8634
 127607759.02546  99434524.80943  24282909.9534                   24282919.9964
 117682910.19647  91701043.95645  22394314.8594                   22394324.8674
 116424956.03548  90720855.34445  22154921.5164                   22154928.9964
 11  7 24  0 23 30.0000000  0  8G28G10G09G17G04G20G27G02
 115426327.85347  89942658.05345  21964887.9534                   21964896.2974
 122692122.19946  95604439.06144  23347548.9774                   23347559.4024
 116182787.63547  90532104.14745  22108849.6174                   22108859.6024
 112735862.905 8                  21452910.063
 104521534.46248  81445545.32946  19889784.7974                   19889793.6214
 127647915.73256  99465815.78753  24290552.7814                   24290561.1294
 117678882.33947  91697905.34945  22393548.8204                   22393558.5514
 116348581.96248  90661343.14645  22140388.1024                   22140395.4534
 11  7 24  0 24  0.0000000  0  8G28G10G09G17G04G20G27G02
 115482443.82747  89986384.76045  21975566.4774                   21975575.3244
 122598808.42346  95531727.11243  23329791.8284                   23329802.1954
 116164086.69447  90517531.96245  22105290.9384                   22105300.9344
 112768497.267 8                  21459119.945
 104513867.26848  81439570.91546  19888325.5314                   19888334.6844
 127688559.59446  99497486.26143  24298285.4064                   24298295.9144
 117675345.25647  91695149.15045  22392875.9694                   22392885.7274
 116272513.57548  90602069.13945  22125912.3834                   22125919.9144
 11  7 24  0 24 30.0000000  0  8G28G10G09G17G04G20G27G02
 115538929.89247  90030399.86045  21986315.3834                   21986323.5744
 122505578.06346  95459080.16843  23312050.8594                   23312062.6094
 116146027.54847  90503459.90045  22101854.5234                   22101864.4734
 112801224.467 8                  21465347.875
 104506768.02048  81434039.05146  19886974.6334                   19886983.5744
 127729690.06446  99529536.01843  24306113.6254                   24306121.8094
 117672298.51347  91692775.04745  22392296.2814                   22392305.3134
 116196752.20048  90543034.35345  22111495.3364                   22111502.9104
 11  7 24  0 25  0.0000000  0  8G28G10G09G17G04G20G27G02
 115595785.90348  90074703.21945  21997134.2974                   21997143.0434
 122412434.38246  95386500.75644  23294325.7584                   23294337.6604
 116128610.57047  90489888.21845  22098540.3914                   22098549.9534
 112834044.231 8                  21471593.609
 104500236.12648  81428949.29046  19885731.7114                   19885740.4694
 127771306.07246  99561964.13243  24314031.2974                   24314042.7934
 117669741.92547  91690782.88645  22391809.4694                   22391819.2854
 116121299.15148  90484239.85045  22097137.4064                   22097144.9844
 11  7 24  0 25 30.0000000  0  8G28G10G09G17G04G20G27G02
 115653011.36047  90119294.44445  22008024.0394                   22008032.3594
 122319380.51746  95313991.33444  23276617.4924                   23276629.4224
 116111835.65847  90476816.86145  22095348.1884                   22095357.9184
 112866956.064 8                  21477856.273
 104494270.67547  81424300.90346  19884596.0084                   19884605.4454
 127813406.60046  99594769.72643  24322044.1884                   24322053.6484
 117667674.89747  91689172.19845  22391415.9774                   22391425.4694
 116046155.48448  90425686.40145  22082837.6804                   22082845.1994
 11  7 24  0 26  0.0000000  0  8G28G10G09G17G04G20G27G02
 115710606.05447  90164173.38645  22018984.2504                   22018992.7344
 122226419.52346  95241554.27543  23258927.8834                   23258939.1024
 116095703.03747  90464245.99745  22092278.2974                   22092287.9534
 112899960.258 7                  21484136.719
 104488871.01348  81420093.38446  19883568.9694                   19883578.0044
 127855990.93546  99627952.36143  24330147.5474                   24330156.3164
 117666097.02947  91687942.67545  22391115.5394                   22391125.8754
 115971322.33548  90367374.92945  22068597.6484                   22068605.2974
 11  7 24  0 26 30.0000000  0  8G28G10G09G17G04G20G27G02
 115768570.42147  90209340.38745  22030014.4064                   22030022.9384
 122133555.17746  95169192.56244  23241256.9774                   23241268.7464
 116080213.23547  90452176.04745  22089330.3444                   22089340.4494
 112933056.436 7                  21490434.500
 104484037.24348  81416326.82546  19882649.2274                   19882658.1214
 127899058.10146  99661511.21943  24338342.0944                   24338353.4844
 117665008.40147  91687094.37245  22390908.7344                   22390919.0514
 115896801.42148  90309306.74445  22054416.4224                   22054423.9024
 11  7 24  0 27  0.0000000  0  8G28G10G09G17G04G20G27G02
 115826903.62147  90254794.80145  22041114.7974                   22041123.4924
 122040790.31446  95096908.30944  23223603.7734                   23223615.5084
 116065365.84547  90440606.67645  22086505.0784                   22086515.4344
 112966244.018 7                  21496749.992
 104479768.16648  81413000.28446  19881836.9224                   19881846.1214
 127942607.11846  99695445.48643  24346629.9774                   24346639.8054
 117664408.33747  91686626.76745  22390794.6954                   22390804.4144
 115822593.69047  90251482.61745  22040295.0704                   22040302.3634
 11  7 24  0 27 30.0000000  0  8G28G10G09G17G04G20G27G02
 115885605.53247  90300536.51445  22052285.7894                   22052294.1884
 121948128.47046  95024704.33144  23205971.5474                   23205981.9264
 116051161.22447  90429538.16245  22083802.2424                   22083811.9804
 112999522.901 8                  21503082.617
 104476063.03448  81410113.17146  19881131.7734                   19881140.8874
 127986636.88447  99729754.41343  24355009.2894                   24355018.0084
 117664296.21247  91686539.37945  22390773.4454                   22390783.1214
 115748699.95048  90193903.13145  22026233.7424                   22026241.7034
 11  7 24  0 28  0.0000000  0  8G28G10G09G17G04G20G27G02
 115944675.71547  90346565.19645  22063526.3524                   22063535.4064
 121855572.77246  94952583.10844  23188357.6254                   23188368.7584
 116037599.46248  90418970.57845  22081221.3054                   22081230.9964
 113032893.342 7                  21509433.445
 104472921.17748  81407664.98246  19880533.7344                   19880543.2074
 128031146.28046  99764437.08243  24363477.6804                   24363487.2344
 117664671.72947  91686831.96545  22390844.5474                   22390854.3324
 115675121.54848  90136569.37645  22012232.1724                   22012239.3524
 11  7 24  0 28 30.0000000  0  8G28G10G09G17G04G20G27G02
 116004114.15847  90392880.81845  22074836.7114                   22074846.5944
 121763126.28746  94880547.03244  23170765.8984                   23170778.0124
 116024680.56648  90408903.92945  22078763.1954                   22078772.7664
 113066354.750 7                  21515800.703
 104470342.13248  81405655.34746  19880042.9144                   19880052.0904
 128076134.78946  99799493.05943  24372039.5554                   24372049.1954
 117665534.38347  91687504.14745  22391008.5704                   22391018.8554
 115601859.86448  90079482.41745  21998290.4694                   21998298.2934
 11  7 24  0 29  0.0000000  0  9G28G10G09G12G17G04G20G27G02
 116063920.95347  90439483.47745  22086217.8364                   22086227.5744
 121670793.02046  94808599.15044  23153195.5634                   23153207.1564
 116012404.85847  90399338.46145  22076427.0084                   22076436.8484
 129450166.33916                  24633548.313
 113099907.389 7                  21522184.813
 104468325.22548  81404083.73946  19879659.4144                   19879668.1644
 128121601.12847  99834921.39943  24380692.2894                   24380701.2584
 117666883.93747  91688555.71745  22391265.7194                   22391275.3954
 115528916.32048  90022643.36645  21984410.0634                   21984418.3094
 11  7 24  0 29 30.0000000  0  9G28G10G09G12G17G04G20G27G02
 116124095.39247  90486372.61345  22097668.4924                   22097677.4964
 121578575.87647  94736741.74344  23135647.0164                   23135657.9844
 116000772.01147  90390273.92145  22074213.1024                   22074223.1414
 129353293.604 6                  24615114.328
 113133550.763 7                  21528587.273
 104466869.40548  81402949.33846  19879382.2274                   19879391.2154
 128167544.32746  99870721.34043  24389433.2664                   24389442.9694
 117668719.78247  91689986.23245  22391615.2584                   22391625.1174
 115456291.98448  89966053.02245  21970589.7424                   21970597.3874
 11  7 24  0 30  0.0000000  0  9G28G10G09G12G17G04G20G27G02
 116184636.99147  90533547.85245  22109189.4924                   22109198.2504
 121486477.75846  94664977.07344  23118121.5474                   23118132.0824
 115989781.85247  90381710.17845  22072122.0004                   22072131.6724
 129256400.847 6                  24596676.828
 113167284.932 8                  21535006.930
 104465974.02148  81402251.64046  19879211.9144                   19879220.7894
 128213963.28046  99906892.00043  24398267.3594                   24398276.4534
 117671041.21447  91691795.12645  22392056.8834                   22392066.6884
 115383987.30948  89909711.76745  21956830.8364                   21956838.5634
 11  7 24  0 30 30.0000000  0  9G28G10G09G12G17G04G20G27G02
 116245545.59047  90581009.06545  22120779.7664                   22120788.2854
 121394502.06146  94593307.83244  23100619.3054                   23100629.9534
 115979434.16147  90373647.04245  22070152.8444                   22070162.6374
 129159489.786 6                  24578235.484
 113201109.233 7                  21541443.359
 104465638.14948  81401989.93346  19879147.8444                   19879156.4734
 128260856.41146  99943432.05143  24407190.3914                   24407200.6804
 117673847.57947  91693981.89045  22392590.8054                   22392600.9144
 115312003.73348  89853620.72945  21943133.3524                   21943140.7384
 11  7 24  0 31  0.0000000  0  9G28G10G09G12G17G04G20G27G02
 116306820.60047  90628755.79745  22132440.0704                   22132448.9344
 121302651.81546  94521736.31544  23083140.3834                   23083151.6024
 115969728.48247  90366084.19345  22068306.0634                   22068315.6994
 129062561.883 6                  24559790.055
 113235023.699 8                  21547897.117
 104465860.57548  81402163.25746  19879190.3754                   19879199.2624
 128308222.82246  99980340.97042  24416203.1564                   24416213.0904
 117677138.23447  91696546.00945  22393217.0784                   22393226.9654
 115240342.15548  89797780.58545  21929496.1644                   21929503.1884
 11  7 24  0 31 30.0000000  0  9G28G10G09G12G17G04G20G27G02
 116368461.69247  90676787.78245  22144170.2344                   22144178.9344
 121210930.52746  94450265.28044  23065685.7274                   23065697.2664
 115960664.78947  90359021.59145  22066581.1174                   22066590.9534
 128965618.711 6                  24541342.555
 113269027.689 7                  21554367.828
 104466640.49748  81402771.00746  19879338.7584                   19879347.2034
 128356061.16346 100017617.57842  24425307.5784                   24425317.4654
 117680912.57147  91699487.03645  22393935.6954                   22393945.5474
 115169003.68548  89742192.22145  21915920.6414                   21915928.5354
 11  7 24  0 32  0.0000000  0  9G28G10G09G12G17G04G20G27G02
 116430468.49747  90725104.73445  22155970.0084                   22155978.7274
 121119341.48446  94378897.27744  23048257.2894                   23048268.2194
 115952243.17247  90352459.31345  22064978.8284                   22064988.4774
 128868662.207 7                  24522892.727
 113303121.656 7                  21560855.352
 104467977.39448  81403812.75946  19879593.0004                   19879602.3404
 128404370.50646 100055261.26342  24434500.2424                   24434510.5004
 117685170.01747  91702804.50745  22394745.5704                   22394755.3914
 115097989.46048  89686856.50745  21902407.5164                   21902415.1724
 11  7 24  0 32 30.0000000  0  9G28G10G09G12G17G04G20G27G02
 116492840.49447  90773706.25845  22167839.2424                   22167847.9144
 121027887.74647  94307634.74444  23030854.7034                   23030864.8364
 115944463.18247  90346396.99145  22063497.7584                   22063507.2734
 128771693.868 7                  24504439.672
 113337305.197 7                  21567360.531
 104469870.00748  81405287.53146  19879953.3284                   19879962.2074
 128453149.59245 100093270.84542  24443782.3444                   24443792.4264
 117689909.84447  91706497.86645  22395647.3284                   22395657.3984
 115027300.66748  89631774.38746  21888955.2734                   21888962.7934
 11  7 24  0 33  0.0000000  0  9G28G10G09G12G17G04G20G27G02
 116555577.55147  90822592.27245  22179777.3834                   22179785.8874
 120936573.26947  94236480.71744  23013478.4224                   23013488.5944
 115937324.85147  90340834.66045  22062139.2734                   22062149.4384
 128674715.573 6                  24485985.766
 113371578.620 7                  21573882.852
 104472317.90148  81407194.98346  19880419.2504                   19880428.0864
 128502397.47045 100131607.93652  24453154.6334                   24453162.2114
 117695131.76647  91710566.87945  22396641.0864                   22396651.0944
 114956938.44548  89576946.71745  21875566.0784                   21875573.2274
 11  7 24  0 33 30.0000000  0  9G28G10G09G12G17G04G20G27G02
 116618679.21747  90871762.36945  22191785.2114                   22191793.9734
 120845400.76647  94165437.29844  22996128.0314                   22996139.0234
 115930827.56947  90335771.85645  22060903.1804                   22060913.0004
 128577728.924 6                  24467528.617
 113405941.457 7                  21580422.023
 104475319.73048  81409534.08346  19880990.2424                   19880999.1644
 128552112.67855 100170346.94552  24462614.7034                   24462623.7114
 117700834.73347  91715010.73445  22397726.5164                   22397736.3984
 114886903.59248  89522374.16645  21862238.7424                   21862246.3404
 11  7 24  0 34  0.0000000  0  9G28G10G09G12G17G04G20G27G02
 116682144.81147  90921216.04045  22203862.4774                   22203871.0394
 120754373.35647  94094506.97644  22978805.8834                   22978817.3794
 115924971.03147  90331208.31545  22059788.5164                   22059798.5704
 128480735.530 6                  24449071.609
 113440393.398 7                  21586977.680
 104478874.23148  81412303.82946  19881666.6484                   19881675.5434
 128602293.83745 100209449.14942  24472163.2424                   24472173.8324
 117707017.69047  91719828.61845  22398903.0164                   22398912.7074
 114817196.95148  89468057.34445  21848973.5554                   21848981.7544
 11  7 24  0 34 30.0000000  0  9G28G10G09G12G17G04G20G27G02
 116745973.92947  90970952.99545  22216008.7344                   22216017.7504
 120663494.55347  94023692.41744  22961512.3364                   22961523.2234
 115919755.03747  90327143.90845  22058796.0864                   22058806.1134
 128383737.311 6                  24430614.016
 113474934.585 8                  21593551.133
 104482980.85348  81415503.80446  19882448.4304                   19882457.1134
 128652939.86645 100248913.53442  24481801.5474                   24481811.4344
 117713680.28247  91725020.25345  22400170.6414                   22400180.4884
 114747819.89448  89413997.34245  21835771.9534                   21835779.5704
 11  7 24  0 35  0.0000000  0  9G28G10G09G12G17G04G20G27G02
 116810166.08147  91020972.82245  22228223.9614                   22228233.0784
 120572767.63946  93952996.20944  22944247.7034                   22944258.9964
 115915178.94347  90323578.10545  22057925.1644                   22057935.2274
 128286735.586 6                  24412155.031
 113509564.688 7                  21600140.977
 104487638.21048  81419132.92746  19883334.5864                   19883343.3554
 128704049.37146 100288739.07642  24491527.9844                   24491536.5944
 117720821.70947  91730584.98945  22401529.9774                   22401539.7074
 114678773.23248  89360194.77945  21822633.0864                   21822640.0004
 11  7 24  0 35 30.0000000  0  9G28G10G09G12G17G04G20G27G02
 116874721.07647  91071275.38445  22240508.0634                   22240517.1644
 120482196.04447  93882421.04844  22927012.1884                   22927023.5904
 115911242.46247  90320510.70545  22057176.3054                   22057185.6844
 128189732.297 6                  24393695.273
 113544283.859 7                  21606747.820
 104492845.74148  81423190.75946  19884325.4924                   19884334.2274
 128755621.28846 100328924.99242  24501341.8524                   24501350.5474
 117728441.40847  91736522.41545  22402979.7664                   22402989.7424
 114610057.98848  89306650.47346  21809556.8674                   21809564.0704
 11  7 24  0 36  0.0000000  0  9G28G10G09G12G17G04G20G27G02
 116939638.15247  91121860.10945  22252861.8754                   22252870.1414
 120391782.98246  93811969.43444  22909806.7734                   22909818.3284
 115907945.26047  90317941.44245  22056548.9224                   22056558.9844
 128092729.295 6                  24375236.734
 113579091.865 7                  21613371.484
 104498602.11847  81427676.25646  19885420.5234                   19885429.4184
 128807653.93346 100369469.91643  24511242.3834                   24511252.5944
 117736538.41747  91742831.78745  22404520.8674                   22404530.7074
 114541675.25747  89253365.27446  21796543.7974                   21796551.0314
 11  7 24  0 36 30.0000000  0  9G28G10G09G12G17G04G20G27G02
 117004916.94547  91172726.65545  22265283.7734                   22265292.2504
 120301531.81746  93741643.97944  22892632.0634                   22892643.6134
 115905286.71047  90315869.81645  22056043.2584                   22056052.9964
 127995728.306 6                  24356777.313
 113613988.708 7                  21620012.063
 104504906.32448  81432588.63146  19886620.0944                   19886629.3204
 128860146.10647 100410372.91543  24521231.6564                   24521241.5084
 117745111.97347  91749512.47645  22406152.1024                   22406162.3324
 114473626.06148  89200339.98046  21783594.3984                   21783601.7154
 11  7 24  0 37  0.0000000  0  9G28G10G09G12G17G04G20G27G02
 117070556.77847  91223874.55645  22277774.7114                   22277784.3554
 120211446.20246  93671447.49544  22875489.3364                   22875501.0274
 115903266.37947  90314295.50745  22055658.5634                   22055667.8914
 127898730.892 6                  24338319.719
 113648974.285 7                  21626669.414
 104511757.13048  81437926.92846  19887923.9454                   19887933.0084
 128913096.52246 100451632.99843  24531308.1804                   24531317.1254
 117754160.90847  91756563.58445  22407874.1254                   22407884.2274
 114405911.16248  89147575.16746  21770708.5554                   21770715.9384
 11  7 24  0 37 30.0000000  0  9G28G10G09G12G17G04G20G27G02
 117136557.31147  91275303.49045  22290334.0704                   22290343.8484
 120121529.17147  93601382.36044  22858379.3914                   22858389.9844
 115901883.54047  90313217.93645  22055395.5394                   22055405.2704
 127801739.238 7                  24319862.492
 113684048.685 7                  21633344.055
 104519153.63948  81443690.45146  19889331.8524                   19889340.4844
 128966503.85546 100493249.09743  24541471.1024                   24541480.1294
 117763684.51847  91763984.59045  22409686.5084                   22409696.2974
 114338531.38248  89095071.49146  21757886.8984                   21757894.2974
 11  7 24  0 38  0.0000000  0  9G28G10G09G12G17G04G20G27G02
 117202917.62047  91327012.80145  22302962.4454                   22302971.9694
 120031783.74646  93531450.93144  22841301.1724                   22841311.5634
 115901137.71147  90312636.74145  22055253.6094                   22055263.4264
 127704754.871 7                  24301406.922
 113719211.672 7                  21640035.242
 104527094.18148  81449877.89646  19890842.6724                   19890851.0784
 129020366.64846 100535220.07843  24551719.9924                   24551731.1294
 117773681.70147  91771774.59745  22411588.6644                   22411598.8284
 114271487.85348  89042829.83246  21745129.0704                   21745135.9924
 11  7 24  0 38 30.0000000  0  9G28G10G09G12G17G04G20G27G02
 117269637.30847  91379002.13545  22315658.5084                   22315667.8204
 119942213.50647  93461656.05044  22824256.3754                   22824266.3364
 115901028.52647  90312551.62245  22055233.0004                   22055242.5944
 127607779.871 7                  24282953.414
 113754463.371 7                  21646743.758
 104535578.22248  81456488.85046  19892457.2344                   19892465.9104
 129074683.54146 100577544.92343  24562057.0944                   24562066.9304
 117784151.97047  91779933.23945  22413581.1484                   22413590.9844
 114204781.79048  88990851.13846  21732435.0164                   21732441.9384
 11  7 24  0 39  0.0000000  0  9G28G10G09G12G17G04G20G27G02
 117336715.84447  91431271.10045  22328423.1094                   22328432.3984
 119852821.99447  93392000.41044  22807244.9144                   22807256.2704
 115901555.51147  90312962.24145  22055333.0164                   22055342.5004
 127510815.544 7                  24264502.391
 113789803.604 7                  21653468.820
 104544604.48048  81463522.31046  19894174.6414                   19894183.2464
 129129453.33246 100620222.68043  24572480.1094                   24572488.3014
 117795094.33547  91788459.75045  22415663.6094                   22415673.7854
 114138413.70647  88939135.78946  21719805.5004                   21719813.2114
 11  7 24  0 39 30.0000000  0  8G28G10G09G12G17G04G27G02
 117404153.64447  91483820.01045  22341256.0004                   22341265.6334
 119763613.36847  93322487.29744  22790269.6484                   22790280.4224
 115902718.53047  90313868.47045  22055554.4144                   22055563.8204
 127413865.077 7                  24246052.523
 113825233.560 7                  21660210.805
 104554172.61748  81470978.01446  19895995.4774                   19896004.1054
 117806508.80547  91797354.13145  22417835.1724                   22417845.6804
 114072385.66348  88887685.41146  21707240.7504                   21707248.1954
 11  7 24  0 40  0.0000000  0  8G28G10G09G12G17G04G27G02
 117471949.08047  91536647.60345  22354157.5704                   22354166.4144
 119674590.19247  93253118.66744  22773329.1254                   22773339.7624
 115904515.94147  90315269.03345  22055896.2424                   22055905.9844
 127316929.477 6                  24227606.977
 113860752.262 8                  21666969.414
 104564280.38448  81478854.21246  19897918.6884                   19897927.2894
 117818393.46447  91806614.88345  22420097.6644                   22420107.2974
 114006697.54648  88836499.91346  21694740.6414                   21694748.1884
 11  7 24  0 40 30.0000000  0  8G28G10G09G12G17G04G27G02
 117540101.21247  91589753.09645  22367126.0554                   22367135.0124
 119585755.14347  93183896.61144  22756424.2584                   22756434.2974
 115906947.09647  90317163.43045  22056359.2664                   22056369.0704
 127220010.260 7                  24209162.836
 113896359.069 8                  21673745.469
 104574926.40748  81487149.82546  19899944.6254                   19899953.6024
 117830747.06647  91816241.03445  22422448.1884                   22422457.8834
 113941349.94848  88785579.75246  21682305.4924                   21682313.2074
 11  7 24  0 41  0.0000000  0  8G28G10G09G12G17G04G27G02
 117608609.50047  91643136.13345  22380163.1724                   22380171.3524
 119497111.78347  93114823.92144  22739556.0234                   22739565.1334
 115910011.01947  90319550.88245  22056942.3674                   22056951.7274
 127123108.794 6                  24190722.859
 113932054.115 7                  21680538.117
 104586109.20448  81495863.71046  19902072.4384                   19902081.3874
 117843568.51947  91826231.74645  22424887.7194                   22424897.7074
 113876343.63148  88734925.53346  21669935.0944                   21669942.2974
 11  7 24  0 41 30.0000000  0  8G28G10G09G12G17G04G27G02
 117677473.01347  91696795.97844  22393266.9614                   22393275.9694
 119408663.34447  93045903.13044  22722724.6024                   22722734.7814
 115913706.73747  90322430.65945  22057645.2974                   22057654.8754
 127026227.559 6                  24172287.375
 113967837.274 7                  21687347.078
 104597827.49148  81504994.86046  19904302.5004                   19904311.0744
 117856856.60147  91836586.07545  22427416.5394                   22427426.4064
 113811679.39348  88684537.86046  21657629.6884                   21657637.1054
 11  7 24  0 42  0.0000000  0  8G28G10G09G12G17G04G27G02
 117746691.74747  91750732.62344  22406438.9844                   22406448.0594
 119320413.68647  92977137.28344  22705931.2734                   22705941.6454
 115918033.96247  90325802.51145  22058468.5634                   22058478.6254
 126929368.481 6                  24153855.500
 114003708.951 7                  21694173.609
 104610080.80248  81514542.90846  19906634.1174                   19906643.1134
 117870611.08647  91847303.80645  22430033.6884                   22430043.9064
 113747358.82748  88634417.99146  21645390.0394                   21645397.4494
 11  7 24  0 42 30.0000000  0  8G28G10G09G12G17G04G27G02
 117816264.74547  91804945.31844  22419678.1484                   22419687.2504
 119232365.99447  92908528.81644  22689176.4924                   22689186.8554
 115922991.79747  90329665.75445  22059412.4144                   22059421.7544
 126832533.199 6                  24135428.102
 114039669.109 7                  21701016.641
 104622867.42948  81524506.52846  19909067.5004                   19909076.5394
 117884830.55147  91858383.86245  22432739.9224                   22432749.8984
 113683382.34248  88584566.22046  21633215.8284                   21633223.4264
 11  7 24  0 43  0.0000000  0  8G28G10G09G12G17G04G27G02
 117886191.01347  91859433.28945  22432985.0944                   22432994.0084
 119144523.29947  92840080.05944  22672460.1024                   22672470.9264
 115928579.24047  90334019.61145  22060476.0634                   22060484.8954
 126735723.422 6                  24117005.750
 114075717.580 7                  21707875.984
 104636185.59248  81534884.33246  19911601.7974                   19911610.4884
 117899513.65147  91869825.20145  22435533.9774                   22435544.2624
 113619750.50348  88534983.02646  21621106.7274                   21621114.0234
 11  7 24  0 43 30.0000000  0  8G28G10G09G12G17G04G27G02
 117956469.85847  91914195.98945  22446359.2424                   22446368.1254
 119056888.87047  92771793.60744  22655783.7734                   22655794.5394
 115934795.11247  90338863.14345  22061658.5864                   22061668.3984
 126638941.103 6                  24098588.953
 114111854.418 7                  21714752.492
 104650033.86748  81545675.19746  19914237.1024                   19914245.6684
 117914659.31848  91881626.96145  22438415.8674                   22438426.2584
 113556464.24848  88485669.09646  21609063.7974                   21609070.9964
 11  7 24  0 44  0.0000000  0  8G28G10G09G12G17G04G27G02
 118027100.72646  91969232.99643  22459799.9064                   22459808.6954
 118969466.21946  92703672.15243  22639148.4064                   22639158.0824
 115941638.97146  90344196.01944  22062960.3984                   22062970.3954
 126542188.316 5                  24080177.734
 114148079.981 6                  21721646.969
 104664411.51247  81556878.56945  19916973.1954                   19916981.8554
 117930266.74146  91893788.54743  22441386.6884                   22441396.2814
 113493524.46547  88436625.15144  21597087.0554                   21597093.9804
 11  7 24  0 44 30.0000000  0  8G28G10G09G12G17G04G27G02
 118098082.79947  92024543.67244  22473307.1024                   22473315.8404
 118882258.59947  92635718.26844  22622552.5394                   22622563.1484
 115949109.40847  90350017.13445  22064382.1334                   22064392.0634
 126445466.700 6                  24061772.031
 114184393.800 7                  21728556.633
 104679316.53948  81568492.88846  19919809.1174                   19919817.9804
 117946334.29847  91906308.67945  22444443.7424                   22444453.4574
 113430931.59848  88387851.53446  21585175.9304                   21585182.9734
 11  7 24  0 45  0.0000000  0  8G28G10G09G12G17G04G27G02
 118169415.02247  92080127.20344  22486880.9844                   22486889.5004
 118795269.55847  92567934.68545  22605999.4774                   22606009.8284
 115957205.77347  90356325.99645  22065922.4614                   22065932.6214
 126348778.518 7                  24043372.641
 114220796.015 7                  21735483.930
 104694747.73548  81580517.19746  19922745.6094                   19922754.4964
 117962861.02247  91919186.59845  22447588.7034                   22447598.4884
 113368686.69148  88339349.04446  21573330.9924                   21573337.9734
 11  7 24  0 45 30.0000000  0  8G28G10G09G12G17G04G27G02
 118241097.01547  92135983.26344  22500521.3134                   22500529.8134
 118708502.50947  92500324.09445  22589488.3134                   22589499.0514
 115965927.18747  90363121.89845  22067582.6414                   22067592.0354
 126252125.652 7                  24024980.258
 114257286.855 7                  21742427.625
 104710703.91148  81592950.58346  19925782.1564                   19925790.8284
 117979846.17547  91932421.72745  22450821.0084                   22450831.0664
 113306790.74448  88291118.50046  21561552.7034                   21561559.5434
 11  7 24  0 46  0.0000000  0  8G28G10G09G12G17G04G27G02
 118313127.90547  92192111.17645  22514229.1094                   22514237.4454
 118621960.29747  92432888.69645  22573019.6564                   22573030.1024
 115975271.90947  90370403.50045  22069360.7974                   22069370.6174
 126155509.641 7                  24006594.664
 114293866.082 8                  21749388.523
 104727182.91048  81605791.35846  19928918.1254                   19928926.7464
 117997287.86947  91946012.60245  22454139.9224                   22454149.9884
 113245244.06648  88243160.09046  21549840.3834                   21549847.5004
 11  7 24  0 46 30.0000000  0  8G28G10G09G12G17G04G27G02
 118385506.95447  92248510.38345  22528002.2584                   22528011.4734
 118535646.75247  92365631.48944  22556594.2424                   22556604.7894
 115985239.45947  90378170.42245  22071257.8134                   22071267.8524
 126058933.292 7                  23988217.125
 114330534.218 7                  21756366.484
 104744184.36048  81619039.24346  19932153.1174                   19932161.8524
 118015185.40847  91959958.68845  22457546.1804                   22457555.8444
 113184047.51648  88195474.51646  21538194.9064                   21538202.1644
 11  7 24  0 47  0.0000000  0  8G28G10G09G12G17G04G27G02
 118458233.07547  92305180.03044  22541842.0084                   22541850.7774
 118449565.05847  92298554.91244  22540213.3754                   22540223.7304
 115995828.50247  90386421.61645  22073272.3444                   22073282.2464
 125962398.089 7                  23969846.969
 114367291.081 8                  21763360.898
 104761706.09548  81632692.54346  19935487.4454                   19935496.3134
 118033537.19847  91974258.74745  22461038.1884                   22461047.9884
 113123201.67148  88148062.22146  21526616.4614                   21526624.0004
 11  7 24  0 47 30.0000000  0  8G28G10G09G12G17G04G27G02
 118531305.42447  92362119.47244  22555747.1094                   22555756.1604
 118363718.40947  92231661.49444  22523877.0164                   22523887.6604
 116007037.64647  90395156.00245  22075405.7584                   22075415.1454
 125865905.902 7                  23951484.906
 114404136.585 8                  21770372.508
 104779746.49848  81646749.99746  19938920.1334                   19938929.2774
 118052342.10947  91988911.88845  22464616.4924                   22464626.6804
 113062707.22048  88100923.73446  21515104.8834                   21515111.9884
 11  7 24  0 48  0.0000000  0  8G28G10G09G12G17G04G27G02
 118604723.53147  92419328.33544  22569718.2194                   22569727.2704
 118278110.19647  92164953.86444  22507586.7114                   22507596.6484
 116018866.05947  90404372.93645  22077656.4694                   22077666.2464
 125769458.699 7                  23933131.703
 114441071.295 8                  21777400.570
 104798304.28248  81661210.60246  19942451.6334                   19942460.7584
 118071598.97847  92003917.22345  22468281.4064                   22468291.2424
 113002565.11448  88054059.80746  21503659.6414                   21503667.0354
 11  7 24  0 48 30.0000000  0  8G28G10G09G12G17G04G27G02
 118678486.12947  92476805.66944  22583754.1094                   22583763.2464
 118192743.91347  92098434.76144  22491342.2584                   22491352.2464
 116031312.29047  90414071.28445  22080025.1094                   22080034.7584
 125673058.634 7                  23914787.625
 114478094.858 8                  21784446.391
 104817377.83248  81676073.10946  19946081.3364                   19946090.2774
 118091306.48547  92019273.68545  22472030.9224                   22472040.7704
 112942776.01448  88007470.95246  21492282.1804                   21492289.6024
 11  7 24  0 49  0.0000000  0  8G28G10G09G12G17G04G27G02
 118752592.23947  92534550.65944  22597856.1644                   22597865.4344
 118107622.93247  92032106.81944  22475143.6174                   22475153.9144
 116044375.53847  90424250.41845  22082510.8134                   22082521.0594
 125576707.762 7                  23896452.109
 114515207.592 8                  21791508.750
 104836965.65248  81691336.33546  19949808.8134                   19949817.6454
 118111463.26347  92034980.24545  22475867.5084                   22475877.1024
 112883340.65748  87961157.74546  21480972.3674                   21480979.4574
 11  7 24  0 49 30.0000000  0  8G28G10G09G12G17G04G27G02
 118827041.52447  92592563.03344  22612022.9924                   22612031.8674
 118022750.45247  91965972.49344  22458992.9924                   22459002.8284
 116058054.45847  90434909.30045  22085114.0704                   22085123.5084
 125480408.148 7                  23878126.563
 114552409.634 8                  21798588.133
 104857066.39548  81706999.25246  19953633.8834                   19953642.7544
 118132067.88147  92051035.77045  22479788.3834                   22479798.3164
 112824259.67548  87915120.66846  21469729.2194                   21469736.5904
 11  7 24  0 50  0.0000000  0  8G28G10G09G12G17G04G27G02
 118901832.75047  92650841.84444  22626255.2814                   22626265.4844
 117938129.69547  91900034.32044  22442890.1564                   22442899.8634
 116072347.36247  90446046.59345  22087833.7974                   22087843.4844
 125384161.672 6                  23859811.602
 114589700.812 8                  21805684.445
 104877678.08648  81723060.30746  19957556.7584                   19957565.2934
 118153118.83847  92067439.09845  22483794.1334                   22483803.7034
 112765533.18948  87869359.81846  21458554.0864                   21458561.1524
 11  7 24  0 50 30.0000000  0  8G28G10G09G12G17G04G27G02
 118976965.24047  92709386.58244  22640553.1254                   22640563.6254
 117853764.38547  91834295.16544  22426836.6024                   22426845.5944
 116087253.18647  90457661.48445  22090670.7274                   22090680.0354
 125287970.177 6                  23841506.656
 114627081.742 8                  21812797.492
 104898799.42548  81739518.49846  19961575.4614                   19961584.6604
 118174614.99547  92084189.33845  22487884.2194                   22487894.9654
 112707162.39148  87823876.14846  21447446.6644                   21447453.7424
 11  7 24  0 51  0.0000000  0  8G28G10G09G12G17G04G27G02
 119052437.95947  92768196.46244  22654914.6174                   22654924.5354
 117769657.79847  91768757.62144  22410831.5634                   22410841.0354
 116102770.79747  90469753.07145  22093623.4924                   22093633.0314
 125191836.126 6                  23823213.391
 114664552.407 8                  21819927.945
 104920428.89248  81756372.62346  19965691.2344                   19965700.6414
 118196555.13447  92101285.52545  22492059.8364                   22492070.0594
 112649148.17948  87778670.31546  21436406.8914                   21436414.1294
 11  7 24  0 51 30.0000000  0  8G28G10G09G12G17G04G27G02
 119128249.70547  92827270.54944  22669341.9844                   22669350.9924
 117685812.99147  91703424.08944  22394875.5704                   22394885.9184
 116118898.70347  90482320.23445  22096692.1644                   22096702.4734
 125095761.241 6                  23804931.109
 114702112.505 7                  21827075.266
 104942564.52348  81773621.16646  19969903.7504                   19969912.4734
 118218937.83047  92118726.58145  22496318.9694                   22496329.0904
 112591490.50748  87733742.31346  21425434.7894                   21425441.8674
 11  7 24  0 52  0.0000000  0  8G28G10G09G12G17G04G27G02
 119204399.69347  92886608.14944  22683832.8674                   22683841.5864
 117602233.22047  91638297.06945  22378971.3444                   22378981.2074
 116135635.45947  90495361.81645  22099877.3594                   22099887.0274
 124999747.611 6                  23786659.445
 114739762.660 8                  21834240.203
 104965204.82148  81791262.96046  19974211.8364                   19974220.6604
 118241761.23747  92136511.04845  22500661.9844                   22500672.1724
 112534190.18448  87689092.76546  21414530.6804                   21414538.2074
 11  7 24  0 52 30.0000000  0  8G28G10G09G12G17G04G27G02
 119280886.72747  92946208.40844  22698388.1174                   22698396.5204
 117518921.83247  91573379.17445  22363117.6724                   22363127.5124
 116152979.44847  90508876.56145  22103177.5864                   22103187.6254
 124903797.468 7                  23768401.391
 114777502.531 7                  21841421.438
 104988347.79248  81809296.44546  19978615.7894                   19978624.4844
 118265024.23647  92154638.04545  22505089.1954                   22505099.4574
 112477247.66448  87644722.01746  21403695.0944                   21403702.0474
 11  7 24  0 53  0.0000000  0  8G28G10G09G12G17G04G27G02
 119357710.18947  93006070.80244  22713006.9534                   22713014.9104
 117435882.02247  91508672.90345  22347315.7664                   22347325.0124
 116170929.15347  90522863.30945  22106593.6414                   22106603.3094
 124807912.523 7                  23750154.617
 114815332.466 8                  21848620.836
 105011991.91848  81827720.43546  19983115.1334                   19983123.8914
 118288724.89847  92173106.09045  22509598.9924                   22509608.9144
 112420663.28048  87600630.33646  21392927.1484                   21392934.3594
 11  7 24  0 53 30.0000000  0  8G28G10G09G12G17G04G27G02
 119434868.44047  93066194.05244  22727689.7424                   22727698.7074
 117353117.55447  91444181.17945  22331566.0234                   22331575.4024
 116189483.13847  90537320.90645  22110124.2424                   22110134.1524
 124712095.119 7                  23731921.367
 114853252.729 7                  21855836.516
 105036135.45448  81846533.58746  19987709.5004                   19987718.4534
 118312862.04747  92191914.24845  22514192.0084                   22514202.3164
 112364437.89248  87556818.39846  21382228.0634                   21382235.1524
 11  7 24  0 54  0.0000000  0  8G28G10G09G12G17G04G27G02
 119512361.11047  93126577.93544  22742436.3134                   22742446.2234
 117270631.55647  91379906.45445  22315869.2114                   22315879.0514
 116208640.25947  90552248.49545  22113769.7034                   22113779.8324
 124616347.437 7                  23713700.656
 114891263.702 8                  21863069.578
 105060777.20248  81865734.94746  19992398.8834                   19992407.4694
 118337434.41847  92211061.54245  22518868.0864                   22518878.2464
 112308572.18948  87513286.72646  21371596.7034                   21371604.3754
 11  7 24  0 54 30.0000000  0  8G28G10G09G12G17G04G27G02
 119590186.71347  93187221.26644  22757246.1484                   22757255.6254
 117188427.25847  91315851.23245  22300226.8204                   22300236.2074
 116228398.79047  90567644.72145  22117529.8834                   22117539.6024
 124520671.358 7                  23695494.531
 114929365.178 7                  21870320.109
 105085914.86648  81885322.73846  19997182.5944                   19997191.3364
 118362440.22547  92230546.57845  22523626.5704                   22523636.3794
 112253066.58848  87470035.64346  21361034.6414                   21361041.8094
 11  7 24  0 55  0.0000000  0  8G28G10G09G12G17G04G27G02
 119668344.47247  93248123.40645  22772118.5394                   22772127.6214
 117106508.08547  91252018.18145  22284637.3674                   22284647.1334
 116248757.17447  90583508.36445  22121403.7814                   22121413.6804
 124425069.200 7                  23677302.289
 114967557.289 7                  21877588.156
 105111546.91248  81905295.77246  20002059.8204                   20002068.7034
 118387878.10347  92250368.29145  22528467.0004                   22528477.5554
 112197921.70448  87427065.65146  21350540.9064                   21350547.9574
 11  7 24  0 55 30.0000000  0  8G28G10G09G12G17G04G27G02
 119746833.24247  93309283.44944  22787054.2504                   22787063.2114
 117024877.41747  91188409.94645  22269103.4064                   22269113.5984
 116269713.78147  90599838.16045  22125391.4844                   22125401.8444
 124329543.058 6                  23659124.039
 115005840.362 7                  21884872.914
 105137671.64748  81925652.71446  20007031.1414                   20007040.3054
 118413746.34147  92270525.36745  22533389.4144                   22533400.0124
 112143137.92148  87384377.02646  21340115.8834                   21340122.9384
 11  7 24  0 56  0.0000000  0  8G28G10G09G12G17G04G27G02
 119825651.78447  93370700.41544  22802053.3594                   22802062.7544
 116943538.33947  91125028.90645  22253625.2194                   22253635.2114
 116291266.86147  90616632.74745  22129493.2194                   22129502.7974
 124234094.741 6                  23640960.633
 115044214.476 7                  21892175.586
 105164286.96148  81946391.93446  20012096.0164                   20012105.0314
 118440043.20947  92291016.43445  22538393.8914                   22538403.6844
 112088715.30648  87341969.83646  21329759.3674                   21329766.4224
 11  7 24  0 56 30.0000000  0  8G28G10G09G12G17G04G27G02
 119904799.04247  93432373.55644  22817114.0944                   22817125.0164
 116862493.93647  91061877.47444  22238203.0084                   22238212.2034
 116313414.63447  90633890.73145  22133708.0314                   22133717.8634
 124138726.664 6                  23622812.828
 115082679.738 7                  21899495.250
 105191391.05248  81967512.00146  20017253.7734                   20017263.1914
 118466767.06147  92311840.20945  22543479.5164                   22543489.0824
 112034654.43048  87299844.51946  21319472.0864                   21319479.3164
 11  7 24  0 57  0.0000000  0  8G28G10G09G12G17G04G27G02
 119984273.92047  93494302.02044  22832237.3594                   22832247.7774
 116781747.81147  90998958.46145  22222837.0394                   22222846.6994
 116336155.48847  90651610.87245  22138035.3674                   22138044.8444
 124043440.72316                  23604680.219
 115121236.301 7                  21906831.969
 105218982.15548  81989011.57146  20022503.8284                   20022513.4144
 118493916.45247  92332995.57145  22548645.6254                   22548655.6414
 111980956.00248  87258001.62146  21309253.4844                   21309260.7384
 11  7 24  0 57 30.0000000  0  8G28G10G09G12G17G04G27G02
 120064075.58447  93556485.12244  22847423.0634                   22847432.7544
 116701303.24547  90936274.44045  22207529.5084                   22207539.0434
 116359488.05547  90669792.09245  22142474.9384                   22142484.9694
 123948239.284 6                  23586563.719
 115159884.748 7                  21914186.391
 105247058.68548  82010889.39046  20027846.8284                   20027855.7384
 118521489.84247  92354481.32245  22553892.5314                   22553902.7304
 111927620.57948  87216441.58746  21299104.4224                   21299111.1994
 11  7 24  0 58  0.0000000  0  8G28G10G09G12G17G04G27G02
 120144202.71247  93618921.83444  22862671.0704                   22862679.1684
 116621163.67547  90873828.06845  22192279.4064                   22192288.9964
 116383410.65347  90688433.07545  22147027.5784                   22147037.3014
 123853124.490 6                  23568464.133
 115198625.385 8                  21921558.813
 105275618.93748  82033144.13846  20033281.6174                   20033290.6604
 118549485.80447  92376296.34345  22559220.1564                   22559230.2624
 111874648.71748  87175164.84646  21289023.9064                   21289030.9844
 11  7 24  0 58 30.0000000  0  8G28G10G09G12G17G04G27G02
 120224653.92447  93681611.04544  22877981.0164                   22877989.6024
 116541332.19947  90811621.79845  22177087.5704                   22177096.9694
 116407921.13047  90707532.15545  22151691.5164                   22151701.9224
 123758098.690 6                  23550381.148
 115237458.326 7                  21928948.617
 105304660.90648  82055774.25446  20038808.2034                   20038817.0704
 118577902.23547  92398438.99445  22564627.7734                   22564638.0204
 111822040.51248  87134171.47146  21279012.8284                   21279019.5824
 11  7 24  0 59  0.0000000  0  8G28G10G09G12G17G04G27G02
 120305428.44547  93744552.19044  22893351.7504                   22893361.9924
 116461812.32947  90749658.30645  22161955.5944                   22161965.3794
 116433018.01147  90727088.18545  22156467.6094                   22156477.7974
 123663163.726 6                  23532316.297
 115276383.599 7                  21936355.602
 105334182.81648  82078778.34646  20044426.1644                   20044435.0204
 118606737.82147  92420908.26745  22570114.7504                   22570124.9774
 111769796.42248  87093461.84046  21269071.3364                   21269078.3594
 11  7 24  0 59 30.0000000  0  8G28G10G09G12G17G04G27G02
 120386524.65947  93807744.05144  22908783.0704                   22908793.2154
 116382606.91847  90687939.84445  22146883.3984                   22146892.0634
 116458699.28047  90747099.56145  22161354.7274                   22161364.4804
 123568321.898 6                  23514268.781
 115315400.833 7                  21943780.961
 105364182.19947  82102154.49546  20050134.8204                   20050143.5704
 118635990.39347  92443702.46145  22575681.5004                   22575691.6414
 111717916.66847  87053036.07546  21259198.3204                   21259205.9494
 11  7 24  1  0  0.0000000  0  8G28G10G09G12G17G04G27G02
 120467941.50047  93871185.74744  22924276.8594                   22924285.2544
 116303719.50647  90626469.19145  22131871.4224                   22131880.5234
 116484963.13347  90767564.91045  22166351.8984                   22166362.4734
 123473575.358 7                  23496238.773
 115354510.778 7                  21951222.969
 105394657.66948  82125901.62246  20055933.9614                   20055942.7584
 118665658.34647  92466820.32545  22581327.1484                   22581337.5744
 111666401.55748  87012894.47546  21249395.5784                   21249402.4694
 11  7 24  1  0 30.0000000  0  8G28G10G09G12G17G04G27G02
 120549678.05147  93934876.50644  22939831.4224                   22939838.9454
 116225153.41647  90565248.92345  22116920.9224                   22116930.1844
 116511807.90547  90788482.92745  22171460.5234                   22171470.6374
 123378926.464 7                  23478227.328
 115393714.073 7                  21958683.094
 105425607.53748  82150018.39646  20061823.4774                   20061832.4774
 118695740.28047  92490260.76145  22587051.4384                   22587061.6414
 111615252.07348  86973037.77346  21239662.0634                   21239668.9024
 11  7 24  1  1  0.0000000  0  8G28G10G09G12G17G04G27G02
 120631732.96347  93998815.38344  22955445.1804                   22955454.6764
 116146911.65947  90504281.39545  22102031.7114                   22102041.8014
 116539231.44947  90809851.94045  22176679.0004                   22176689.1094
 123284377.299 7                  23460235.313
 115433010.584 8                  21966161.172
 105457029.66748  82174503.17946  20067803.1884                   20067811.6804
 118726234.20847  92514022.23245  22592854.7344                   22592864.6174
 111564467.94448  86933465.74346  21229998.6174                   21230005.4804
 11  7 24  1  1 30.0000000  0  8G28G10G09G12G17G04G27G02
 120714104.80346  94063001.25944  22971119.8364                   22971129.9184
 116068997.35747  90443569.02645  22087205.2344                   22087215.3054
 116567231.79347  90831670.40245  22182007.4454                   22182017.5744
 123189930.175 7                  23442263.109
 115472400.553 7                  21973656.570
 105488921.80448  82199354.19846  20073871.9694                   20073880.9104
 118757138.21447  92538103.26245  22598734.8594                   22598745.4494
 111514049.72548  86894178.84646  21220404.1484                   21220411.0864
 11  7 24  1  2  0.0000000  0  8G28G10G09G12G17G04G27G02
 120796792.66547  94127433.36544  22986855.6334                   22986864.9064
 115991413.96547  90383114.52145  22072441.1884                   22072451.2814
 116595807.15147  90853936.92945  22187444.9064                   22187455.2114
 123095587.517 7                  23424309.953
 115511884.338 8                  21981170.188
 105521282.48748  82224570.31846  20080030.0554                   20080038.6214
 118788450.68447  92562502.55245  22604693.9844                   22604703.8984
 111463997.95648  86855177.49946  21210879.4224                   21210886.5474
 11  7 24  1  2 30.0000000  0  8G28G10G09G12G17G04G27G02
 120879795.16746  94192110.56344  23002650.1174                   23002659.0554
 115914164.96447  90322920.57245  22057741.5084                   22057751.2274
 116624955.61147  90876650.02545  22192991.9454                   22193001.9844
 123001351.330 7                  23406377.078
 115551462.184 8                  21988701.570
 105554109.71248  82250149.97246  20086276.9384                   20086285.4774
 118820169.98847  92587218.86045  22610729.8054                   22610739.5784
 111414312.88648  86816461.88246  21201424.7274                   21201431.7584
 11  7 24  1  3  0.0000000  0  8G28G10G09G12G17G04G27G02
 120963111.01746  94257031.97344  23018503.4774                   23018513.7734
 115837253.51847  90262989.65945  22043105.2894                   22043115.3134
 116654675.25547  90899808.20745  22198647.4924                   22198657.2074
 122907223.580 7                  23388464.906
 115591134.525 7                  21996251.156
 105587401.29448  82276091.46546  20092612.0394                   20092620.8914
 118852294.04147  92612250.56545  22616843.2194                   22616852.9844
 111364994.59948  86778032.07046  21192039.6334                   21192046.8284
 11  7 24  1  3 30.0000000  0  8G28G10G09G12G17G04G27G02
 121046738.77846  94322196.44544  23034417.8594                   23034427.6254
 115760682.68347  90203324.14945  22028534.6954                   22028544.5514
 116684963.92747  90923409.77545  22204411.1414                   22204421.4734
 122813206.455 7                  23370573.695
 115630901.033 7                  22003818.180
 105621154.99848  82302393.05846  20099035.4844                   20099044.1254
 118884820.92247  92637596.15545  22623032.6094                   22623042.5944
 111316043.05348  86739888.03846  21182724.4614                   21182731.5514
 11  7 24  1  4  0.0000000  0  8G28G10G09G12G17G04G27G02
 121130677.41247  94387603.12944  23050391.3134                   23050401.4104
 115684455.69247  90143926.57345  22014028.6564                   22014038.7544
 116715819.81647  90947453.33745  22210282.9694                   22210293.0744
 122719302.778 6                  23352705.016
 115670762.535 7                  22011403.688
 105655369.38348  82329053.61346  20105545.8134                   20105554.5704
 118917749.05647  92663254.42645  22629298.2814                   22629308.4884
 111267459.31248  86702030.60446  21173479.0864                   21173486.2234
 11  7 24  1  4 30.0000000  0  8G28G10G09G12G17G04G27G02
 121214925.65847  94453251.09844  23066423.5474                   23066433.1724
 115608575.83747  90084799.49745  21999589.6644                   21999599.5274
 116747240.47947  90971936.98945  22216262.2274                   22216271.9454
 122625514.673 6                  23334857.141
 115710719.465 7                  22019006.781
 105690042.37348  82356071.52846  20112143.8984                   20112152.9844
 118951076.69047  92689223.96845  22635640.6954                   22635650.6214
 111219243.57648  86664459.92046  21164304.0474                   21164311.0984
 11  7 24  1  5  0.0000000  0  8G28G10G09G12G17G04G27G02
 121299482.35947  94519139.40244  23082513.7034                   23082522.8954
 115533046.52547  90025945.54945  21985216.2034                   21985226.3794
 116779224.12547  90996859.31345  22222348.1644                   22222358.2774
 122531844.429 6                  23317032.484
 115750771.575 7                  22026628.625
 105725172.21148  82383445.42246  20118829.0634                   20118837.6914
 118984802.05447  92715503.44744  22642058.3134                   22642068.9184
 111171395.87948  86627176.02946  21155199.1024                   21155206.2734
 11  7 24  1  5 30.0000000  0  9G28G10G09G12G17G05G04G27G02
 121384345.75847  94585266.67444  23098662.8204                   23098672.3134
 115457870.83847  89967367.15245  21970910.8134                   21970920.3984
 116811768.50647  91022218.57545  22228541.4614                   22228551.0434
 122438294.072 7                  23299230.578
 115790919.627 7                  22034269.055
 129591713.19515                  24660487.219
 105760756.46148  82411173.40046  20125600.2584                   20125608.9924
 119018922.92047  92742091.11744  22648551.0634                   22648561.3134
 111123916.46748  86590179.11846  21146163.7734                   21146170.9384
 11  7 24  1  6  0.0000000  0  9G28G10G09G12G17G05G04G27G02
 121469514.61547  94651631.95944  23114870.1884                   23114879.7934
 115383051.84347  89909066.68145  21956673.4224                   21956683.0434
 116844871.55347  91048013.16045  22234840.2584                   22234850.5984
 122344865.999 7                  23281451.852
 115831163.507 7                  22041926.594
 129486683.137 6                  24640500.555
 105796792.98048  82439253.80246  20132458.1254                   20132466.7344
 119053437.35447  92768985.44744  22655119.5944                   22655129.3984
 111076805.42348  86553469.24346  21137199.2344                   21137206.0594
 11  7 24  1  6 30.0000000  0  9G28G10G09G12G17G05G04G27G02
 121554987.35947  94718234.09644  23131135.5474                   23131144.7034
 115308592.44247  89851046.41945  21942504.3524                   21942513.7344
 116878530.98547  91074241.27945  22241246.3284                   22241255.7974
 122251562.492 7                  23263696.656
 115871503.367 7                  22049603.258
 129381570.217 6                  24620498.508
 105833279.66948  82467684.98646  20139401.0784                   20139409.6254
 119088343.42847  92796184.97044  22661761.3204                   22661771.6954
 111030062.87048  86517046.50346  21128304.0704                   21128311.0164
 11  7 24  1  7  0.0000000  0  9G28G10G09G12G17G05G04G27G02
 121640762.90646  94785072.16943  23147457.2504                   23147467.1134
 115234496.07847  89793309.05045  21928404.6884                   21928414.2664
 116912744.97447  91100901.51445  22247756.6414                   22247766.1134
 122158385.726 7                  23245965.938
 115911940.000 7                  22057298.633
 129276377.216 6                  24600480.813
 105870214.91248  82496465.70146  20146429.8054                   20146438.0354
 119123639.19246  92823688.12944  22668478.8364                   22668488.3554
 110983689.16548  86480911.18446  21119479.4144                   21119486.6024
 11  7 24  1  7 30.0000000  0  9G28G10G09G12G17G05G04G27G02
 121726839.93546  94852145.16643  23163837.2034                   23163846.3364
 115160765.70547  89735856.84845  21914374.0944                   21914383.4414
 116947510.97347  91127991.90345  22254371.7974                   22254382.3014
 122065338.111 7                  23228259.828
 115952473.443 7                  22065011.063
 129171106.380 7                  24580448.766
 105907596.33748  82525594.08346  20153543.0864                   20153551.6884
 119159322.96247  92851493.63844  22675268.2274                   22675279.1214
 110937684.62548  86445063.52746  21110724.9614                   21110732.2734
 11  7 24  1  8  0.0000000  0  9G28G10G09G12G17G05G04G27G02
 121813216.83746  94919451.77843  23180274.1954                   23180283.0864
 115087404.49847  89678692.31545  21900413.8444                   21900422.9224
 116982826.95147  91155510.81845  22261093.0084                   22261102.8014
 121972422.094 7                  23210578.820
 115993104.056 8                  22072743.484
 129065760.426 7                  24560401.797
 105945421.99948  82555068.62246  20160741.0234                   20160749.5784
 119195392.63547  92879599.84544  22682132.5784                   22682142.9804
 110892049.22448  86409503.51246  21102041.1724                   21102048.0274
 11  7 24  1  8 30.0000000  0  9G28G10G09G12G17G05G04G27G02
 121899891.92646  94986990.76143  23196768.2344                   23196777.6134
 115014415.50047  89621817.79345  21886524.2034                   21886533.3794
 117018690.23247  91183456.21145  22267917.0084                   22267927.1994
 121879639.870 7                  23192922.336
 116033831.911 7                  22080493.414
 128960341.321 7                  24540341.023
 105983689.31748  82584887.32346  20168023.2034                   20168031.4064
 119231845.69847  92908004.81244  22689069.6024                   22689079.5944
 110846782.61748  86374230.86146  21093427.2504                   21093433.8754
 11  7 24  1  9  0.0000000  0  9G28G10G09G12G17G05G04G27G02
 121986864.41547  95054761.51144  23213318.2274                   23213327.9774
 114941802.27047  89565236.09245  21872706.8364                   21872715.5124
 117055098.99647  91211826.66045  22274845.5704                   22274856.1954
 121786993.623 7                  23175292.508
 116074658.129 7                  22088262.203
 128854852.429 7                  24520266.773
 106022396.95348  82615049.12646  20175388.7424                   20175397.7034
 119268680.68547  92936707.37944  22696078.4144                   22696088.6994
 110801885.72148  86339246.29846  21084883.5864                   21084890.4024
 11  7 24  1  9 30.0000000  0  9G28G10G09G12G17G05G04G27G02
 122074132.63747  95122762.67643  23229924.0394                   23229934.6484
 114869567.80547  89508949.53645  21858960.7734                   21858969.8634
 117092050.92147  91240620.35645  22281877.4064                   22281887.1914
 121694485.896 7                  23157688.336
 116115582.462 7                  22096050.102
 128749296.190 6                  24500179.867
 106061542.49648  82645552.15146  20182837.9694                   20182847.2034
 119305895.55447  92965705.94144  22703160.8364                   22703171.2544
 110757358.48048  86304549.78546  21076410.3054                   21076416.7894
 11  7 24  1 10  0.0000000  0  9G28G10G09G12G17G05G04G27G02
 122161695.30246  95190993.26844  23246586.7974                   23246597.9104
 114797715.54847  89452960.81645  21845287.4534                   21845296.8714
 117129543.65447  91269835.46445  22289011.9534                   22289021.3834
 121602119.006 7                  23140111.211
 116156605.152 7                  22103856.391
 128643675.210 6                  24480080.844
 106101123.87748  82676394.78546  20190369.8914                   20190379.0904
 119343488.31647  92994998.97745  22710314.3674                   22710324.5824
 110713201.01948  86270141.40446  21068007.2974                   21068014.1564
 11  7 24  1 10 30.0000000  0  9G28G10G09G12G17G05G04G27G02
 122249550.54647  95259451.84044  23263305.6644                   23263316.0164
 114726248.17047  89397271.99845  21831687.3914                   21831696.7894
 117167574.90247  91299470.17645  22296249.5474                   22296259.3204
 121509895.582 7                  23122560.984
 116197726.832 7                  22111681.641
 128537991.906 6                  24459969.133
 106141138.89748  82707575.32546  20197984.6484                   20197993.7664
 119381456.75947  93024584.76944  22717539.8364                   22717549.5164
 110669413.48248  86236021.28046  21059674.7584                   21059681.4414
 11  7 24  1 11  0.0000000  0  9G28G10G09G12G17G05G04G27G02
 122337697.38447  95328137.60944  23280080.3914                   23280089.2664
 114655169.43147  89341886.00645  21818161.9064                   21818170.9884
 117206142.34447  91329522.71245  22303588.2974                   22303598.3204
 121417817.851 7                  23105040.484
 116238947.624 7                  22119525.734
 128432249.524 6                  24439846.469
 106181585.84648  82739092.43746  20205681.7114                   20205690.4924
 119419799.20447  93054461.96544  22724835.7114                   22724846.3324
 110625996.02548  86202189.53046  21051412.6334                   21051419.7504
 11  7 24  1 11 30.0000000  0  9G28G10G09G12G17G05G04G27G02
 122426133.99847  95397049.21644  23296909.1804                   23296919.3204
 114584481.64347  89286804.64445  21804710.0634                   21804719.7734
 117245243.33147  91359990.99845  22311029.1644                   22311038.7774
 121325887.899 7                  23087546.203
 116280267.908 8                  22127388.570
 128326450.288 5                  24419713.688
 106222461.96648  82770943.97146  20213460.0004                   20213468.5124
 119458513.01847  93084628.56044  22732202.3914                   22732213.0044
 110582948.40648  86168645.95846  21043220.7734                   21043227.9574
 11  7 24  1 12  0.0000000  0  9G28G10G09G12G17G05G04G27G02
 122514859.11347  95466185.69544  23313792.5634                   23313802.6134
 114514188.27247  89232030.64245  21791333.6954                   21791343.7384
 117284875.51847  91390873.18745  22318570.8984                   22318580.4104
 121234108.145 7                  23070081.133
 116321688.162 7                  22135270.805
 128220596.768 6                  24399570.000
 106263765.37448  82803128.44846  20221319.4534                   20221328.6214
 119497596.31047  93115083.03644  22739640.2894                   22739650.5704
 110540270.82548  86135390.73046  21035099.5704                   21035106.5044
 11  7 24  1 12 30.0000000  0  9G28G10G09G12G17G05G04G27G02
 122603871.43947  95535545.86544  23330731.4384                   23330742.0984
 114444292.63147  89177566.55045  21778033.0784                   21778043.1024
 117325036.82447  91422167.69445  22326213.6094                   22326223.4454
 121142481.269 7                  23052645.117
 116363208.644 7                  22143171.836
 128114691.679 6                  24379416.625
 106305494.13748  82835644.36846  20229260.4064                   20229269.4884
 119537047.43547  93145824.15944  22747147.3444                   22747157.7624
 110497963.89148  86102424.30646  21027048.7504                   21027055.7854
 11  7 24  1 13  0.0000000  0  9G28G10G09G12G17G05G04G27G02
 122693168.93746  95605128.31443  23347723.4304                   23347733.6374
 114374797.03447  89123414.19645  21764808.5784                   21764818.3404
 117365724.17047  91453872.09645  22333956.0234                   22333965.9654
 121051009.133 7                  23035238.930
 116404829.820 7                  22151091.813
 128008737.279 6                  24359254.742
 106347645.42448  82868489.53846  20237281.7114                   20237290.2624
 119576863.82447  93176849.90644  22754724.6334                   22754734.3164
 110456026.84248  86069746.11646  21019068.3364                   21019075.1684
 11  7 24  1 13 30.0000000  0  9G28G10G09G12G17G05G04G27G02
 122782750.32646  95674931.90743  23364770.2974                   23364780.0704
 114305704.91047  89069576.21845  21751660.5554                   21751670.0944
 117406935.59047  91485984.86045  22341797.9534                   22341807.6994
 120959694.172 7                  23017862.078
 116446551.934 7                  22159031.156
 127902736.558 6                  24339083.922
 106390217.52648  82901662.61046  20245382.7274                   20245391.4774
 119617043.33347  93208158.58344  22762370.7664                   22762380.5044
 110414459.82548  86037356.25346  21011158.3984                   21011165.3014
 11  7 24  1 14  0.0000000  0  9G28G10G09G12G17G05G04G27G02
 122872614.01046  95744955.48843  23381871.3754                   23381880.6254
 114237019.20047  89016054.92745  21738590.1644                   21738599.7464
 117448668.46847  91518503.96345  22349739.6334                   22349749.8874
 120868539.147 7                  23000515.688
 116488375.074 7                  22166990.086
 127796692.231 6                  24318903.320
 106433208.19448  82935161.83746  20253563.6484                   20253572.3054
 119657583.80447  93239748.54744  22770084.5784                   22770095.3364
 110373262.95648  86005254.83046  21003319.0704                   21003325.8324
 11  7 24  1 14 30.0000000  0  9G28G10G09G12G17G05G04G27G02
 122962758.36646  95815197.86543  23399025.1804                   23399034.2734
 114168743.13047  88962852.83045  21725598.0084                   21725607.1844
 117490920.32247  91551427.46345  22357779.8674                   22357789.9534
 120777546.471 7                  22983200.305
 116530299.894 7                  22174968.344
 127690606.904 6                  24298715.852
 106476615.20848  82968985.49246  20261823.6254                   20261832.8634
 119698483.15847  93271618.15544  22777868.0314                   22777877.6024
 110332436.50048  85973442.04346  20995550.0314                   20995557.0394
 11  7 24  1 15  0.0000000  0  9G28G10G09G12G17G05G04G27G02
 123053182.07047  95885657.86243  23416232.1884                   23416241.6454
 114100879.85247  88909972.40345  21712684.3914                   21712693.5944
 117533688.79247  91584753.49745  22365918.3984                   22365928.2854
 120686718.528 7                  22965916.141
 116572327.130 7                  22182965.859
 127584483.271 7                  24278520.875
 106520436.76948  83003132.16946  20270162.4144                   20270171.6914
 119739739.55147  93303765.97144  22785718.7504                   22785728.2974
 110291980.55948  85941917.95446  20987851.4614                   20987858.3484
 11  7 24  1 15 30.0000000  0  9G28G10G09G12G17G05G04G27G02
 123143883.52247  95956334.31243  23433492.6024                   23433501.7274
 114033432.14048  88857415.79145  21699849.1804                   21699858.4694
 117576971.08047  91618479.92945  22374154.8834                   22374165.0204
 120596057.639 7                  22948663.961
 116614456.724 7                  22190983.086
 127478324.119 7                  24258320.180
 106564670.36748  83037599.90546  20278579.6564                   20278588.7504
 119781350.56347  93336190.11244  22793636.9924                   22793647.4184
 110251894.79048  85910682.32246  20980223.2584                   20980230.1254
 11  7 24  1 16  0.0000000  0  9G28G10G09G12G17G05G04G27G02
 123234861.01446  96027225.86443  23450804.8284                   23450813.3874
 113966402.94347  88805185.28745  21687093.9694                   21687103.3324
 117620764.67347  91652604.76945  22382488.5394                   22382498.8094
 120505566.221 7                  22931443.742
 116656688.923 7                  22199019.352
 127372132.130 6                  24238111.164
 106609313.67648  83072386.89946  20287075.5164                   20287084.4024
 119823313.86847  93368888.78044  22801622.6254                   22801632.7384
 110212179.11348  85879735.05846  20972665.4144                   20972672.2774
 11  7 24  1 16 30.0000000  0  9G28G10G09G12G17G05G04G27G02
 123326113.11146  96098331.34843  23468169.8134                   23468179.1134
 113899795.18447  88753283.17845  21674418.8284                   21674428.0314
 117665067.17047  91687126.16245  22390918.8984                   22390929.0354
 120415246.710 7                  22914256.453
 116699024.522 7                  22207075.539
 127265909.721 6                  24217897.734
 106654364.51548  83107491.45146  20295648.2584                   20295657.0824
 119865627.32147  93401860.25544  22809674.2034                   22809684.7154
 110172833.62348  85849076.25746  20965178.5394                   20965185.1484
 11  7 24  1 17  0.0000000  0  9G28G10G09G12G17G05G04G27G02
 123417638.41947  96169649.72144  23485586.6254                   23485596.1644
 113833612.16047  88701712.02645  21661824.3594                   21661833.2774
 117709875.65647  91722041.82345  22399445.5164                   22399455.8714
 120325101.531 7                  22897102.219
 116741463.867 7                  22215151.570
 127159659.689 6                  24197678.133
 106699820.89548  83142911.99746  20304298.5474                   20304307.4574
 119908288.85347  93435102.98144  22817792.9224                   22817803.0744
 110133858.10548  85818705.75046  20957761.4774                   20957768.2664
 11  7 24  1 17 30.0000000  0  9G28G10G09G12G17G05G04G27G02
 123509434.99547  96241179.46544  23503055.2974                   23503065.2274
 113767856.87247  88650474.18045  21649311.2344                   21649320.8324
 117755188.06847  91757350.15745  22408068.6884                   22408078.4694
 120235133.135 7                  22879982.031
 116784007.279 7                  22223247.500
 127053385.283 6                  24177455.125
 106745680.54248  83178646.78746  20313025.2814                   20313034.0784
 119951296.30147  93468615.24344  22825976.9534                   22825987.7234
 110095252.95548  85788623.84346  20950415.3524                   20950421.9494
 11  7 24  1 18  0.0000000  0  9G28G10G09G12G17G05G04G27G02
 123601501.06947  96312919.25544  23520574.2114                   23520584.4734
 113702531.95247  88599571.67945  21636880.0784                   21636889.9384
 117801001.24447  91793048.72045  22416786.1024                   22416796.3404
 120145343.862 7                  22862895.906
 116826655.359 7                  22231362.828
 126947088.594 6                  24157227.625
 106791940.88848  83214693.79846  20321828.2974                   20321836.8754
 119994647.04147  93502395.01344  22834226.0474                   22834236.3444
 110057017.67248  85758830.12946  20943139.4774                   20943145.8954
 11  7 24  1 18 30.0000000  0  9G28G10G09G12G17G05G04G27G02
 123693835.27346  96384867.96943  23538144.2584                   23538155.0664
 113637640.68947  88549007.10345  21624531.5004                   21624541.7664
 117847312.80047  91829135.61645  22425599.3364                   22425608.8554
 120055736.405 7                  22845843.773
 116869408.009 7                  22239498.406
 126840772.493 6                  24136996.336
 106838599.96348  83251051.51546  20330707.1954                   20330716.0824
 120038339.04547  93536440.68944  22842540.1254                   22842550.7114
 110019152.25748  85729324.63746  20935933.9534                   20935940.6684
 11  7 24  1 19  0.0000000  0  9G28G10G09G12G17G05G04G27G02
 123786435.90246  96457024.28243  23555765.6254                   23555776.1604
 113573185.27747  88498782.15245  21612266.5784                   21612276.0744
 117894119.81747  91865608.57845  22434506.5784                   22434516.5164
 119966312.655 7                  22828827.180
 116912265.834 7                  22247654.148
 126734439.859 6                  24116761.844
 106885655.38548  83287718.07346  20339661.5234                   20339670.7424
 120082369.89046  93570750.40544  22850918.9064                   22850929.6454
 109981656.27948  85700107.00346  20928798.6414                   20928805.3164
 11  7 24  1 19 30.0000000  0  9G28G10G09G12G17G05G04G27G02
 123879301.25546  96529386.80843  23573438.4694                   23573448.0664
 113509168.96047  88448899.35145  21600084.6954                   21600094.0514
 117941419.38147  91902465.36145  22443507.0314                   22443517.4224
 119877075.409 7                  22811845.945
 116955229.461 7                  22255829.750
 126628093.183 7                  24096524.555
 106933104.86148  83324691.68646  20348690.7424                   20348700.0274
 120126737.34247  93605322.40944  22859361.8914                   22859372.4804
 109944529.88648  85671177.36246  20921733.6484                   20921740.6844
 11  7 24  1 20  0.0000000  0  9G28G10G09G12G17G05G04G27G02
 123972429.69346  96601954.36943  23591159.3984                   23591169.9104
 113445595.08947  88399361.30245  21587986.5164                   21587996.2034
 117989209.35147  91939704.25344  22452601.4924                   22452611.6994
 119788027.116 7                  22794900.203
 116998299.245 7                  22264025.906
 126521735.561 6                  24076285.047
 106980946.43148  83361970.82146  20357794.7894                   20357803.8284
 120171439.34046  93640155.10244  22867868.1174                   22867878.8134
 109907773.02148  85642535.67546  20914738.6644                   20914745.9144
 11  7 24  1 20 30.0000000  0  9G28G10G09G12G17G05G04G27G02
 124065819.61546  96674725.70343  23608930.5784                   23608941.4774
 113382466.23647  88350170.03145  21575973.6804                   21575983.1994
 118037486.74047  91977322.97544  22461788.3054                   22461798.3914
 119699170.552 7                  22777991.711
 117041475.514 7                  22272241.539
 126415369.354 6                  24056044.422
 107029177.60348  83399553.54646  20366972.6254                   20366981.5204
 120216473.34347  93675246.50044  22876438.1724                   22876448.9414
 109871385.68748  85614181.93146  20907814.5394                   20907821.4694
 11  7 24  1 21  0.0000000  0  9G28G10G09G12G17G05G04G27G02
 124159469.58046  96747699.64743  23626752.3984                   23626762.3324
 113319785.46647  88301327.90545  21564046.1094                   21564055.2074
 118086249.25347  92015319.71845  22471067.4694                   22471077.3134
 119610508.080 7                  22761120.078
 117084758.595 7                  22280478.336
 126308997.738 6                  24035802.555
 107077796.45448  83437438.35646  20376224.5474                   20376233.7584
 120261837.21347  93710594.94544  22885070.7114                   22885081.2464
 109835367.76448  85586116.04146  20900960.8834                   20900967.4184
 11  7 24  1 21 30.0000000  0  9G28G10G09G12G17G05G04G27G02
 124253377.45246  96820874.63843  23644623.0634                   23644631.2504
 113257555.20447  88252836.83645  21552204.2504                   21552213.3984
 118135493.44447  92053691.77244  22480438.4844                   22480448.3554
 119522041.583 7                  22744284.930
 117128149.192 7                  22288735.000
 126202623.020 7                  24015559.758
 107126799.97348  83475622.90346  20385549.9064                   20385558.6844
 120307528.23347  93746198.30644  22893765.3364                   22893775.5004
 109799718.52048  85558337.44046  20894176.8834                   20894183.3984
 11  7 24  1 22  0.0000000  0  9G28G10G09G12G17G05G04G27G02
 124347541.96646  96894249.54143  23662541.2424                   23662550.5594
 113195779.04947  88204699.59845  21540448.3054                   21540457.4304
 118185217.11247  92092437.47745  22489900.4064                   22489910.4614
 119433774.496 7                  22727487.969
 117171647.514 7                  22297012.297
 126096248.827 6                  23995316.992
 107176186.74048  83514106.09546  20394947.8444                   20394957.2504
 120353545.05046  93782055.55344  22902521.8134                   22902532.8674
 109764438.95148  85530846.88946  20887463.1884                   20887470.1764
 11  7 24  1 22 30.0000000  0  9G28G10G09G12G17G05G04G27G02
 124441960.87246  96967822.71343  23680508.9224                   23680517.4844
 113134459.16047  88156917.90745  21528779.9534                   21528788.9104
 118235416.82447  92131554.10544  22499453.0394                   22499463.1054
 119345708.626 7                  22710729.742
 117215253.901 7                  22305310.836
 125989877.036 6                  23975075.313
 107225953.75848  83552885.57846  20404418.1644                   20404427.3364
 120399884.53446  93818164.20644  22911340.2664                   22911350.6294
 109729527.47448  85503643.17646  20880819.7734                   20880826.7274
 11  7 24  1 23  0.0000000  0  9G28G10G09G12G17G05G04G27G02
 124536632.85146  97041593.06543  23698524.5554                   23698532.6764
 113073598.45447  88109494.01645  21517197.9844                   21517207.3524
 118286090.14647  92171039.76944  22509095.5394                   22509105.8954
 119257846.695 7                  22694010.367
 117258969.052 7                  22313629.758
 125883510.783 6                  23954834.375
 107276099.28148  83591960.00046  20413960.6484                   20413969.7074
 120446544.50847  93854522.60844  22920219.8054                   22920229.9344
 109694984.46648  85476726.57946  20874246.3984                   20874253.4654
 11  7 24  1 23 30.0000000  0  9G28G10G09G12G17G05G04G27G02
 124631556.10946  97115559.22443  23716587.4844                   23716596.5204
 113013199.82147  88062430.17045  21505704.9924                   21505713.6954
 118337234.37947  92210892.40444  22518828.1254                   22518838.1024
 119170191.287 7                  22677330.063
 117302793.326 7                  22321968.531
 125777152.830 6                  23934594.781
 107326620.83048  83631327.43346  20423574.7424                   20423583.4964
 120493522.56146  93891128.85944  22929159.0314                   22929169.7424
 109660809.97648  85450097.13746  20867743.1174                   20867750.1954
 11  7 24  1 24  0.0000000  0  9G28G10G09G12G17G05G04G27G02
 124726728.77146  97189719.76943  23734698.5554                   23734707.5704
 112953266.01847  88015728.53445  21494299.6954                   21494308.9384
 118388846.36447  92251109.51244  22528650.0314                   22528660.2344
 119082744.698 7                  22660689.492
 117346727.096 7                  22330328.688
 125670806.052 6                  23914357.414
 107377516.05948  83670986.04946  20433259.3914                   20433268.9614
 120540816.39447  93927981.17544  22938158.7664                   22938168.9264
 109627003.43648  85423754.41846  20861310.2664                   20861316.9534
 11  7 24  1 24 30.0000000  0  9G28G10G09G12G17G05G04G27G02
 124822149.09446  97264073.22143  23752856.2734                   23752865.8014
 112893799.48947  87969391.01545  21482983.8204                   21482992.7194
 118440923.22547  92291688.86344  22538559.5554                   22538569.5434
 118995509.471 7                  22644089.203
 117390770.705 7                  22338710.031
 125564472.984 6                  23894123.047
 107428782.44748  83710933.87446  20443015.3594                   20443024.1254
 120588423.34346  93965077.46244  22947217.9304                   22947228.3754
 109593564.48748  85397698.12646  20854946.8364                   20854953.7384
 11  7 24  1 25  0.0000000  0  9G28G10G09G12G17G05G04G27G02
 124917815.54446  97338618.48143  23771061.0314                   23771069.9884
 112834803.59047  87923420.22245  21471756.8594                   21471766.2814
 118493462.24147  92332628.30444  22548558.0084                   22548568.0164
 118908488.257 7                  22627529.109
 117434924.810 7                  22347112.664
 125458156.686 7                  23873891.867
 107480418.13048  83751169.46446  20452841.0474                   20452849.8444
 120636341.16647  94002416.00144  22956336.5314                   22956347.0314
 109560493.27048  85371928.37946  20848653.7034                   20848660.4844
 11  7 24  1 25 30.0000000  0  9G28G10G09G12G17G05G04G27G02
 125013726.12846  97413353.91843  23789312.7734                   23789321.9884
 112776280.75347  87877818.05245  21460620.5004                   21460629.6134
 118546460.42747  92373925.57644  22558643.3134                   22558653.2814
 118821683.437 7                  22611011.211
 117479189.843 7                  22355535.898
 125351860.100 6                  23853665.070
 107532420.53248  83791690.81146  20462736.6334                   20462745.8634
 120684567.55547  94039994.96544  22965514.1884                   22965524.4224
 109527789.40548  85346444.88246  20842430.3524                   20842437.0904
 11  7 24  1 26  0.0000000  0  9G28G10G09G12G17G05G04G27G02
 125109879.09146  97488278.27143  23807609.7584                   23807618.9614
 112718233.42948  87832586.39645  21449574.4694                   21449583.3954
 118599914.88047  92415578.37944  22568814.2424                   22568824.8014
 118735097.103 7                  22594534.266
 117523566.359 7                  22363980.820
 125245585.558 6                  23833440.703
 107584787.27548  83832496.04346  20472701.9064                   20472711.2274
 120733099.73547  94077812.17944  22974749.0704                   22974759.5274
 109495452.17848  85321247.07946  20836276.6484                   20836283.6884
 11  7 24  1 26 30.0000000  0  9G28G10G09G12G17G05G04G27G02
 125206273.02146  97563390.37043  23825951.7664                   23825962.6134
 112660664.79347  87787727.74845  21438619.3594                   21438628.6054
 118653822.95947  92457584.61644  22579073.1484                   22579083.0044
 118648732.520 7                  22578099.297
 117568054.675 7                  22372446.656
 125139336.213 6                  23813221.820
 107637516.32848  83873583.59946  20482736.0704                   20482744.9884
 120781935.56746  94115866.00144  22984042.6334                   22984053.2734
 109463482.04448  85296335.32146  20830192.8594                   20830199.9064
 11  7 24  1 27  0.0000000  0  9G28G10G09G12G17G05G04G27G02
 125302905.75146  97638688.58943  23844341.5234                   23844351.6684
 112603577.36347  87743244.06945  21427755.4614                   21427764.9964
 118708181.29247  92499941.72944  22589417.8914                   22589427.7734
 118562592.164 7                  22561707.719
 117612655.294 7                  22380933.156
 125033115.116 6                  23793009.063
 107690605.36648  83914951.67546  20492838.2034                   20492847.3754
 120831072.70447  94154154.62244  22993392.9774                   22993403.8284
 109431878.52648  85271709.23946  20824179.0784                   20824185.8834
 11  7 24  1 27 30.0000000  0  9G28G10G09G12G17G05G04G27G02
 125399775.60346  97714171.48743  23862775.5394                   23862784.9414
 112546973.68348  87699137.34145  21416984.5784                   21416993.8484
 118762986.93547  92542647.40644  22599846.7194                   22599856.6174
 118476678.117 7                  22545358.602
 117657368.757 7                  22389442.711
 124926924.714 6                  23772801.578
 107744051.79148  83956598.22646  20503009.0004                   20503018.2854
 120880508.60346  94192675.99944  23002800.4534                   23002810.2074
 109400641.00848  85247368.35246  20818234.4694                   20818241.5594
 11  7 24  1 28  0.0000000  0  9G28G10G09G12G17G05G04G27G02
 125496880.54946  97789837.68043  23881253.8594                   23881263.0984
 112490856.62247  87655409.79945  21406305.8674                   21406315.2624
 118818237.33847  92585699.62644  22610360.0784                   22610370.2774
 118390993.101 7                  22529052.992
 117702195.310 7                  22397972.695
 124820768.007 6                  23752599.766
 107797853.49448  83998521.62246  20513247.1954                   20513256.5704
 120930240.74547  94231428.24644  23012264.2814                   23012274.6994
 109369769.24148  85223312.46246  20812360.1094                   20812366.8014
 11  7 24  1 28 30.0000000  0  9G28G10G09G12G17G05G04G27G02
 125594218.63946  97865685.51643  23899776.8284                   23899786.1724
 112435228.86248  87612063.53245  21395720.2664                   21395729.3874
 118873929.27847  92629095.91344  22620958.4224                   22620968.6884
 118305539.684 7                  22512791.844
 117747135.476 7                  22406524.203
 124714647.673 6                  23732405.813
 107852007.94648  84040719.89146  20523552.2974                   20523561.6564
 120980266.55246  94270409.31644  23021784.0234                   23021794.6334
 109339262.62448  85199541.11546  20806554.7664                   20806561.3164
 11  7 24  1 29  0.0000000  0  9G28G10G09G12G17G05G04G27G02
 125691788.57347  97941714.11043  23918343.9924                   23918351.3284
 112380092.95948  87569100.53045  21385227.8444                   21385237.1174
 118930059.80247  92672833.94944  22631639.7114                   22631649.9654
 118220320.341 7                  22496575.016
 117792189.663 7                  22415097.883
 124608566.921 7                  23712219.797
 107906512.95248  84083191.32046  20533924.3134                   20533933.7704
 121030583.77547  94309617.46444  23031358.3444                   23031369.2624
 109309121.18248  85176054.30846  20800818.8444                   20800825.5984
 11  7 24  1 29 30.0000000  0  9G28G10G09G12G17G05G04G27G02
 125789588.21146  98017921.59443  23936953.6804                   23936962.9494
 112325451.57947  87526522.85945  21374830.1484                   21374839.3204
 118986625.99147  92716911.47444  22642403.7894                   22642413.7274
 118135337.716 7                  22480403.500
 117837358.420 7                  22423693.719
 124502528.295 7                  23692041.063
 107961366.24148  84125934.13746  20544362.3204                   20544371.9104
 121081189.98847  94349050.81644  23040989.0944                   23041000.1764
 109279344.56348  85152851.78446  20795152.5554                   20795159.3164
 11  7 24  1 30  0.0000000  0  9G28G10G09G12G17G05G04G27G02
 125887615.72446  98094306.64743  23955608.6094                   23955617.6334
 112271307.31848  87484332.55645  21364526.8674                   21364535.8554
 119043624.84947  92761326.13544  22653250.4774                   22653260.7424
 118050594.144 7                  22464277.016
 117882642.635 7                  22432310.859
 124396534.638 7                  23671870.461
 108016565.40948  84168946.46946  20554866.5394                   20554876.1334
 121132082.69746  94388707.40144  23050674.0164                   23050684.4264
 109249932.57148  85129933.38146  20789555.5864                   20789562.3984
 11  7 24  1 30 30.0000000  0  9G28G10G09G12G17G05G04G27G02
 125985869.30946  98170867.84443  23974305.5864                   23974315.1524
 112217662.36948  87442531.34546  21354318.8284                   21354327.8954
 119101053.29747  92806075.55644  22664178.6174                   22664189.1484
 117966092.357 7                  22448196.828
 117928042.252 7                  22440949.906
 124290589.060 7                  23651710.125
 108072108.32648  84212226.66246  20565436.1804                   20565445.2814
 121183259.35947  94428585.27944  23060412.3444                   23060423.3984
 109220884.63048  85107298.64746  20784027.9694                   20784034.7504
 11  7 24  1 31  0.0000000  0  9G28G10G09G12G17G05G04G27G02
 126084347.23046  98247603.81442  23993044.6724                   23993054.9454
 112164519.49648  87401121.35145  21344206.0864                   21344215.3164
 119158908.26247  92851157.32744  22675188.4454                   22675198.1914
 117881834.815 7                  22432163.805
 117973557.886 7                  22449611.359
 124184694.259 7                  23631558.547
 108127992.39548  84255772.68646  20576070.2974                   20576079.6254
 121234717.51846  94468682.48344  23070204.4304                   23070215.2154
 109192200.44748  85084947.36846  20778569.3524                   20778576.0044
 11  7 24  1 31 30.0000000  0  9G28G10G09G12G17G05G04G27G02
 126183047.36246  98324512.96043  24011827.6954                   24011836.5744
 112111881.24048  87360104.56745  21334188.9064                   21334198.3444
 119217186.35147  92896568.80845  22686278.0554                   22686288.5084
 117797824.115 7                  22416176.242
 118019190.021 7                  22458294.609
 124078853.030 7                  23611417.656
 108184215.17748  84299582.65446  20586769.1414                   20586778.4654
 121286454.40646  94508996.89444  23080049.5394                   23080060.4024
 109163879.34848  85062879.00846  20773180.2424                   20773186.9454
 11  7 24  1 32  0.0000000  0  9G28G10G09G12G17G05G04G27G02
 126281967.97146  98401593.88043  24030651.1724                   24030660.9614
 112059749.88748  87319482.78345  21324268.7034                   21324277.6454
 119275884.82647  92942307.86945  22697448.2034                   22697458.5744
 117714062.879 7                  22400237.492
 118064939.073 8                  22467000.719
 123973068.127 7                  23591287.461
 108240774.54948  84343654.88746  20597532.4384                   20597541.3914
 121338467.46347  94549526.51044  23089948.1414                   23089958.2624
 109135921.04448  85041093.34446  20767859.7814                   20767866.7154
 11  7 24  1 32 30.0000000  0  9G28G10G09G12G17G05G04G27G02
 126381107.08346  98478845.05443  24049516.7034                   24049526.8444
 112008128.36648  87279258.25245  21314445.0864                   21314454.1454
 119335000.64247  92988372.12644  22708697.5164                   22708707.1294
 117630553.402 7                  22384345.836
 118110805.741 7                  22475728.523
 123867342.797 7                  23571169.195
 108297668.21748  84387987.61146  20608358.5314                   20608367.6994
 121390754.43047  94590269.57844  23099897.0084                   23099908.2664
 109108325.14948  85019590.07646  20762608.5554                   20762614.9184
 11  7 24  1 33  0.0000000  0  9G28G10G09G12G17G05G04G27G02
 126480463.02346  98556265.22543  24068423.3674                   24068433.5354
 111957019.25048  87239433.01245  21304719.4534                   21304728.9384
 119394530.71247  93034759.17445  22720025.6564                   22720035.9264
 117547298.581 7                  22368503.156
 118156790.740 7                  22484479.023
 123761680.130 7                  23551061.164
 108354894.03048  84432579.16646  20619248.3524                   20619257.7034
 121443312.95946  94631224.26044  23109898.7504                   23109909.6804
 109081091.74348  84998369.27346  20757425.9534                   20757432.7344
 11  7 24  1 33 30.0000000  0  9G28G10G09G12G17G05G04G27G02
 126580033.70847  98633852.71243  24087370.7034                   24087381.2624
 111906424.75148  87200008.75045  21295092.0554                   21295100.9884
 119454471.70847  93081466.43345  22731431.9924                   22731442.3714
 117464300.867 7                  22352709.078
 118202894.090 7                  22493252.445
 123656082.894 7                  23530966.594
 108412449.38748  84477427.49546  20630200.5864                   20630210.1294
 121496140.39647  94672388.45744  23119951.2664                   23119962.3484
 109054219.83948  84977430.15246  20752312.4614                   20752318.9774
 11  7 24  1 34  0.0000000  0  9G28G10G09G12G17G05G04G27G02
 126679817.00146  98711605.87043  24106358.9064                   24106369.4574
 111856347.12548  87160987.26746  21285562.5944                   21285571.5434
 119514820.49947  93128491.42044  22742916.4614                   22742926.0434
 117381562.695 7                  22336964.531
 118249116.579 7                  22502047.836
 123550553.556 7                  23510884.727
 108470331.93248  84522530.76646  20641215.5474                   20641224.5474
 121549233.81047  94713759.94244  23130055.4224                   23130065.9884
 109027708.83048  84956772.24346  20747267.8134                   20747274.4104
 11  7 24  1 34 30.0000000  0  9G28G10G09G12G17G05G04G27G02
 126779811.39846  98789523.55343  24125387.0634                   24125397.1214
 111806788.81148  87122370.43145  21276131.8054                   21276140.6764
 119575574.24947  93175831.97144  22754477.1804                   22754487.6724
 117299086.702 7                  22321269.852
 118295458.410 7                  22510866.211
 123445095.355 7                  23490817.109
 108528539.23948  84567887.11846  20652292.0164                   20652300.4384
 121602590.68047  94755336.69944  23140208.4224                   23140219.3674
 109001558.56948  84936395.43846  20742291.3364                   20742297.9184
 11  7 24  1 35  0.0000000  0  9G28G10G09G12G17G05G04G27G02
 126880014.77146  98867604.03942  24144455.2894                   24144465.5944
 111757752.01848  87084159.98245  21266800.5554                   21266809.4064
 119636729.64647  93223485.49045  22766114.8204                   22766124.8164
 117216875.391 7                  22305625.398
 118341920.168 7                  22519707.711
 123339710.835 7                  23470762.750
 108587069.07548  84613494.77846  20663430.0234                   20663438.5664
 121656208.65947  94797116.90944  23150412.0004                   23150422.7544
 108975768.49448  84916299.30446  20737383.6414                   20737390.2544
 11  7 24  1 35 30.0000000  0  9G28G10G09G12G17G05G04G27G02
 126980425.01846  98945845.79342  24163562.4384                   24163572.3914
 111709239.29248  87046357.88345  21257568.7034                   21257577.3364
 119698283.54047  93271449.49544  22777828.2584                   22777838.0744
 117134931.210 7                  22290031.883
 118388502.288 7                  22528572.016
 123234403.028 7                  23450723.422
 108645918.98948  84659351.85446  20674628.5314                   20674637.7344
 121710084.71447  94839098.23744  23160664.3524                   23160674.3754
 108950337.68048  84896483.10246  20732544.4774                   20732551.0744
 11  7 24  1 36  0.0000000  0  9G28G10G09G12G17G05G04G27G02
 127081040.32445  99024247.32142  24182708.7274                   24182719.2894
 111661252.95648  87008965.96045  21248436.9454                   21248446.2814
 119760232.48247  93319721.34944  22789616.6024                   22789627.0044
 117053256.831 7                  22274490.047
 118435205.274 7                  22537460.070
 123129174.773 7                  23430699.289
 108705086.56548  84705456.45846  20685888.0474                   20685896.6094
 121764216.38647  94881278.71544  23170965.5864                   23170975.6644
 108925265.75848  84876946.55946  20727773.2114                   20727779.7424
 11  7 24  1 36 30.0000000  0  9G28G10G09G12G17G05G04G27G02
 127181859.03445  99102807.23942  24201894.3834                   24201904.6884
 111613795.81148  86971986.38545  21239406.0164                   21239415.0904
 119822573.90247  93368299.01444  22801479.3674                   22801489.9924
 116971855.251 7                  22258999.680
 118482029.867 7                  22546370.211
 123024029.409 7                  23410690.852
 108764569.89448  84751807.10546  20697206.8204                   20697216.0664
 121818601.81347  94923656.92444  23181314.2894                   23181324.6954
 108900553.05948  84857689.93546  20723070.7894                   20723077.0864
 11  7 24  1 37  0.0000000  0  9G28G10G09G12G17G05G04G27G02
 127282878.84245  99181523.92942  24221117.7034                   24221128.6334
 111566869.68048  86935420.59346  21230476.6254                   21230485.7584
 119885304.15847  93417179.65544  22813416.7194                   22813427.1604
 116890728.484 7                  22243561.773
 118528976.428 7                  22555303.266
 122918969.551 7                  23390697.859
 108824366.37448  84798401.76546  20708586.2504                   20708595.1054
 121873238.02347  94966230.53144  23191711.1884                   23191722.0274
 108876198.52648  84838712.39446  20718436.0784                   20718442.8054
 11  7 24  1 37 30.0000000  0  9G28G10G09G12G17G05G04G27G02
 127384098.11446  99260395.99443  24240379.7974                   24240389.7234
 111520477.55648  86899270.92845  21221648.3204                   21221657.2384
 119948420.38347  93466361.04844  22825427.4694                   22825437.8524
 116809879.389 7                  22228176.633
 118576046.096 7                  22564260.813
 122813998.423 7                  23370722.484
 108884474.05748  84845238.91046  20720024.4614                   20720033.1724
 121928122.35247  95008997.47344  23202154.9534                   23202165.8244
 108852201.97948  84820013.81046  20713870.0234                   20713876.3954
 11  7 24  1 38  0.0000000  0  9G28G10G09G12G17G05G04G27G02
 127485514.63346  99339421.76843  24259677.9454                   24259688.8444
 111474620.89848  86863538.49246  21212921.8524                   21212930.5394
 120011919.16147  93515840.54044  22837511.4064                   22837521.6724
 116729310.327 7                  22212845.313
 118623238.383 7                  22573240.711
 122709118.733 7                  23350764.203
 108944889.77248  84892316.09246  20731520.9144                   20731529.8714
 121983251.97847  95051955.57344  23212646.4064                   23212656.7464
 108828562.36348  84801593.34446  20709371.5634                   20709378.1254
 11  7 24  1 38 30.0000000  0  9G28G10G09G12G17G05G04G27G02
 127587126.34246  99418599.61843  24279015.1644                   24279024.8284
 111429302.01148  86828225.09845  21204298.3524                   21204306.8914
 120075797.20246  93565615.58944  22849666.5634                   22849676.7114
 116649023.948 7                  22197567.102
 118670553.995 7                  22582244.734
 122604333.129 7                  23330824.109
 109005611.52048  84939631.73846  20743075.9694                   20743084.7274
 122038624.20946  95095102.70344  23223183.0784                   23223193.6334
 108805279.07348  84783450.54646  20704940.7814                   20704947.1764
 11  7 24  1 39  0.0000000  0  9G28G10G09G12G17G05G04G27G02
 127688931.11646  99497927.92443  24298387.6724                   24298397.4614
 111384523.08048  86793332.45046  21195777.1334                   21195785.8554
 120140051.35247  93615683.68144  22861894.0084                   22861903.9304
 116569022.944 7                  22182343.359
 118717993.483 7                  22591272.125
 122499644.698 7                  23310902.797
 109066636.95848  84987184.03246  20754688.7344                   20754697.7384
 122094236.46547  95138436.85444  23233766.0474                   23233777.1024
 108782351.70848  84765585.09146  20700577.6174                   20700584.1954
 11  7 24  1 39 30.0000000  0  9G28G10G09G12G17G05G04G27G02
 127790927.26046  99577405.36143  24317796.6884                   24317806.6724
 111340286.98348  86758862.79146  21187359.2344                   21187368.3054
 120204678.57147  93666042.49944  22874191.6804                   22874202.4304
 116489309.790 7                  22167174.313
 118765557.790 7                  22600323.539
 122395056.607 7                  23291000.297
 109127964.13648  85034971.44046  20766359.1094                   20766367.8054
 122150086.32747  95181956.15344  23244393.6174                   23244404.4384
 108759780.05648  84747996.81146  20696282.4064                   20696288.8444
 11  7 24  1 40  0.0000000  0  8G10G09G12G17G05G04G27G02
 111296596.26948  86724818.10446  21179044.8914                   21179054.0944
 120269676.16547  93716689.91444  22886560.8444                   22886571.0394
 116409887.873 7                  22152060.953
 118813247.597 7                  22609398.492
 122290572.216 7                  23271117.875
 109189591.02848  85082992.40946  20778085.8834                   20778095.1484
 122206171.65947  95225658.94344  23255066.7894                   23255077.6684
 108737563.99848  84730685.61746  20692054.9614                   20692061.4494
 11  7 24  1 40 30.0000000  0  8G10G09G12G17G05G04G27G02
 111253451.94548  86691199.18045  21170835.1884                   21170843.4924
 120335039.86147  93767622.63344  22898999.1804                   22899009.3444
 116330758.820 7                  22137002.945
 118861062.876 7                  22618497.555
 122186193.903 7                  23251255.047
 109251514.56048  85131244.51446  20789869.6564                   20789878.7934
 122262489.04047  95269542.55144  23265783.0004                   23265794.4304
 108715701.85948  84713650.21146  20687894.6484                   20687901.0514
 11  7 24  1 41  0.0000000  0  8G10G09G12G17G05G04G27G02
 111210856.30648  86658007.80845  21162729.3524                   21162737.8484
 120400766.40446  93818838.07244  22911506.1644                   22911516.7814
 116251925.030 7                  22122001.602
 118909004.108 7                  22627620.375
 122081924.374 7                  23231412.867
 109313732.24248  85179725.83046  20801709.2974                   20801718.3484
 122319035.69747  95313604.81444  23276543.8134                   23276554.7034
 108694193.03948  84696890.11446  20683801.1564                   20683807.9454
 11  7 24  1 41 30.0000000  0  8G10G09G12G17G05G04G27G02
 111168812.07648  86625246.10646  21154728.6254                   21154737.4224
 120466853.05747  93870334.14644  22924082.6024                   22924092.7344
 116173389.439 7                  22107056.422
 118957071.851 7                  22636767.148
 121977766.891 7                  23211592.617
 109376241.97748  85228434.71946  20813604.2504                   20813613.2424
 122375809.42547  95357844.00744  23287348.1884                   23287358.5434
 108673037.30548  84680405.14646  20679775.5004                   20679782.5044
 11  7 24  1 42  0.0000000  0  8G10G09G12G17G05G04G27G02
 111127321.30748  86592915.66746  21146832.8834                   21146841.6844
 120533296.41147  93922108.18544  22936725.9144                   22936736.9264
 116095154.689 7                  22092169.016
 119005266.948 7                  22645938.727
 121873724.538 7                  23191793.188
 109439042.03248  85277369.83046  20825554.4384                   20825564.1484
 122432807.70347  95402258.22244  23298194.6484                   23298205.0394
 108652234.41148  84664195.12046  20675816.9924                   20675823.2664
 11  7 24  1 42 30.0000000  0  8G10G09G12G17G05G04G27G02
 111086385.46248  86561017.63945  21139043.0164                   21139051.9654
 120600093.16247  93974157.58344  22949436.9224                   22949447.0904
 116017223.118 7                  22077338.836
 119053589.613 7                  22655134.141
 121769799.950 7                  23172017.766
 109502129.27048  85326528.71946  20837559.9534                   20837569.3714
 122490027.56047  95446845.06644  23309083.2274                   23309093.5274
 108631783.29548  84648259.21846  20671925.1024                   20671931.5204
 11  7 24  1 43  0.0000000  0  8G10G09G12G17G05G04G27G02
 111046006.84648  86529553.81545  21131359.3754                   21131368.5164
 120667239.66546  94026479.52344  22962215.4694                   22962225.6724
 115939597.320 7                  22062567.289
 119102040.076 7                  22664354.266
 121665996.318 7                  23152264.633
 109565501.45348  85375909.63746  20849619.2424                   20849628.3914
 122547466.17247  95491602.37744  23320012.9144                   23320023.8984
 108611682.96648  84632596.64746  20668100.3754                   20668106.8054
 11  7 24  1 43 30.0000000  0  8G10G09G12G17G05G04G27G02
 111006187.86248  86498526.06546  21123781.9614                   21123790.9304
 120734733.16947  94079071.87644  22975057.9924                   22975068.3954
 115862280.198 7                  22047854.281
 119150619.494 7                  22673598.523
 121562316.561 7                  23132534.305
 109629156.74548  85425511.16946  20861732.6174                   20861741.6134
 122605121.54546  95536528.59444  23330984.2814                   23330994.9494
 108591933.75548  84617207.68046  20664342.3284                   20664348.4534
 11  7 24  1 44  0.0000000  0  8G10G09G12G17G05G04G27G02
 110966930.22348  86467935.72046  21116311.4844                   21116320.2384
 120802570.24347  94131931.93644  22987967.2034                   22987977.7114
 115785274.003 7                  22033200.906
 119199328.158 7                  22682867.445
 121458763.325 7                  23112828.797
 109693092.54048  85475331.27046  20873899.3984                   20873908.4304
 122662990.48946  95581621.22344  23341996.9924                   23342008.2854
 108572534.42848  84602091.35246  20660650.8054                   20660657.0784
 11  7 24  1 44 30.0000000  0  8G10G09G12G17G05G04G27G02
 110928235.34548  86437783.90846  21108947.8834                   21108957.2274
 120870747.12447  94185056.79244  23000940.6334                   23000950.9614
 115708580.997 7                  22018606.500
 119248166.376 7                  22692161.469
 121355339.528 7                  23093147.930
 109757306.23148  85525367.91946  20886118.5554                   20886127.6294
 122721069.90746  95626877.87644  23353049.1724                   23353059.4264
 108553483.94248  84587246.84046  20657025.5634                   20657031.8014
 11  7 24  1 45  0.0000000  0  8G10G09G12G17G05G04G27G02
 110890105.57948  86408072.44546  21101692.5394                   21101701.1684
 120939260.69746  94238443.99644  23013978.7814                   23013988.3554
 115632204.014 7                  22004072.359
 119297134.637 7                  22701479.688
 121252048.334 7                  23073492.336
 109821795.81048  85575619.54646  20898390.7504                   20898399.5514
 122779357.48146  95672296.72044  23364140.5004                   23364151.8984
 108534781.74848  84572673.73046  20653466.4384                   20653472.5394
 11  7 24  1 45 30.0000000  0  8G10G09G12G17G05G04G27G02
 110852543.28448  86378803.16245  21094544.2424                   21094552.8164
 121008107.93247  94292091.18044  23027079.9144                   23027090.2424
 115556146.346 7                  21989598.930
 119346233.599 7                  22710822.617
 121148892.782 7                  23053861.859
 109886558.89648  85626084.29246  20910714.5084                   20910723.8054
 122837850.78746  95717875.88144  23375271.0084                   23375282.1954
 108516427.84248  84558372.01846  20649973.6564                   20649979.8594
 11  7 24  1 46  0.0000000  0  8G10G09G12G17G05G04G27G02
 110815549.93448  86349977.19846  21087504.7114                   21087513.7934
 121077285.13147  94345995.49644  23040244.0164                   23040253.9264
 115480409.775 7                  21975186.602
 119395463.805 7                  22720190.672
 121045875.919 7                  23034259.031
 109951593.12748  85676760.30846  20923090.2894                   20923099.6374
 122896546.77346  95763612.94844  23386441.3134                   23386452.4384
 108498420.90948  84544340.67346  20646547.0004                   20646553.6254
 11  7 24  1 46 30.0000000  0  8G10G09G12G17G05G04G27G02
 110779127.87248  86321596.41046  21080573.7734                   21080582.8524
 121146789.27247  94400154.53244  23053470.0554                   23053480.3284
 115404996.680 7                  21960835.648
 119444826.024 7                  22729584.000
 120943000.926 7                  23014682.398
 110016896.27248  85727645.87446  20935517.0554                   20935526.0704
 122955442.94446  95809506.01544  23397648.9224                   23397659.6764
 108480760.53148  84530579.37146  20643186.4304                   20643193.0004
 11  7 24  1 47  0.0000000  0  8G10G09G12G17G05G04G27G02
 110743278.62048  86293661.96546  21073752.0004                   21073760.6644
 121216616.77647  94454565.55744  23066757.3674                   23066768.2584
 115329909.913 7                  21946547.164
 119494320.379 7                  22739002.586
 120840270.139 7                  22995132.859
 110082465.95448  85778739.13346  20947994.1174                   20948003.3484
 123014536.33846  95855552.76544  23408893.6644                   23408905.4184
 108463445.60848  84517087.25946  20639891.4384                   20639897.7344
 11  7 24  1 47 30.0000000  0  8G10G09G12G17G05G04G27G02
 110708004.24547  86266175.48446  21067039.4844                   21067048.1844
 121286764.64747  94509226.21444  23080106.3914                   23080116.9454
 115255152.477 7                  21932321.477
 119543947.647 7                  22748446.445
 120737687.053 7                  22975612.047
 110148300.04848  85830038.42946  20960522.1564                   20960531.5634
 123073824.63046  95901751.37943  23420176.0474                   23420186.9224
 108446476.15148  84503864.34246  20636662.2664                   20636668.4144
 11  7 24  1 48  0.0000000  0  8G10G09G12G17G05G04G27G02
 110673306.03248  86239137.94246  21060436.3984                   21060445.5124
 121357229.11247  94564133.55544  23093515.4534                   23093526.2424
 115180726.519 7                  21918158.672
 119593708.189 7                  22757915.789
 120635254.469 7                  22956119.883
 110214396.08948  85881541.83046  20973099.8834                   20973109.0474
 123133304.84746  95948099.54544  23431493.9534                   23431505.9964
 108429851.01548  84490909.72546  20633498.6414                   20633504.8164
 11  7 24  1 48 30.0000000  0  8G10G09G12G17G05G04G27G02
 110639186.14848  86212551.05746  21053943.8524                   21053952.5634
 121428006.83247  94619284.98944  23106983.9924                   23106994.6174
 115106634.462 7                  21904059.141
 119643602.668 7                  22767409.875
 120532975.432 7                  22936656.297
 110280751.59848  85933247.42646  20985726.8834                   20985735.9734
 123192974.16946  95994595.04244  23442849.5944                   23442861.1174
 108413569.29348  84478222.69746  20630400.5864                   20630406.7274
 11  7 24  1 49  0.0000000  0  8G10G09G12G17G05G04G27G02
 110605646.53648  86186416.32246  21047561.5554                   21047570.0124
 121499094.69847  94674678.08244  23120511.6334                   23120522.2664
 115032879.056 7                  21890024.172
 119693631.529 7                  22776929.953
 120430852.949 7                  22917223.461
 110347364.82748  85985153.82646  20998403.2584                   20998412.2734
 123252829.95246  96041235.87044  23454239.3284                   23454251.0474
 108397630.45348  84465802.84946  20627367.2894                   20627373.5354
 11  7 24  1 49 30.0000000  0  8G10G09G12G17G05G04G27G02
 110572688.90548  86160735.08245  21041289.3674                   21041298.1564
 121570489.34747  94730310.23944  23134097.4454                   23134108.6954
 114959462.920 7                  21876053.359
 119743795.490 7                  22786476.109
 120328889.853 7                  22897820.156
 110414233.28448  86037259.11346  21011127.6414                   21011136.8754
 123312869.58846  96088019.93844  23465664.8754                   23465676.1804
 108382033.95948  84453649.77246  20624399.3524                   20624405.8324
 11  7 24  1 50  0.0000000  0  8G10G09G12G17G05G04G27G02
 110540314.69747  86135508.45346  21035128.8284                   21035137.2034
 121642187.26447  94786178.67844  23147742.0944                   23147751.8444
 114886388.423 8                  21862148.016
 119794094.972 7                  22796048.242
 120227089.335 7                  22878448.469
 110481354.63548  86089561.46546  21023900.3984                   21023909.7274
 123373090.25046  96134945.08444  23477124.4304                   23477135.8834
 108366778.90348  84441762.73946  20621496.0164                   20621502.9264
 11  7 24  1 50 30.0000000  0  8G10G09G12G17G05G04G27G02
 110508525.82648  86110737.94246  21029079.4614                   21029088.2114
 121714185.19747  94842280.90344  23161442.2894                   23161452.7584
 114813658.153 8                  21848307.891
 119844530.329 7                  22805645.648
 120125454.278 7                  22859107.688
 110548726.71448  86142059.18546  21036720.9534                   21036730.3404
 123433489.47746  96182009.35443  23488618.3914                   23488629.2814
 108351864.48248  84430141.13146  20618658.0084                   20618664.7934
 11  7 24  1 51  0.0000000  0  8G10G09G12G17G05G04G27G02
 110477323.72248  86086424.64646  21023141.9454                   21023150.5434
 121786479.74047  94898614.26244  23175199.6024                   23175209.9494
 114741274.599 8                  21834533.688
 119895101.864 7                  22815268.711
 120023987.418 7                  22839799.102
 110616346.86648  86194750.20346  21049588.6174                   21049597.4774
 123494064.06246  96229210.27744  23500145.4614                   23500156.1374
 108337289.51548  84418784.04046  20615884.5084                   20615890.5234
 11  7 24  1 51 30.0000000  0  8G10G09G12G17G05G04G27G02
 110446709.78248  86062569.66046  21017316.5704                   21017325.1724
 121859067.45047  94955176.04944  23189012.6334                   23189022.7734
 114669240.286 8                  21820825.953
 119945810.056 7                  22824918.000
 119922691.814 7                  22820522.977
 110684212.87148  86247632.81046  21062502.9454                   21062512.2194
 123554811.25546  96276545.70844  23511704.8524                   23511716.5864
 108323053.25048  84407690.86346  20613175.5084                   20613181.9574
 11  7 24  1 52  0.0000000  0  8G10G09G12G17G05G04G27G02
 110416685.89747  86039174.46246  21011603.1644                   21011611.9104
 121931944.71946  95011963.48544  23202880.2114                   23202891.2234
 114597557.632 7                  21807184.789
 119996655.872 7                  22834593.539
 119821570.224 7                  22801280.305
 110752322.36848  86300705.13946  21075463.9384                   21075473.3094
 123615728.40646  96324013.57244  23523297.1884                   23523308.6024
 108309155.02648  84396861.09346  20610530.6644                   20610537.2464
 11  7 24  1 52 30.0000000  0  8G10G09G12G17G05G04G27G02
 110387253.96648  86016240.51346  21006001.9064                   21006011.3484
 122005108.50347  95068974.16744  23216803.2664                   23216814.2154
 114526229.496 7                  21793611.641
 120047640.003 7                  22844296.078
 119720626.341 7                  22782070.977
 110820673.63448  86353965.86146  21088470.5634                   21088479.6374
 123676813.22946  96371612.07944  23534921.8674                   23534932.4804
 108295594.77948  84386294.68446  20607950.1094                   20607956.6644
 11  7 24  1 53  0.0000000  0  8G10G09G12G17G05G04G27G02
 110358414.84847  85993768.52046  21000514.4064                   21000523.2114
 122078554.94646  95126205.09544  23230779.5084                   23230790.4534
 114455257.970 7                  21780106.078
 120098762.588 7                  22854024.047
 119619862.510 7                  22762896.305
 110889263.82648  86407412.76446  21101523.0234                   21101532.1094
 123738062.22747  96419338.50943  23546576.7344                   23546588.0784
 108282370.67548  84375990.20646  20605433.7274                   20605440.2894
 11  7 24  1 53 30.0000000  0  8G10G09G12G17G05G04G27G02
 110330170.74547  85971760.15746  20995139.7424                   20995148.6804
 122152281.01846  95183653.92944  23244808.8834                   23244819.8204
 114384646.010 7                  21766669.164
 120150024.411 7                  22863778.641
 119519282.195 7                  22743756.328
 110958091.12848  86461044.42646  21114620.4454                   21114629.4344
 123799473.17347  96467191.15344  23558263.2814                   23558273.6764
 108269482.63148  84365947.58246  20602981.1644                   20602987.3914
 11  7 24  1 54  0.0000000  0  8G10G09G12G17G05G04G27G02
 110302523.03747  85950216.52046  20989878.1334                   20989886.8594
 122226283.39647  95241318.07344  23258891.8984                   23258902.0634
 114314396.162 7                  21753301.031
 120201425.949 7                  22873559.555
 119418888.427 7                  22724652.344
 111027153.15848  86514858.99046  21127762.7344                   21127771.7584
 123861043.43846  96515167.94544  23569979.5084                   23569990.2114
 108256929.88548  84356166.22846  20600592.4924                   20600598.8834
 11  7 24  1 54 30.0000000  0  8G10G09G12G17G05G04G27G02
 110275472.80647  85929138.45246  20984730.7974                   20984739.3204
 122300558.32347  95299194.59144  23273025.1024                   23273036.5124
 114244510.202 8                  21740001.961
 120252967.165 7                  22883367.859
 119318683.316 7                  22705583.250
 111096447.55748  86568854.62446  21140948.7584                   21140957.5164
 123922769.76146  96563266.33144  23581725.9694                   23581736.4964
 108244710.56648  84346644.70546  20598267.1484                   20598273.7544
 11  7 24  1 55  0.0000000  0  8G10G09G12G17G05G04G27G02
 110249021.86448  85908527.34746  20979697.8364                   20979706.3484
 122375102.71847  95357281.09144  23287211.4924                   23287221.1764
 114174991.115 7                  21726773.227
 120304648.953 7                  22893202.820
 119218670.486 7                  22686552.344
 111165972.10647  86623029.59746  21154178.9304                   21154188.5234
 123984649.80847  96611484.49643  23593501.6334                   23593512.5634
 108232824.50048  84337382.84846  20596005.3444                   20596012.0274
 11  7 24  1 55 30.0000000  0  8G10G09G12G17G05G04G27G02
 110223171.79747  85888384.46546  20974778.4454                   20974787.0704
 122449913.30347  95415575.01644  23301446.4614                   23301458.0634
 114105841.594 8                  21713614.844
 120356472.032 7                  22903064.492
 119118853.134 7                  22667557.055
 111235724.66048  86677382.22146  21167452.1414                   21167461.6024
 124046680.82547  96659820.30343  23605305.4384                   23605315.9454
 108221271.18548  84328380.28446  20593807.4224                   20593813.4224
 11  7 24  1 56  0.0000000  0  9G25G10G09G12G17G05G04G27G02
 129494315.89617                  24641954.211
 110197923.27247  85868710.32546  20969974.0704                   20969982.6094
 122524986.00247  95474073.18544  23315732.0944                   23315743.6374
 114037063.797 7                  21700526.703
 120408436.423 7                  22912953.523
 119019233.497 7                  22648600.305
 111305702.73748  86731910.59746  21180768.4454                   21180777.9774
 124108859.51746  96708271.18343  23617137.3984                   23617148.4574
 108210049.14848  84319635.85646  20591671.5234                   20591677.8874
 11  7 24  1 56 30.0000000  0  9G25G10G09G12G17G05G04G27G02
 129391056.641 7                  24622304.672
 110173278.05848  85849506.28346  20965284.1024                   20965292.7704
 122600317.84647  95532773.28044  23330068.2734                   23330078.4384
 113968660.243 7                  21687509.570
 120460542.862 6                  22922868.156
 118919815.121 7                  22629681.742
 111375904.18448  86786613.02046  21194127.4144                   21194136.6604
 124171183.42647  96756835.21243  23628997.4304                   23629008.0434
 108199157.59148  84311148.94646  20589598.9844                   20589605.2464
 11  7 24  1 57  0.0000000  0  9G25G10G09G12G17G05G04G27G02
 129287907.570 7                  24602675.992
 110149237.89348  85830773.70046  20960709.3594                   20960717.8094
 122675905.35647  95591672.58844  23344451.9774                   23344462.6024
 113900633.642 8                  21674564.219
 120512792.019 6                  22932811.023
 118820600.927 7                  22610801.773
 111446326.98848  86841487.93646  21207528.7504                   21207537.7934
 124233649.90547  96805510.33943  23640884.8134                   23640895.5354
 108188595.96948  84302919.13546  20587589.1334                   20587595.4454
 11  7 24  1 57 30.0000000  0  9G25G10G09G12G17G05G04G27G02
 129184871.269 7                  24583068.500
 110125803.74848  85812513.34646  20956249.9614                   20956258.9344
 122751745.05447  95650768.45744  23358883.4924                   23358894.5354
 113832986.551 7                  21661691.609
 120565184.427 7                  22942781.406
 118721594.027 7                  22591960.617
 111516969.26948  86896533.86846  21220971.3594                   21220980.6334
 124296256.14846  96854294.36543  23652798.1484                   23652809.0354
 108178363.54048  84294945.84246  20585641.6644                   20585648.3324
 11  7 24  1 58  0.0000000  0  9G25G10G09G12G17G05G04G27G02
 129081950.019 6                  24563482.641
 110102977.11448  85794726.38146  20951906.1564                   20951915.1804
 122827833.58347  95710058.17244  23373363.4304                   23373373.4844
 113765721.189 8                  21648891.297
 120617720.633 7                  22952778.875
 118622797.353 7                  22573160.195
 111587828.43547  86951748.80646  21234455.3524                   21234464.4574
 124358999.48546  96903185.20543  23664737.4614                   23664749.0434
 108168459.29448  84287228.27946  20583757.1414                   20583763.6914
 11  7 24  1 58 30.0000000  0  9G25G10G09G12G17G05G04G27G02
 128979146.156 6                  24543919.563
 110080759.10748  85777413.67146  20947678.0004                   20947686.8244
 122904167.57347  95769539.17844  23387888.1724                   23387899.4104
 113698840.258 8                  21636164.734
 120670400.997 7                  22962802.844
 118524213.819 7                  22554400.867
 111658902.12248  87007130.89945  21247980.3984                   21247989.0984
 124421877.08446  96952180.65843  23676703.2274                   23676714.3984
 108158882.09648  84279765.55146  20581934.5164                   20581940.8874
 11  7 24  1 59  0.0000000  0  9G25G10G09G12G17G05G04G27G02
 128876462.417 6                  24524380.063
 110059151.12448  85760576.30546  20943566.3754                   20943575.1804
 122980743.50447  95829208.69244  23402460.8134                   23402471.6994
 113632346.132 8                  21623511.219
 120723226.154 7                  22972855.320
 118425846.438 7                  22535681.969
 111730188.31547  87062678.58646  21261545.6804                   21261554.4494
 124484886.14146  97001278.60543  23688692.4694                   23688704.8984
 108149631.29948  84272557.16746  20580174.2734                   20580180.2704
 11  7 24  1 59 30.0000000  0  9G25G10G09G12G17G05G04G27G02
 128773901.010 7                  24504863.320
 110038154.26948  85744215.15046  20939570.6484                   20939578.9224
 123057557.97147  95889064.10844  23417078.0004                   23417088.6094
 113566241.324 7                  21610931.844
 120776196.556 7                  22982935.656
 118327698.010 7                  22517005.047
 111801684.85447  87118390.17746  21275150.9454                   21275160.1054
 124548023.85846  97050476.75243  23700707.7344                   23700719.1374
 108140705.87148  84265602.32046  20578475.5704                   20578482.0354
 11  7 24  2  0  0.0000000  0  9G25G10G09G12G17G05G04G27G02
 128671464.446 7                  24485370.547
 110017769.31148  85728330.78746  20935691.4924                   20935700.3014
 123134607.65647  95949102.78944  23431740.6094                   23431750.3204
 113500527.950 7                  21598426.672
 120829312.605 7                  22993042.805
 118229771.469 7                  22498369.789
 111873389.42447  87174263.85746  21288796.0004                   21288804.9614
 124611287.35746  97099772.89943  23712746.2814                   23712758.3794
 108132104.79248  84258900.21046  20576839.1484                   20576845.0274
 11  7 24  2  0 30.0000000  0  9G25G10G09G12G17G05G04G27G02
 128569155.437 7                  24465901.781
 109997997.88248  85712924.51246  20931929.1564                   20931937.5044
 123211889.06447  96009322.03944  23446446.6024                   23446457.4734
 113435208.886 7                  21585997.023
 120882575.043 7                  23003178.492
 118132069.862 7                  22479777.789
 111945300.02147  87230298.10246  21302480.0234                   21302489.1524
 124674674.09246  97149165.07243  23724809.2974                   23724820.4224
 108123827.48248  84252450.38446  20575263.8594                   20575269.9694
 11  7 24  2  1  0.0000000  0  9G25G10G09G12G17G05G04G27G02
 128466976.356 6                  24446457.453
 109978841.00448  85697997.09746  20928283.7814                   20928292.1174
 123289398.61047  96069719.10344  23461195.6024                   23461205.7464
 113370286.304 8                  21573642.266
 120935984.249 7                  23013342.375
 118034596.531 7                  22461229.734
 112017414.35848  87286491.09246  21316203.0864                   21316211.8014
 124738181.30546  97198651.10443  23736894.1804                   23736905.4144
 108115872.71448  84246251.88446  20573750.4844                   20573756.5394
 11  7 24  2  1 30.0000000  0  9G25G10G09G12G17G05G04G27G02
 128364929.679 6                  24427038.570
 109960299.69447  85683549.34446  20924755.5474                   20924763.9804
 123367132.98547  96130291.28944  23475988.2424                   23475999.0514
 113305762.662 7                  21561364.070
 120989540.467 7                  23023533.680
 117937354.299 7                  22442725.109
 112089730.29348  87342841.18046  21329964.3204                   21329973.2464
 124801806.01446  97248228.71543  23749000.9144                   23749012.9264
 108108239.62348  84240304.05246  20572297.3594                   20572303.9224
 11  7 24  2  2  0.0000000  0  9G25G10G09G12G17G05G04G27G02
 128263017.867 6                  24407645.711
 109942374.97248  85669582.05446  20921344.5004                   20921352.7934
 123445088.80247  96191036.06744  23490822.9534                   23490833.8594
 113241640.258 8                  21549161.984
 121043244.403 7                  23033753.180
 117840345.769 7                  22424264.508
 112162245.67448  87399346.67746  21343763.7814                   21343772.5044
 124865545.56446  97297895.82244  23761130.4064                   23761142.0004
 108100927.26648  84234606.13446  20570905.7504                   20570912.1024
 11  7 24  2  2 30.0000000  0  9G25G10G09G12G17G05G04G27G02
 128161243.601 6                  24388278.734
 109925067.90248  85656096.04046  20918051.0784                   20918059.3134
 123523262.56947  96251950.65244  23505698.8444                   23505709.3284
 113177921.862 8                  21537036.742
 121097096.540 7                  23044001.063
 117743574.023 7                  22405849.609
 112234958.34648  87456005.90746  21357600.2504                   21357609.4344
 124929397.17246  97347650.24343  23773281.1024                   23773292.7664
 108093934.77748  84229157.46646  20569575.2894                   20569581.5084
 11  7 24  2  3  0.0000000  0  9G25G10G09G12G17G05G04G27G02
 128059609.326 6                  24368937.906
 109908379.56048  85643092.16146  20914875.1884                   20914883.6374
 123601650.73347  96313032.28844  23520615.5704                   23520625.8444
 113114609.597 7                  21524988.492
 121151097.411 7                  23054276.813
 117647042.036 7                  22387479.414
 112307866.08948  87512817.13146  21371474.5164                   21371483.5824
 124993358.20946  97397489.97044  23785452.3524                   23785464.6414
 108087261.25648  84223957.33446  20568305.5634                   20568312.0634
 11  7 24  2  3 30.0000000  0  9G25G10G09G12G17G05G04G27G02
 127958117.452 7                  24349624.352
 109892310.79748  85630571.06946  20911817.2894                   20911825.5944
 123680249.92347  96374278.38244  23535572.6954                   23535583.4414
 113051705.779 7                  21513018.836
 121205247.486 7                  23064581.094
 117550753.017 7                  22369156.594
 112380966.68948  87569778.62846  21385384.9614                   21385393.7504
 125057425.71346  97447412.59344  23797643.9454                   23797655.8794
 108080905.61148  84219004.90246  20567095.4304                   20567102.0434
 11  7 24  2  4  0.0000000  0  9G25G10G09G12G17G05G04G27G02
 127856770.572 7                  24330338.781
 109876862.41948  85618533.39946  20908877.6884                   20908885.9884
 123759056.72446  96435686.23144  23550569.5234                   23550579.8404
 112989212.790 8                  21501126.531
 121259547.152 7                  23074914.336
 117454709.237 7                  22350880.516
 112454257.98248  87626888.71946  21399331.3914                   21399340.4804
 125121596.66047  97497415.88144  23809855.7034                   23809867.4384
 108074866.68048  84214299.26046  20565946.7734                   20565952.8014
 11  7 24  2  4 30.0000000  0  9G25G10G09G12G17G05G04G27G02
 127755571.243 7                  24311081.070
 109862035.82748  85606980.22546  20906056.4454                   20906064.6884
 123838067.73246  96497253.18444  23565604.3914                   23565615.2624
 112927133.168 8                  21489312.961
 121313996.738 7                  23085274.805
 117358914.138 7                  22332650.852
 112527738.02048  87684145.89045  21413314.3524                   21413323.4654
 125185868.47247  97547497.72844  23822086.3674                   23822097.8014
 108069143.48148  84209839.63646  20564857.5634                   20564864.0354
 11  7 24  2  5  0.0000000  0  9G25G10G09G12G17G05G04G27G02
 127654522.009 7                  24291852.484
 109847831.48947  85595911.93746  20903353.2894                   20903361.6254
 123917279.35246  96558976.46044  23580678.3524                   23580689.0314
 112865469.200 8                  21477578.789
 121368597.092 7                  23095665.305
 117263370.620 7                  22314469.570
 112601404.56547  87741548.38345  21427332.8054                   21427341.7384
 125250238.41647  97597656.07044  23834335.4694                   23834346.7664
 108063735.26648  84205625.46846  20563828.5634                   20563834.9104
 11  7 24  2  5 30.0000000  0  9G25G10G09G12G17G05G04G27G02
 127553625.442 7                  24272652.992
 109834250.27548  85585329.19846  20900768.7274                   20900777.0904
 123996688.38646  96620853.59444  23595789.1174                   23595800.1454
 112804223.257 8                  21465923.852
 121423348.211 7                  23106084.203
 117168081.729 7                  22296336.375
 112675255.58747  87799094.64045  21441385.8284                   21441394.8524
 125314703.81147  97647888.78544  23846602.8524                   23846614.6764
 108058640.92348  84201655.85846  20562859.0314                   20562865.4304
 11  7 24  2  6  0.0000000  0  9G25G10G09G12G17G05G04G27G02
 127452884.190 7                  24253481.734
 109821293.22948  85575232.82146  20898303.1564                   20898312.0904
 124076291.38146  96682881.82744  23610937.1644                   23610948.0044
 112743397.835 7                  21454349.414
 121478250.971 7                  23116531.914
 117073050.636 7                  22278252.898
 112749289.07947  87856783.07645  21455474.0634                   21455482.8204
 125379261.88447  97698193.72343  23858887.3284                   23858899.8364
 108053859.84448  84197930.36446  20561949.2974                   20561955.6764
 11  7 24  2  6 30.0000000  0  9G25G10G09G12G17G05G04G27G02
 127352300.663 7                  24234341.852
 109808960.93148  85565623.27646  20895956.3134                   20895965.0314
 124156084.74046  96745058.42344  23626121.1884                   23626131.9384
 112682995.139 7                  21442854.750
 121533305.813 7                  23127008.352
 116978279.807 8                  22260218.367
 112823502.54047  87914611.74145  21469596.3134                   21469605.2894
 125443909.55647  97748568.49843  23871190.1804                   23871201.7034
 108049390.46248  84194447.75446  20561098.5164                   20561104.8134
 11  7 24  2  7  0.0000000  0  9G25G10G09G12G17G05G04G27G02
 127251877.545 7                  24215231.547
 109797254.44348  85556501.35446  20893728.7734                   20893736.8444
 124236064.94546  96807380.58144  23641340.4064                   23641352.3404
 112623017.170 8                  21431441.750
 121588513.213 7                  23137514.000
 116883772.221 7                  22242234.234
 112897894.15848  87972579.23845  21483752.4454                   21483761.7504
 125508644.35247  97799011.15343  23883508.8054                   23883520.4884
 108045232.01948  84191207.42746  20560307.4454                   20560313.4654
 11  7 24  2  7 30.0000000  0  9G25G10G09G12G17G05G04G27G02
 127151617.402 7                  24196152.891
 109786174.53848  85547867.70346  20891619.6334                   20891628.7194
 124316228.91047  96869845.93744  23656595.9144                   23656606.4574
 112563466.557 8                  21420109.461
 121643873.614 7                  23148048.875
 116789530.635 7                  22224300.234
 112972461.86747  88030683.94945  21497942.2894                   21497951.4734
 125573463.35346  97849519.41643  23895843.5314                   23895855.0274
 108041383.52848  84188208.61546  20559574.9454                   20559581.4614
 11  7 24  2  8  0.0000000  0  9G25G10G09G12G17G05G04G27G02
 127051522.986 7                  24177105.664
 109775721.80248  85539722.72846  20889630.8674                   20889639.4104
 124396573.12947  96932451.77744  23671885.1334                   23671895.7704
 112504345.948 8                  21408859.008
 121699387.436 7                  23158612.617
 116695558.546 7                  22206418.219
 113047203.67047  88088924.32845  21512165.0314                   21512174.1254
 125638364.06446  97900091.36943  23908193.4774                   23908204.5044
 108037844.34048  84185450.82346  20558901.6644                   20558907.7274
 11  7 24  2  8 30.0000000  0  9G25G10G09G12G17G05G04G27G02
 126951596.863 7                  24158089.953
 109765897.14748  85532067.18646  20887761.4454                   20887769.9384
 124477094.06147  96995195.31144  23687207.1484                   23687218.5394
 112445657.477 8                  21397690.906
 121755055.308 7                  23169205.594
 116601858.905 7                  22188587.781
 113122117.46747  88147298.72645  21526420.5314                   21526429.6454
 125703343.69846  97950724.80443  23920558.5634                   23920570.4534
 108034613.42548  84182933.24046  20558286.9924                   20558293.0664
 11  7 24  2  9  0.0000000  0  9G25G10G09G12G17G05G04G27G02
 126851841.351 7                  24139107.016
 109756700.72048  85524901.17746  20886011.3984                   20886019.9534
 124557788.00547  97058073.65744  23702562.4384                   23702573.8984
 112387403.313 8                  21386605.328
 121810877.429 7                  23179828.430
 116508434.241 7                  22170809.648
 113197201.07847  88205805.43945  21540709.1094                   21540717.9734
 125768399.20146  98001417.39242  23932938.7344                   23932949.3134
 108031689.10348  84180654.56246  20557730.3134                   20557736.4344
 11  7 24  2  9 30.0000000  0  9G25G10G09G12G17G05G04G27G02
 126752259.276 7                  24120157.148
 109748133.34548  85518225.32546  20884381.3134                   20884389.9144
 124638651.93147  97121084.43544  23717951.4064                   23717961.6884
 112329585.690 8                  21375603.289
 121866854.352 7                  23190480.320
 116415287.465 7                  22153084.258
 113272452.37148  88264442.82545  21555029.0474                   21555037.9184
 125833527.87546  98052166.97543  23945331.7194                   23945343.0204
 108029070.74648  84178614.29346  20557231.7894                   20557238.1604
 11  7 24  2 10  0.0000000  0  9G25G10G09G12G17G05G04G27G02
 126652852.844 6                  24101240.625
 109740195.40848  85512039.94246  20882870.5704                   20882879.0664
 124719682.41947  97184225.02244  23733370.6954                   23733381.8054
 112272206.891 8                  21364684.367
 121922986.669 6                  23201162.531
 116322421.493 7                  22135412.977
 113347869.20147  88323209.20945  21569380.3834                   21569388.9184
 125898726.58446  98102971.13842  23957738.7034                   23957749.9224
 108026757.03648  84176811.41946  20556791.9064                   20556798.1994
 11  7 24  2 10 30.0000000  0  9G25G10G09G12G17G05G04G27G02
 126553625.096 6                  24082358.125
 109732888.17348  85506346.00646  20881480.2664                   20881488.6914
 124800876.16847  97247492.82644  23748821.5314                   23748832.4184
 112215269.290 8                  21353849.531
 121979274.919 7                  23211873.141
 116229839.338 7                  22117794.766
 113423449.91147  88382103.28845  21583762.0864                   21583771.6054
 125963993.21545  98153828.19042  23970158.3054                   23970169.9574
 108024747.54348  84175245.60046  20556409.2814                   20556415.3164
 11  7 24  2 11  0.0000000  0  9G25G10G09G12G17G05G04G27G02
 126454578.602 6                  24063509.945
 109726211.70848  85501143.59046  20880209.6334                   20880218.0314
 124882229.34047  97310884.85344  23764302.3984                   23764313.3794
 112158775.025 8                  21343098.969
 122035719.300 7                  23222614.555
 116137543.935 7                  22100231.289
 113499192.32848  88441123.36745  21598175.9144                   21598185.0784
 126029324.81245  98204735.91142  23982591.1024                   23982602.6524
 108023040.99448  84173915.83546  20556084.6174                   20556090.7854
 11  7 24  2 11 30.0000000  0  9G25G10G09G12G17G05G04G27G02
 126355715.879 6                  24044697.102
 109720166.40448  85496432.98946  20879059.0784                   20879067.6914
 124963738.83147  97374398.70944  23779813.0554                   23779824.3164
 112102726.548 8                  21332433.234
 122092320.193 7                  23233386.055
 116045538.260 7                  22082723.445
 113575094.45947  88500267.89045  21612619.4304                   21612628.6334
 126094718.78046  98255692.18542  23995034.2114                   23995047.4184
 108021636.13448  84172821.14646  20555817.2734                   20555823.5634
 11  7 24  2 12  0.0000000  0  9G25G10G09G12G17G05G04G27G02
 126257039.516 7                  24025919.469
 109714752.97448  85492214.76146  20878028.6334                   20878037.0004
 125045401.07447  97438031.58244  23795353.5784                   23795363.9964
 112047126.010 8                  21321852.695
 122149078.379 6                  23244186.563
 115953825.063 7                  22065270.797
 113651154.12448  88559535.17745  21627092.7584                   21627102.0274
 126160172.03445  98306694.66142  24007489.7344                   24007502.3404
 108020532.09048  84171960.86146  20555607.0944                   20555613.5594
 11  7 24  2 12 30.0000000  0  9G25G10G09G12G17G05G04G27G02
 126158552.117 7                  24007177.633
 109709971.98347  85488489.33946  20877119.0314                   20877127.2624
 125127212.69747  97501780.86544  23810921.4844                   23810932.0004
 111991975.631 8                  21311357.992
 122205994.133 6                  23255016.617
 115862407.188 7                  22047874.508
 113727369.53147  88618923.80745  21641596.5394                   21641604.9184
 126225682.03046  98357741.31243  24019956.4454                   24019968.8444
 108019727.87648  84171334.20746  20555454.1484                   20555459.8954
 11  7 24  2 13  0.0000000  0  9G25G10G09G12G17G05G04G27G02
 126060256.121 7                  23988472.477
 109705823.14247  85485256.50146  20876329.3984                   20876337.6054
 125209170.39447  97565643.93844  23826516.9774                   23826528.2464
 111937277.478 8                  21300949.266
 122263067.829 6                  23265876.977
 115771287.588 7                  22030535.063
 113803738.23948  88678431.90445  21656129.2114                   21656137.9454
 126291245.85946  98408829.95043  24032433.3134                   24032445.3594
 108019221.98148  84170940.01446  20555357.7584                   20555363.5354
 11  7 24  2 13 30.0000000  0  9G25G10G09G12G17G05G04G27G02
 125962154.406 7                  23969804.047
 109702307.69147  85482517.20746  20875660.6884                   20875668.8954
 125291270.66947  97629618.16944  23842140.7664                   23842151.6254
 111883033.990 8                  21290627.063
 122320299.990 6                  23276768.375
 115680469.353 7                  22013252.906
 113880258.78447  88738058.31045  21670689.8754                   21670699.1844
 126356860.86846  98459958.45343  24044919.4844                   24044930.9224
 108019013.86548  84170777.85146  20555318.2894                   20555324.8134
 11  7 24  2 14  0.0000000  0  9G25G10G09G12G17G05G04G27G02
 125864249.600 7                  23951174.141
 109699425.81347  85480271.61646  20875112.3914                   20875120.7274
 125373510.14047  97693700.80743  23857790.3444                   23857800.8834
 111829247.357 8                  21280392.008
 122377690.970 6                  23287688.500
 115589955.126 7                  21996028.539
 113956929.05648  88797801.39145  21685280.1174                   21685289.1764
 126422524.36746  98511124.78043  24057414.6884                   24057426.8674
 108019102.25048  84170846.73546  20555334.7894                   20555341.3554
 11  7 24  2 14 30.0000000  0  9G25G10G09G12G17G05G04G27G02
 125766544.279 7                  23932580.938
 109697177.63947  85478519.82146  20874684.1334                   20874692.6454
 125455885.52647  97757889.36343  23873465.7344                   23873475.9344
 111775919.473 8                  21270243.820
 122435241.247 6                  23298640.500
 115499747.757 7                  21978862.813
 114033746.95548  88857659.49645  21699898.1724                   21699906.8244
 126488233.51646  98562326.63544  24069918.9454                   24069931.0904
 108019486.20348  84171145.92546  20555407.8524                   20555414.0434
 11  7 24  2 15  0.0000000  0  9G25G10G09G12G17G05G04G27G02
 125669040.887 7                  23914026.617
 109695563.16847  85477261.81646  20874376.8524                   20874385.4064
 125538393.32647  97822181.15643  23889166.1724                   23889177.6294
 111723052.351 8                  21260183.508
 122492951.120 6                  23309622.563
 115409849.952 7                  21961755.688
 114110710.47148  88917631.07845  21714543.8914                   21714552.5274
 126553985.27046  98613561.74144  24082430.5704                   24082442.7114
 108020164.38947  84171674.39646  20555537.2034                   20555543.1994
 11  7 24  2 15 30.0000000  0  9G25G10G09G12G17G05G04G27G02
 125571742.261 7                  23895511.141
 109694583.08547  85476498.14246  20874190.6724                   20874198.9804
 125621030.27646  97886573.52743  23904892.1414                   23904902.8054
 111670648.490 8                  21250211.352
 122550821.002 6                  23320634.688
 115320264.433 7                  21944707.727
 114187817.74048  88977714.67045  21729216.7274                   21729225.0594
 126619777.17246  98664828.10344  24094950.7504                   24094962.4344
 108021135.79348  84172431.34546  20555721.8754                   20555727.9454
 11  7 24  2 16  0.0000000  0  9G25G10G09G12G17G05G04G27G02
 125474651.013 7                  23877035.344
 109694237.85548  85476229.15946  20874124.8594                   20874133.3984
 125703792.98146  97951063.88543  23920640.3134                   23920651.5824
 111618709.932 8                  21240327.727
 122608851.581 6                  23331677.328
 115230994.569 7                  21927720.641
 114265066.87648  89037908.81645  21743916.8594                   21743925.4884
 126685606.63246  98716123.70544  24107478.0004                   24107490.1564
 108022399.65048  84173416.17346  20555962.4304                   20555968.4024
 11  7 24  2 16 30.0000000  0  9G25G10G09G12G17G05G04G27G02
 125377769.814 7                  23858599.750
 109694527.35247  85476454.76846  20874179.8674                   20874188.0704
 125786678.09746  98015649.63243  23936412.9064                   23936424.2074
 111567239.000 8                  21230533.305
 122667043.367 6                  23342750.750
 115142043.165 7                  21910793.148
 114342455.64548  89098211.77145  21758643.5084                   21758652.2154
 126751470.66546  98767446.28744  24120011.4224                   24120023.6024
 108023954.78047  84174627.98546  20556258.1954                   20556264.5744
 11  7 24  2 17  0.0000000  0  9G25G10G09G12G17G05G04G27G02
 125281101.326 7                  23840204.031
 109695451.47047  85477174.89446  20874355.9224                   20874364.3754
 125869682.04946  98080327.97943  23952208.2114                   23952220.1294
 111516237.696 8                  21220827.773
 122725396.237 6                  23353854.750
 115053413.077 7                  21893927.984
 114419982.40148  89158622.24745  21773396.3594                   21773404.6764
 126817366.58246  98818793.69044  24132550.9454                   24132563.0664
 108025799.76948  84176065.65146  20556609.2894                   20556615.7114
 11  7 24  2 17 30.0000000  0  9G25G10G09G12G17G05G04G27G02
 125184648.115 6                  23821849.570
 109697010.68248  85478389.88746  20874652.2424                   20874660.9694
 125952801.55246  98145096.36743  23968025.5864                   23968036.2934
 111465708.033 8                  21211212.461
 122783910.897 6                  23364990.281
 114965106.543 7                  21877123.867
 114497645.14348  89219138.67645  21788174.7034                   21788183.6884
 126883291.72846  98870163.87643  24145096.0704                   24145108.1294
 108027933.77348  84177728.52046  20557015.5084                   20557021.4414
 11  7 24  2 18  0.0000000  0  9G25G10G09G12G17G05G04G27G02
 125088412.853 7                  23803536.242
 109699205.17148  85480099.89546  20875070.0084                   20875078.7664
 126036032.92546  98209951.89443  23983864.7114                   23983874.8134
 111415651.997 8                  21201687.000
 122842587.760 6                  23376156.133
 114877126.724 7                  21860381.695
 114575441.80148  89279759.45745  21802979.4614                   21802987.8364
 126949243.17146  98921554.57344  24157645.6954                   24157658.8484
 108030355.24048  84179615.39546  20557475.9534                   20557482.0204
 11  7 24  2 18 30.0000000  0  9G25G10G09G12G17G05G04G27G02
 124992398.355 7                  23785265.664
 109702034.97148  85482304.95846  20875608.0784                   20875616.9494
 126119373.25146  98274892.38343  23999722.9844                   23999734.3954
 111366072.028 8                  21192252.156
 122901427.354 6                  23387353.070
 114789476.622 8                  21843702.172
 114653370.75748  89340483.33245  21817808.4924                   21817817.2234
 127015218.40246  98972963.76443  24170201.0474                   24170213.0904
 108033063.94048  84181726.08146  20557991.7424                   20557997.9454
 11  7 24  2 19  0.0000000  0  9G25G10G09G12G17G05G04G27G02
 124896607.271 7                  23767036.781
 109705500.42948  85485005.32946  20876268.0004                   20876276.4574
 126202819.08147  98339915.05943  24015602.9924                   24015613.9924
 111316969.990 8                  21182908.656
 122960429.929 7                  23398581.555
 114702158.947 7                  21827086.273
 114731430.11348  89401308.80945  21832663.1884                   21832671.5904
 127081214.75146  99024389.41643  24182760.1804                   24182771.3164
 108036058.50948  84184059.52546  20558561.3284                   20558567.5784
 11  7 24  2 19 30.0000000  0  9G25G10G09G12G17G05G04G27G02
 124801042.169 7                  23748851.883
 109709601.29748  85488200.82446  20877048.1484                   20877056.5044
 126286367.03046  98405017.27443  24031501.4534                   24031512.5004
 111268347.831 8                  21173655.766
 123019595.781 7                  23409839.531
 114615176.619 7                  21810533.938
 114809617.77148  89462234.25745  21847541.1954                   21847550.3984
 127147229.52145  99075829.44543  24195321.8134                   24195334.0394
 108039337.68748  84186614.74546  20559185.5394                   20559191.6884
 11  7 24  2 20  0.0000000  0  9G25G10G09G12G17G05G04G27G02
 124705705.634 7                  23730709.648
 109714337.50947  85491891.39646  20877949.3834                   20877957.7304
 126370013.89347  98470196.61943  24047418.3134                   24047430.1644
 111220207.633 8                  21164495.055
 123078925.417 7                  23421129.906
 114528532.304 7                  21794046.461
 114887931.91148  89523258.26945  21862443.7894                   21862453.2734
 127213259.75245  99127281.45942  24207886.1884                   24207899.1374
 108042900.38448  84189390.88546  20559863.2274                   20559869.5744
 11  7 24  2 20 30.0000000  0  9G25G10G09G12G17G05G04G27G02
 124610600.495 7                  23712611.391
 109719708.99547  85496076.97646  20878972.0634                   20878979.9734
 126453756.21447  98535450.30844  24063355.2194                   24063365.9304
 111172551.437 8                  21155426.469
 123138419.241 7                  23432451.367
 114442228.562 7                  21777622.719
 114966370.60247  89584379.33545  21877370.5864                   21877379.3984
 127279302.93545  99178743.57742  24220454.7974                   24220467.0634
 108046745.32348  84192386.95046  20560595.0634                   20560601.2974
 11  7 24  2 21  0.0000000  0  9G25G10G09G12G17G05G04G27G02
 124515729.421 7                  23694558.539
 109725715.79847  85500757.62746  20880114.8754                   20880123.3834
 126537590.72947  98600775.84344  24079308.0004                   24079318.7974
 111125381.432 8                  21146450.227
 123198077.632 7                  23443803.578
 114356268.412 7                  21761265.430
 115044932.18947  89645596.14745  21892319.9774                   21892329.2544
 127345356.39055  99230213.74952  24233022.3284                   24233037.3634
 108050871.64948  84195602.28846  20561380.3834                   20561386.4104
 11  7 24  2 21 30.0000000  0  9G25G10G09G12G17G05G04G27G02
 124421094.965 7                  23676549.766
 109732357.97348  85505933.35846  20881378.7114                   20881387.2974
 126621514.01547  98666170.53744  24095278.1414                   24095289.7114
 111078699.268 8                  21137566.969
 123257901.037 7                  23455188.320
 114270654.546 7                  21744973.227
 115123614.55547  89706907.07545  21907292.8204                   21907302.5004
                                  24245596.391
 108055277.90248  84199035.75346  20562219.2424                   20562224.9614
 11  7 24  2 22  0.0000000  0  9G25G10G09G12G17G05G04G27G02
 124326699.610 7                  23658587.328
 109739634.97147  85511603.74846  20882763.5474                   20882771.8594
 126705522.44147  98731631.58244  24111264.2584                   24111275.8094
 111032507.074 8                  21128776.680
 123317889.399 7                  23466602.555
 114185389.622 7                  21728748.086
 115202415.74647  89768310.59045  21922288.1884                   21922297.3134
 127477482.55955  99333178.95052  24258167.4534                   24258178.0824
 108059963.16947  84202686.62646  20563110.4304                   20563116.6684
 11  7 24  2 22 30.0000000  0  9G25G10G09G12G17G05G04G27G02
 124232545.851 7                  23640669.961
 109747546.59048  85517768.65646  20884268.8754                   20884277.3324
 126789612.56547  98797156.28944  24127266.8054                   24127277.4774
 110986806.137 8                  21120080.289
 123378042.967 7                  23478050.242
 114100476.064 7                  21712589.516
 115281333.70547  89829805.09345  21937305.7814                   21937314.8404
 127543549.48956  99384659.59652  24270738.9844                   24270751.1024
 108064925.89048  84206553.69446  20564054.6954                   20564060.8094
 11  7 24  2 23  0.0000000  0  9G25G10G09G12G17G05G04G27G02
 124138636.662 7                  23622799.180
 109756092.86848  85524428.11446  20885895.0554                   20885903.0314
 126873781.44947  98862742.36044  24143283.0784                   24143294.1884
 110941598.844 8                  21111477.813
 123438362.558 6                  23489528.336
 114015916.793 7                  21696498.313
 115360366.96947  89891389.44145  21952345.2344                   21952354.2304
 127609615.81346  99436139.78743  24283311.4694                   24283323.6844
 108070165.40448  84210636.46046  20565051.9144                   20565057.8484
 11  7 24  2 23 30.0000000  0  9G25G10G09G12G17G05G04G27G02
 124044974.878 7                  23604976.375
 109765273.79348  85531582.08946  20887642.5474                   20887650.8244
 126958025.98647  98928387.39344  24159314.4304                   24159326.3094
 110896887.363 8                  21102969.430
 123498848.382 6                  23501038.273
 113931714.944 8                  21680475.148
 115439513.80947  89953062.29245  21967406.9064                   21967415.5164
 127675678.82046  99487617.38742  24295883.3674                   24295894.5634
 108075680.70348  84214934.09946  20566101.1724                   20566107.3674
 11  7 24  2 24  0.0000000  0  9G25G10G09G12G17G05G04G27G02
 123951563.023 6                  23587199.930
 109775088.90448  85539230.24846  20889510.0554                   20889518.2814
 127042342.50147  98994088.48844  24175359.3524                   24175370.4104
 110852673.716 8                  21094555.664
 123559501.058 6                  23512579.680
 113847873.090 8                  21664520.648
 115518772.35947  90014822.19545  21982489.1094                   21982497.8484
 127741735.92846  99539090.43443  24308453.1414                   24308465.3204
 108081470.42748  84219445.59546  20567202.9144                   20567209.2194
 11  7 24  2 24 30.0000000  0  9G25G10G09G12G17G05G04G27G02
 123858404.068 6                  23569472.469
 109785538.50948  85547372.79846  20891498.8364                   20891507.4024
 127126727.91846  99059843.27944  24191417.2424                   24191428.5864
 110808960.364 8                  21086237.398
 123620320.756 6                  23524152.742
 113764394.254 8                  21648635.273
 115598141.18547  90076668.03945  21997592.4774                   21997600.9264
 127807784.71147  99590556.94643  24321022.4454                   24321033.8094
 108087533.77948  84224170.29046  20568356.9304                   20568363.1374
 11  7 24  2 25  0.0000000  0  9G25G10G09G12G17G05G04G27G02
 123765500.287 6                  23551793.859
 109796621.76248  85556009.10346  20893607.4844                   20893616.5474
 127211178.67747  99125648.98444  24207488.5314                   24207499.7504
 110765747.735 8                  21078014.133
 123681307.854 7                  23535759.773
 113681280.528 8                  21632819.195
 115677617.99047  90138598.01045  22012715.9844                   22012725.2194
 127873822.10646  99642014.62543  24333588.8984                   24333600.9384
 108093869.23248  84229107.01946  20569562.4304                   20569568.6374
 11  7 24  2 25 30.0000000  0  9G25G10G09G12G17G05G04G27G02
 123672854.516 6                  23534163.703
 109808338.63948  85565139.14246  20895837.6174                   20895846.0314
 127295691.89346  99191503.37644  24223570.2584                   24223581.5634
 110723038.352 8                  21069886.516
 123742462.792 6                  23547396.281
 113598534.884 8                  21617073.453
 115757201.13547  90200610.85745  22027860.6564                   22027869.4614
 127939845.51946  99693461.39743  24346152.6334                   24346164.5824
 108100476.09748  84234255.24146  20570819.6484                   20570825.8364
 11  7 24  2 26  0.0000000  0  9G25G10G09G12G17G05G04G27G02
 123580469.276 7                  23516583.203
 109820688.54348  85574762.45246  20898187.9064                   20898195.9924
 127380263.99246  99257403.62843  24239663.5634                   24239675.0594
 110680833.788 8                  21061855.352
 123803785.839 7                  23559067.195
 113516159.825 8                  21601397.398
 115836888.76547  90262705.11245  22043025.1334                   22043033.2704
 128005851.82546  99744894.79843  24358713.6024                   24358725.3874
 108107352.63548  84239613.60246  20572128.1724                   20572134.2464
 11  7 24  2 26 30.0000000  0  9G25G10G09G12G17G05G04G27G02
 123488347.501 7                  23499052.578
 109833671.06648  85584878.72046  20900658.0004                   20900666.5664
 127464892.08846  99323347.51143  24255768.2894                   24255779.4384
 110639136.540 8                  21053920.711
 123865277.214 6                  23570767.359
 113434158.363 8                  21585793.320
 115916679.28047  90324879.54045  22058208.8134                   22058216.8674
 128071838.85746  99796313.19443  24371270.6414                   24371282.5004
 108114498.27748  84245181.65246  20573487.9064                   20573494.2154
 11  7 24  2 27  0.0000000  0  9G25G10G09G12G17G05G04G27G02
 123396491.682 7                  23481572.906
 109847285.79348  85595487.60846  20903248.6334                   20903256.6914
 127549572.59746  99389332.24443  24271882.7034                   24271893.9494
 110597948.270 8                  21046082.969
 123926937.200 6                  23582501.047
 113352533.157 7                  21570260.367
 115996570.96947  90387132.80945  22073411.2274                   22073419.2464
 128137803.89646  99847714.45743  24383823.1334                   24383835.1884
 108121911.55248  84250958.25346  20574898.6804                   20574904.6524
 11  7 24  2 27 30.0000000  0  9G25G10G09G12G17G05G04G27G02
 123304904.529 7                  23464144.898
 109861532.37548  85606588.86246  20905959.7664                   20905967.5704
 127634302.02846  99455355.12943  24288006.1484                   24288017.3284
 110557270.383 8                  21038342.039
 123988766.390 7                  23594266.344
 113271286.481 8                  21554799.508
 116076561.85147  90449463.36245  22088632.6174                   22088641.7384
 128203744.19846  99899096.43643  24396371.1804                   24396383.3674
 108129591.38048  84256942.56546  20576360.0004                   20576366.2234
 11  7 24  2 28  0.0000000  0  9G25G10G09G12G17G05G04G27G02
 123213588.729 7                  23446767.984
 109876410.71148  85618182.39046  20908791.1094                   20908799.4964
 127719077.47846  99521413.85943  24304137.8054                   24304149.6884
 110517105.086 8                  21030699.156
 124050765.145 6                  23606064.242
 113190421.269 8                  21539411.516
 116156650.33147  90511869.98545  22103873.1414                   22103882.1214
 128269657.25546  99950457.14643  24408914.6804                   24408926.4844
 108137536.92448  84263133.90546  20577872.0394                   20577878.2384
 11  7 24  2 28 30.0000000  0  9G25G10G09G12G17G05G04G27G02
 123122547.093 7                  23429443.227
 109891919.80348  85630267.41046  20911742.4144                   20911750.9024
 127803895.54346  99587505.74543  24320277.1484                   24320289.9344
 110477454.024 8                  21023153.516
 124112933.382 6                  23617894.750
 113109940.255 8                  21524096.234
 116236834.76847  90574351.36145  22119131.3054                   22119140.6454
 128335540.49146 100001794.67643  24421451.2734                   24421463.3984
 108145746.89248  84269531.30346  20579434.5004                   20579440.6844
 11  7 24  2 29  0.0000000  0  9G25G10G09G12G17G05G04G27G02
 123031782.087 7                  23412171.406
 109908059.35648  85642843.70346  20914813.3204                   20914821.6994
 127888753.20046  99653628.49142  24336425.8364                   24336438.3834
 110438318.589 8                  21015706.273
 124175271.401 6                  23629757.727
 113029846.008 7                  21508854.758
 116317113.28547  90636906.06545  22134408.3914                   22134417.4574
 128401391.06946 100053106.71843  24433982.2734                   24433993.9804
 108154219.86048  84276133.63746  20581046.9144                   20581052.9144
 11  7 24  2 29 30.0000000  0  9G25G10G09G12G17G05G04G27G02
 122941296.513 7                  23394952.914
 109924828.99648  85655910.97546  20918004.4384                   20918012.9344
 127973647.33746  99719779.69642  24352581.6174                   24352592.3794
 110399701.133 8                  21008357.289
 124237779.625 7                  23641652.563
 112950141.188 8                  21493687.539
 116397484.22247  90699532.76845  22149702.2114                   22149711.0784
 128467206.55046 100104391.37243  24446506.3594                   24446519.4304
 108162954.96148  84282940.23746  20582708.8834                   20582714.6454
 11  7 24  2 30  0.0000000  0  9G25G10G09G12G17G05G04G27G02
 122851092.819 7                  23377786.914
 109942227.49748  85669468.26846  20921315.3444                   20921323.6724
 128058574.15746  99785956.39442  24368741.7274                   24368753.8714
 110361602.397 8                  21001107.781
 124300458.438 7                  23653579.656
 112870827.950 8                  21478594.422
 116477945.80547  90762230.09745  22165014.1804                   22165022.2734
 128532984.01045 100155646.43942  24459023.3834                   24459036.1994
 108171950.74048  84289949.94946  20584420.7344                   20584426.8794
 11  7 24  2 30 30.0000000  0  9G25G10G09G12G17G05G04G27G02
 122761174.005 7                  23360676.047
 109960254.73048  85683515.48346  20924746.2734                   20924753.6804
 128143530.79446  99852156.30042  24384908.7894                   24384920.8794
 110324024.769 8                  20993956.844
 124363308.225 7                  23665539.977
 112791909.125 8                  21463576.992
 116558496.62147  90824996.96445  22180341.9064                   22180351.2624
 128598721.32045 100206870.18642  24471533.2194                   24471546.2544
 108181206.44648  84297162.21046  20586181.9844                   20586188.2074
 11  7 24  2 31  0.0000000  0  9G25G10G09G12G17G05G04G27G02
 122671542.762 7                  23343619.500
 109978909.78548  85698051.91746  20928296.0394                   20928303.9224
 128228514.03746  99918376.93442  24401080.9224                   24401091.9924
 110286970.053 8                  20986905.586
 124426329.218 7                  23677533.000
 112713387.655 7                  21448634.797
 116639134.89247  90887831.98445  22195686.7274                   22195695.8284
 128664415.61045 100258060.37642  24484035.0634                   24484047.1564
 108190720.99948  84304576.17046  20587992.3364                   20587998.7344
 11  7 24  2 31 30.0000000  0  9G25G10G09G12G17G05G04G27G02
 122582201.668 7                  23326618.875
 109998192.07247  85713077.10146  20931965.2894                   20931973.4184
 128313520.68546  99984615.84042  24417257.2894                   24417268.7584
 110250439.625 8                  20979954.109
 124489521.627 6                  23689557.344
 112635265.823 8                  21433768.320
 116719858.99247  90950733.88545  22211048.1254                   22211057.0594
 128730064.17414                  24496527.359
 108200492.81948  84312190.58946  20589851.8594                   20589857.9144
 11  7 24  2 32  0.0000000  0  8G25G10G09G12G17G05G04G02
 122493153.598 7                  23309673.125
 110018101.39747  85728590.86646  20935754.0634                   20935761.9964
 128398547.54546 100050870.49743  24433437.7424                   24433448.9534
 110214435.482 8                  20973102.844
 124552886.046 6                  23701614.891
 112557546.256 8                  21418979.047
 116800667.28847  91013701.40245  22226425.4924                   22226434.0084
 108210521.26548  84320004.98446  20591760.5004                   20591766.4304
 11  7 24  2 32 30.0000000  0  8G25G10G09G12G17G05G04G02
 122404400.988 7                  23292783.719
 110038636.84048  85744592.53646  20939661.0784                   20939669.9184
 128483591.27446 100117138.26343  24449620.5944                   24449632.1484
 110178959.028 8                  20966351.844
 124616422.334 6                  23713705.781
 112480231.673 8                  21404266.469
 116881558.07747  91076733.17945  22241818.6024                   22241827.0864
 108220804.88748  84328018.21646  20593717.4614                   20593723.3204
 11  7 24  2 33  0.0000000  0  8G25G10G09G12G17G05G04G02
 122315946.251 7                  23275951.898
 110059797.09048  85761081.05746  20943687.7814                   20943696.3244
 128568648.91546 100183416.86743  24465806.5784                   24465817.5744
 110144011.430 8                  20959701.328
 124680130.506 6                  23725828.750
 112403323.976 8                  21389631.234
 116962529.33047  91139827.65245  22257227.1644                   22257235.2304
 108231342.35948  84336229.25446  20595722.5164                   20595728.7464
 11  7 24  2 33 30.0000000  0  8G25G10G09G12G17G05G04G02
 122227792.204 7                  23259176.273
 110081581.66447  85778056.07446  20947833.8834                   20947842.0044
 128653717.04346 100249703.63943  24481994.5634                   24482005.8524
 110109594.633 8                  20953152.133
 124744011.185 6                  23737985.031
 112326825.900 7                  21375074.227
 117043579.71147  91202983.80745  22272650.3914                   22272658.8164
 108242132.74548  84344637.35646  20597775.8054                   20597782.0274
 11  7 24  2 34  0.0000000  0  8G25G10G09G12G17G05G04G02
 122139941.525 7                  23242459.172
 110103989.58548  85795516.81646  20952097.4844                   20952105.7774
 128738792.24346 100315995.94743  24498184.5004                   24498195.4884
 110075710.308 8                  20946704.102
 124808064.677 6                  23750174.430
 112250739.994 8                  21360595.250
 117124707.44247  91266200.21645  22288087.9384                   22288096.8634
 108253174.72448  84353241.51946  20599877.0004                   20599883.2584
 11  7 24  2 34 30.0000000  0  8G25G10G09G12G17G05G04G02
 122052396.784 7                  23225799.625
 110127019.87347  85813462.51846  20956480.0704                   20956488.6484
 128823871.50546 100382291.39343  24514374.1024                   24514385.7424
 110042359.346 8                  20940357.391
 124872290.992 7                  23762395.508
 112175068.769 7                  21346195.680
 117205911.13047  91329475.80145  22303540.6564                   22303550.0234
 108264467.18248  84362040.86046  20602025.9844                   20602031.7504
 11  7 24  2 35  0.0000000  0  8G25G10G09G12G17G05G04G02
 121965160.815 7                  23209199.258
 110150672.04748  85831892.80246  20960980.7814                   20960989.1604
 128908951.87546 100448587.75743  24530564.4064                   24530576.0204
 110009543.844 8                  20934113.031
 124936690.258 7                  23774651.148
 112099814.950 7                  21331875.281
 117287189.08347  91392809.30145  22319007.4064                   22319016.2384
 108276008.90848  84371034.42746  20604222.1414                   20604228.2544
 11  7 24  2 35 30.0000000  0  8G25G10G09G12G17G05G04G02
 121878236.123 7                  23192658.344
 110174945.03847  85850806.84246  20965599.7734                   20965607.9924
 128994029.89346 100514882.24443  24546754.9224                   24546766.1564
 109977264.968 8                  20927970.313
 125001263.003 7                  23786938.938
 112024980.614 8                  21317634.617
 117368539.68847  91456199.40045  22334488.4614                   22334496.5824
 108287798.84148  84380221.40046  20606465.7344                   20606471.7774
 11  7 24  2 36  0.0000000  0  8G25G10G09G12G17G05G04G02
 121791625.368 7                  23176176.703
 110199837.89747  85870203.89146  20970336.8284                   20970345.5314
 129079102.74546 100581172.72143  24562943.2734                   24562955.0474
 109945524.556 8                  20921930.484
 125066009.226 7                  23799259.078
 111950568.437 8                  21303474.445
 117449961.49847  91519644.98744  22349981.9384                   22349990.5274
 108299835.95748  84389600.98446  20608756.3054                   20608762.1054
 11  7 24  2 36 30.0000000  0  8G25G10G09G12G17G05G04G02
 121705331.260 7                  23159755.508
 110225349.81548  85890083.31846  20975191.5554                   20975199.8404
 129164167.28146 100647456.75143  24579130.4144                   24579141.9454
 109914324.100 8                  20915993.367
 125130929.324 7                  23811614.078
 111876580.704 8                  21289395.250
 117531452.67647  91583144.62045  22365489.7734                   22365498.5314
 108312118.84348  84399172.07346  20611093.6094                   20611099.5274
 11  7 24  2 37  0.0000000  0  8G25G10G09G12G17G05G04G02
 121619356.386 7                  23143394.773
 110251479.72347  85910444.30946  20980163.9534                   20980172.1604
 129249220.33746 100713731.77743  24595315.8284                   24595327.3094
 109883664.774 8                  20910158.688
 125196023.339 7                  23823999.992
 111803020.047 8                  21275397.031
 117613011.68347  91646697.10345  22381009.8674                   22381017.9774
 108324646.36248  84408933.78346  20613477.6254                   20613483.3914
 11  7 24  2 37 30.0000000  0  8G25G10G09G12G17G05G04G02
 121533703.545 7                  23127095.430
 110278226.55447  85931286.01146  20985253.5314                   20985261.5824
 129334258.51746 100779995.27043  24611498.0784                   24611509.5434
 109853547.621 8                  20904427.703
 125261291.643 7                  23836420.070
 111729888.887 8                  21261480.383
 117694637.22347  91710301.44245  22396542.3054                   22396551.1094
 108337417.55548  84418885.37146  20615908.0474                   20615913.8054
 11  7 24  2 38  0.0000000  0  8G25G10G09G12G17G05G04G02
 121448375.427 7                  23110858.219
 110305589.57047  85952607.84846  20990460.8054                   20990468.6294
 129419279.04046 100846244.96243  24627676.5004                   24627688.4964
 109823974.718 8                  20898800.289
 125326734.469 7                  23848874.305
 111657189.825 8                  21247646.273
 117776327.78147  91773956.39445  22412087.4774                   22412096.2194
 108350431.53948  84429026.14846  20618384.2424                   20618390.3714
 11  7 24  2 38 30.0000000  0  8G25G10G09G12G17G05G04G02
 121363374.302 7                  23094682.781
 110333567.07648  85974408.52046  20995784.4144                   20995792.3524
 129504278.79446 100912478.47743  24643851.9064                   24643863.4964
 109794947.025 8                  20893276.563
 125392351.815 7                  23861360.586
 111584924.563 8                  21233894.625
 117858081.50047  91837660.59845  22427644.5634                   22427653.3674
 108363686.48148  84439354.67446  20620906.4924                   20620912.9924
 11  7 24  2 39  0.0000000  0  8G25G10G09G12G17G05G04G02
 121278703.094 7                  23078570.047
 110362158.52447  85996687.58246  21001225.3834                   21001233.6134
 129589254.60446 100978693.35243  24660021.3284                   24660034.0864
 109766466.247 8                  20887856.797
 125458144.033 7                  23873880.531
 111513095.824 8                  21220226.031
 117939897.08147  91901413.00145  22443213.5004                   22443222.5514
 108377181.62848  84449870.37946  20623474.7504                   20623480.4884
 11  7 24  2 39 30.0000000  0  8G25G10G09G12G17G05G04G02
 121194364.636 7                  23062521.250
 110391363.14948  86019444.44846  21006782.8594                   21006791.0824
 129674203.44146 101044887.18743  24676186.9144                   24676199.3484
 109738533.820 8                  20882541.547
 125524111.531 6                  23886432.898
 111441706.238 8                  21206641.164
 118021773.03947  91965212.42944  22458794.4224                   22458803.7234
 108390916.13548  84460572.59746  20626088.5084                   20626094.6254
 11  7 24  2 40  0.0000000  0  8G25G10G09G12G17G05G04G02
 121110361.184 7                  23046535.617
 110421179.31948  86042677.83646  21012456.4844                   21012465.0784
 129759121.88555 101111057.36653  24692346.2974                   24692359.0864
 109711150.597 8                  20877330.375
 125590254.107 7                  23899020.070
 111370757.630 8                  21193139.914
 118103708.01947  92029057.92144  22474385.7274                   22474395.0474
 108404888.36048  84471460.05246  20628746.7664                   20628753.2194
 11  7 24  2 40 30.0000000  0  8G25G10G09G12G17G05G04G02
 121026695.590 7                  23030614.680
 110451605.93847  86066386.89846  21018247.0004                   21018254.6334
                                  24708500.0944                   24708511.4804
 109684318.230 8                  20872224.391
 125656572.233 6                  23911639.234
 111300252.993 8                  21179723.648
 118185700.32347  92092948.04844  22489988.1024                   22489997.0594
 108419097.45748  84482532.10946  20631450.9694                   20631457.2624
 11  7 24  2 41  0.0000000  0  8G25G10G09G12G17G05G04G02
 120943370.487 7                  23014758.516
 110482641.88647  86090570.75146  21024152.4064                   21024160.8484
 129928856.40155 101243317.84852  24724646.2194                   24724658.2504
 109658037.918 8                  20867223.328
 125723065.773 6                  23924292.914
 111230194.241 8                  21166391.727
 118267748.48747  92156881.67144  22505601.9694                   22505610.3674
 108433542.20748  84493787.76646  20634199.7734                   20634205.4694
 11  7 24  2 41 30.0000000  0  8G25G10G09G12G17G05G04G02
 120860388.680 7                  22998967.563
 110514286.07347  86115228.56346  21030174.4064                   21030182.3134
 130013666.55556 101309403.66053  24740784.2814                   24740796.8444
 109632311.578 8                  20862327.633
 125789735.267 6                  23936979.070
 111160584.160 8                  21153145.234
 118349851.40447  92220857.96045  22521225.5314                   22521234.6684
 108448221.79748  84505226.42346  20636992.9614                   20636999.3094
 11  7 24  2 42  0.0000000  0  8G25G10G09G12G17G05G04G02
 120777752.265 7                  22983242.461
 110546536.75047  86140358.97546  21036311.3594                   21036319.4304
 130098434.02146 101375456.17043  24756916.2814                   24756927.1644
 109607139.104 7                  20857537.688
 125856580.516 6                  23949699.352
 111091424.206 8                  21139984.438
 118432007.00147  92284875.32645  22536859.1484                   22536868.3554
 108463134.23848  84516846.52746  20639830.7344                   20639837.1454
 11  7 24  2 42 30.0000000  0  8G25G10G09G12G17G05G04G02
 120695464.100 8                  22967583.148
 110579393.09047  86165961.33246  21042563.7504                   21042572.0124
 130183156.28646 101441473.50643  24773037.9304                   24773049.5904
 109582522.529 8                  20852853.188
 125923601.865 6                  23962453.117
 111022717.139 8                  21126909.328
 118514214.19947  92348932.88744  22552502.5004                   22552511.4104
 108478279.04448  84528647.69046  20642712.8914                   20642718.7274
 11  7 24  2 43  0.0000000  0  8G25G10G09G12G17G05G04G02
 120613526.585 7                  22951991.031
 110612853.49148  86192034.37846  21048930.8594                   21048939.4924
 130267830.00746 101507453.02443  24789150.8364                   24789162.9804
 109558462.342 8                  20848274.727
 125990799.220 6                  23975241.102
 110954464.827 8                  21113921.914
 118596471.28047  92413029.29444  22568155.1334                   22568164.1374
 108493654.56448  84540628.63446  20645638.6024                   20645644.5044
 11  7 24  2 43 30.0000000  0  8G25G10G09G12G17G05G04G02
 120531942.511 7                  22936466.063
 110646916.81447  86218577.23446  21055413.1484                   21055421.1954
 130352452.32546 101573392.45743  24805253.7274                   24805265.7734
 109534960.411 8                  20843802.500
 126058172.795 6                  23988062.180
 110886669.807 8                  21101020.875
 118678777.11847  92477163.70944  22583817.5084                   22583826.4774
 108509260.12148  84552788.83246  20648608.5394                   20648614.0744
 11  7 24  2 44  0.0000000  0  8G25G10G09G12G17G05G04G02
 120450714.619 7                  22921008.766
 110681581.93748  86245589.02146  21062009.5634                   21062017.7854
 130437020.40046 101639289.59842  24821346.9454                   24821358.2194
 109512017.737 8                  20839436.539
 126125722.905 6                  24000916.656
 110819334.715 8                  21088207.469
 118761130.37347  92541335.08844  22599489.0084                   22599497.9304
 108525094.72548  84565127.50846  20651621.4144                   20651627.2464
 11  7 24  2 44 30.0000000  0  8G25G10G09G12G17G05G04G02
 120369845.379 7                  22905619.844
 110716847.32747  86273068.55846  21068720.1414                   21068728.1414
 130521530.79246 101705141.80442  24837429.6094                   24837440.4064
 109489635.448 8                  20835177.516
 126193449.595 7                  24013804.078
 110752461.317 8                  21075481.898
 118843529.51847  92605542.23144  22615169.0634                   22615177.7734
 108541156.88148  84577643.50446  20654677.9064                   20654683.8594
 11  7 24  2 45  0.0000000  0  8G25G10G09G12G17G05G04G02
 120289337.590 7                  22890299.398
 110752711.72247  86301014.85946  21075545.3674                   21075553.2464
 130605981.28746 101770947.31643  24853498.7114                   24853511.1604
 109467814.965 8                  20831025.117
 126261353.517 7                  24026726.609
 110686051.921 8                  21062844.516
 118925973.41547  92669784.22644  22630857.7274                   22630866.6604
 108557445.81348  84590336.20446  20657777.5554                   20657783.3244
 11  7 24  2 45 30.0000000  0  7G25G10G12G17G05G04G02
 120209194.545 7                  22875048.977
 110789174.62548  86329427.51446  21082484.0784                   21082492.3094
 109446557.832 8                  20826980.117
 126329435.047 6                  24039681.492
 110620109.674 8                  21050296.391
 119008461.19447  92734060.41244  22646554.4384                   22646563.4494
 108573961.06048  84603205.24746  20660920.4224                   20660926.1134
 11  7 24  2 46  0.0000000  0  7G25G10G12G17G05G04G02
 120129417.803 7                  22859867.938
 110826233.55547  86358304.61045  21089535.6334                   21089544.0084
 109425864.523 8                  20823042.250
 126397693.220 6                  24052670.570
 110554635.535 8                  21037836.797
 119090990.76547  92798369.21144  22662259.4304                   22662268.1954
 108590700.45248  84616248.94646  20664105.8914                   20664111.3874
 11  7 24  2 46 30.0000000  0  7G25G10G12G17G05G04G02
 120050009.545 7                  22844756.984
 110863886.32948  86387644.43946  21096701.2274                   21096709.1254
 109405735.236 8                  20819211.633
 126466128.151 6                  24065693.500
 110489631.592 8                  21025467.063
 119173560.17447  92862709.03244  22677971.7424                   22677981.1254
 108607662.54848  84629466.18646  20667333.6884                   20667339.5664
 11  7 24  2 47  0.0000000  0  7G25G10G12G17G05G04G02
 119970972.607 7                  22829716.234
 110902131.99647  86417446.27646  21103978.9774                   21103986.6804
 109386171.415 8                  20815489.063
 126534739.876 6                  24078749.297
 110425099.969 8                  21013186.898
 119256168.46347  92927079.14044  22693691.6884                   22693700.8444
 108624846.39248  84642856.20946  20670603.6254                   20670609.0434
 11  7 24  2 47 30.0000000  0  7G25G10G12G17G05G04G02
 119892309.808 7                  22814747.172
 110940969.18548  86447709.04246  21111369.2974                   21111377.1484
 109367174.367 8                  20811874.203
 126603528.800 6                  24091840.211
 110361043.097 8                  21000997.281
 119338814.43747  92991478.60744  22709418.8524                   22709427.7154
 108642251.45848  84656418.62546  20673915.5084                   20673921.4024
 11  7 24  2 48  0.0000000  0  7G25G10G12G17G05G04G02
 119814023.270 7                  22799850.211
 110980396.00548  86478431.26146  21118872.0314                   21118880.2544
 109348744.501 8                  20808366.742
 126672494.925 6                  24104963.680
 110297462.562 8                  20988898.492
 119421496.38147  93055906.12844  22725152.5164                   22725161.2934
 108659875.95048  84670152.01446  20677269.6644                   20677275.1524
 11  7 24  2 48 30.0000000  0  7G25G10G12G17G05G04G02
 119736115.684 7                  22785024.766
 111020410.98347  86509611.77346  21126486.5554                   21126494.7274
 109330883.014 8                  20804967.789
 126741638.059 6                  24118121.344
 110234360.605 8                  20976890.445
 119504213.17147  93120360.77845  22740893.6174                   22740902.3954
 108677718.73448  84684055.50046  20680664.8134                   20680670.6254
 11  7 24  2 49  0.0000000  0  7G25G10G12G17G05G04G02
 119658589.573 7                  22770272.125
 111061012.53248  86541249.35646  21134212.6024                   21134220.7234
 109313590.677 8                  20801677.055
 126810958.439 6                  24131312.344
 110171739.436 8                  20964973.961
 119586963.39547  93184841.51745  22756639.6954                   22756649.5234
 108695778.87448  84698128.35546  20684101.6954                   20684107.2814
 11  7 24  2 49 30.0000000  0  7G25G10G12G17G05G04G02
 119581447.369 7                  22755592.086
 111102198.98647  86573342.69946  21142050.0234                   21142058.5554
 109296868.197 8                  20798495.125
 126880456.043 6                  24144537.133
 110109600.876 8                  20953149.344
 119669745.68147  93249347.20944  22772392.8054                   22772401.9654
 108714055.03548  84712369.52746  20687579.4774                   20687585.6374
 11  7 24  2 50  0.0000000  0  7G25G10G12G17G05G04G02
 119504691.931 7                  22740986.555
 111143969.24347  86605890.97646  21149998.9304                   21150006.8954
 109280717.207 8                  20795421.563
 126950131.225 6                  24157795.180
 110047947.342 8                  20941416.992
 119752559.20147  93313877.23644  22788151.1884                   22788160.2854
 108732546.65248  84726778.59146  20691098.1724                   20691104.2194
 11  7 24  2 50 30.0000000  0  7G25G10G12G17G05G04G02
 119428325.616 7                  22726454.188
 111186321.01948  86638892.36346  21158058.1804                   21158066.5164
 109265137.987 8                  20792456.859
 127019983.599 6                  24171088.500
 109986780.533 8                  20929777.188
 119835402.30747  93378430.29344  22803916.1724                   22803925.1054
 108751252.27948  84741354.41746  20694658.0864                   20694663.6374
 11  7 24  2 51  0.0000000  0  7G25G10G12G17G05G04G02
 119352350.828 7                  22711996.523
 111229252.87947  86672345.77946  21166227.6644                   21166235.9804
 109250131.558 8                  20789601.344
 127090013.463 6                  24184414.602
 109926102.503 8                  20918230.617
 119918273.77547  93443005.47944  22819686.1724                   22819695.0904
 108770170.83348  84756096.16346  20698257.9454                   20698263.5164
 11  7 24  2 51 30.0000000  0  7G25G10G12G17G05G04G02
 119276770.653 7                  22697614.156
 111272764.03447  86706250.57645  21174507.3444                   21174516.2274
 109235699.048 8                  20786854.820
 127160221.016 6                  24197775.258
 109865915.583 8                  20906777.422
 120001172.96647  93507602.27244  22835461.0704                   22835470.3634
 108789301.75748  84771003.39846  20701898.3054                   20701904.2234
 11  7 24  2 52  0.0000000  0  7G25G10G12G17G05G04G02
 119201586.969 7                  22683307.227
 111316851.49047  86740604.45346  21182897.4774                   21182905.5904
 109221840.730 8                  20784217.867
 127230605.991 6                  24211167.867
 109806221.407 8                  20895417.867
 120084097.92947  93572219.12744  22851242.2894                   22851250.3484
 108808643.54148  84786074.93046  20705578.9534                   20705584.5314
 11  7 24  2 52 30.0000000  0  7G25G10G12G17G05G04G02
 119126802.216 7                  22669075.930
 111361513.77248  86775406.22846  21191396.1564                   21191404.8054
 109208557.567 8                  20781689.984
 127301168.246 7                  24224596.617
 109747021.750 8                  20884152.664
 120167047.38947  93636855.09344  22867026.0554                   22867035.1684
 108828194.47648  84801309.43546  20709299.2114                   20709305.1844
 11  7 24  2 53  0.0000000  0  7G25G10G12G17G05G04G02
 119052418.862 7                  22654921.398
 111406749.10148  86810654.54245  21200003.9694                   21200012.6764
 109195850.155 8                  20779271.813
 127371907.938 6                  24238057.273
 109688318.563 8                  20872981.633
 120250020.05747  93701509.11244  22882814.8914                   22882824.1334
 108847953.62648  84816706.18946  20713059.1484                   20713064.9184
 11  7 24  2 53 30.0000000  0  7G25G10G12G17G05G04G02
 118978439.742 7                  22640843.586
 111452556.12348  86846348.31046  21208720.8054                   21208729.5474
 109183719.167 8                  20776963.516
 127442825.421 7                  24251552.586
 109630114.016 8                  20861905.586
 120333015.20647  93766180.66444  22898608.0784                   22898618.0204
 108867920.76848  84832265.02046  20716858.7504                   20716864.4144
 11  7 24  2 54  0.0000000  0  8G25G10G29G12G17G05G04G02
 118904867.034 7                  22626843.000
 111498932.93447  86882486.09645  21217545.9304                   21217554.2544
 129526318.46016                  24648048.695
 109172165.383 8                  20774765.172
 127513920.384 6                  24265081.477
 109572409.648 8                  20850924.828
 120416031.47547  93830868.67444  22914405.9774                   22914415.1174
 108888094.11348  84847984.53346  20720698.0004                   20720703.4304
 11  7 24  2 54 30.0000000  0  8G25G10G29G12G17G05G04G02
 118831703.228 7                  22612919.898
 111545877.40547  86919066.24145  21226479.5634                   21226487.2034
 129446122.091 6                  24632787.758
 109161189.541 8                  20772676.156
 127585192.604 7                  24278644.141
 109515207.415 8                  20840039.844
 120499067.65847  93895572.18044  22930207.7504                   22930216.3204
 108908472.74548  84863864.00546  20724575.6724                   20724581.4654
 11  7 24  2 55  0.0000000  0  8G25G10G29G12G17G05G04G02
 118758950.592 7                  22599076.000
 111593387.57947  86956087.19145  21235520.0164                   21235528.0904
 129365858.330 6                  24617513.766
 109150792.061 8                  20770697.711
 127656642.335 6                  24292239.641
 109458509.261 8                  20829250.484
 120582122.14147  93960289.95644  22946012.4304                   22946020.6374
 108929055.29548  84879902.38346  20728492.3134                   20728498.2894
 11  7 24  2 55 30.0000000  0  8G25G10G29G12G17G05G04G02
 118686611.664 7                  22585310.195
 111641461.71647  86993547.55846  21244668.2974                   21244676.9104
 129285527.741 6                  24602226.656
 109140973.468 8                  20768829.305
 127728269.658 6                  24305870.047
 109402316.696 8                  20818557.391
 120665193.84547  94025021.17844  22961819.8674                   22961828.6724
 108949840.82648  84896098.91846  20732447.6334                   20732453.1884
 11  7 24  2 56  0.0000000  0  8G25G10G29G12G17G05G04G02
 118614689.088 7                  22571623.516
 111690098.12847  87031446.07345  21253923.6724                   21253932.0274
 129205131.089 6                  24586927.250
 109131734.593 8                  20767071.125
 127800074.408 6                  24319534.703
 109346631.899 8                  20807960.781
 120748282.01647  94089765.21844  22977631.3284                   22977639.9614
 108970828.67548  84912453.11046  20736441.4384                   20736447.3484
 11  7 24  2 56 30.0000000  0  8G25G10G29G12G17G05G04G02
 118543185.167 7                  22558017.016
 111739294.79947  87069781.14745  21263285.0004                   21263293.5084
 129124668.658 7                  24571616.203
 109123076.147 8                  20765423.352
 127872056.440 6                  24333232.047
 109291456.625 8                  20797461.172
 120831385.41147  94154521.12844  22993445.5314                   22993453.8754
 108992017.33948  84928963.77446  20740473.7034                   20740479.3594
 11  7 24  2 57  0.0000000  0  8G25G10G29G12G17G05G04G02
 118472102.330 7                  22544490.672
 111789049.82247  87108551.29345  21272753.4384                   21272761.3404
 129044141.175 6                  24556292.766
 109114998.419 8                  20763886.453
 127944215.979 6                  24346963.813
 109236792.778 8                  20787059.188
 120914502.88747  94219287.99844  23009262.3284                   23009270.1994
 109013406.33148  84945630.53546  20744544.1564                   20744549.8834
 11  7 24  2 57 30.0000000  0  8G25G10G29G12G17G05G04G02
 118401442.931 7                  22531044.516
 111839361.34947  87147755.11445  21282327.2664                   21282335.1524
 128963549.065 6                  24540955.828
 109107501.820 8                  20762459.773
 128016552.831 5                  24360728.016
 109182641.814 8                  20776754.023
 120997633.21747  94284064.91144  23025080.9614                   23025089.4774
 109034994.20148  84962452.26346  20748651.7424                   20748657.8874
 11  7 24  2 58  0.0000000  0  8G25G10G29G12G17G05G04G02
 118331209.347 7                  22517679.734
 111890227.51947  87187391.11245  21292006.7504                   21292014.6294
 128882893.116 6                  24525607.438
 109100587.060 8                  20761143.633
 128089067.014 6                  24374527.781
 109129005.485 8                  20766547.813
 121080775.33947  94348850.95644  23040902.6644                   23040912.1644
 109056779.87648  84979428.12746  20752797.5784                   20752803.6024
 11  7 24  2 58 30.0000000  0  8G25G10G29G12G17G05G04G02
 118261403.861 7                  22504395.797
 111941646.22547  87227457.65345  21301791.6564                   21301799.7424
 128802173.521 6                  24510247.320
 109094254.488 8                  20759938.703
 128161758.146 6                  24388360.383
 109075885.370 8                  20756439.328
 121163927.94246  94413645.18244  23056725.6804                   23056734.9414
 109078761.97148  84996557.03646  20756980.2734                   20756986.3634
 11  7 24  2 59  0.0000000  0  8G25G10G29G12G17G05G04G02
 118192028.551 7                  22491193.969
 111993614.99048  87267952.81045  21311680.8524                   21311689.2544
 128721390.850 6                  24494874.883
 109088504.082 8                  20758844.617
 128234625.974 6                  24402227.836
 109023282.943 8                  20746429.039
 121247089.85746  94478446.66144  23072550.9694                   23072559.4264
 109100939.02548  85013837.87146  20761200.6724                   20761206.5274
 11  7 24  2 59 30.0000000  0  8G25G10G29G12G17G05G04G02
 118123086.033 7                  22478074.469
 112046131.78747  87308874.99746  21321674.6414                   21321683.0164
 128640546.150 6                  24479490.648
 109083336.732 7                  20757861.008
 128307670.594 6                  24416127.328
 108971200.476 8                  20736518.227
 121330260.03746  94543254.59844  23088377.5234                   23088386.5864
 109123311.03747  85031270.60946  20765457.8204                   20765463.3404
 11  7 24  3  0  0.0000000  0  8G25G10G29G12G17G05G04G02
 118054578.824 7                  22465038.023
 112099194.97847  87350222.94145  21331772.1334                   21331780.4884
 128559639.292 6                  24464094.180
 109078752.918 8                  20756988.930
 128380892.291 7                  24430061.805
 108919639.392 8                  20726706.609
 121413437.75046  94608068.38044  23104206.1094                   23104215.4774
 109145876.79848  85048854.33346  20769751.6954                   20769757.7074
 11  7 24  3  0 30.0000000  0  8G25G10G29G12G17G05G04G02
 117986509.076 7                  22452084.828
 112152802.44847  87391995.00845  21341973.2424                   21341981.4064
 128478671.363 6                  24448686.469
 109074752.664 7                  20756227.711
 128454290.843 6                  24444028.164
 108868601.026 7                  20716994.188
 121496621.66646  94672887.00844  23120035.1954                   23120044.7664
 109168635.06147  85066588.05346  20774082.5784                   20774088.7664
 11  7 24  3  1  0.0000000  0  8G25G10G29G12G17G05G04G02
 117918879.264 7                  22439215.297
 112206952.17847  87434189.61845  21352277.6094                   21352285.4304
 128397643.006 6                  24433266.820
 109071336.819 8                  20755577.656
 128527865.875 7                  24458029.297
 108818087.129 8                  20707381.672
 121579810.69547  94737709.62244  23135865.6884                   23135874.7584
 109191584.73048  85084470.90346  20778449.7734                   20778455.6994
 11  7 24  3  1 30.0000000  0  8G25G10G29G12G17G05G04G02
 117851691.734 7                  22426429.695
 112261642.33347  87476805.34245  21362685.3204                   21362692.7034
 128316554.466 6                  24417835.703
 109068505.461 8                  20755039.023
 128601617.562 6                  24472063.383
 108768099.473 8                  20697869.625
 121663004.00247  94802535.54044  23151697.2974                   23151705.8094
 109214724.98948  85102502.24946  20782853.0704                   20782858.7504
 11  7 24  3  2  0.0000000  0  8G25G10G29G12G17G05G04G02
 117784948.358 7                  22413729.008
 112316870.10547  87519839.99645  21373194.4454                   21373202.4774
 128235406.694 6                  24402394.094
 109066258.650 8                  20754611.289
 128675545.558 6                  24486131.063
 108718639.190 8                  20688457.320
 121746200.18947  94867363.75444  23167528.6174                   23167537.8244
 109238054.29048  85120680.93846  20787292.9534                   20787298.6294
 11  7 24  3  2 30.0000000  0  8G25G10G29G12G17G05G04G02
 117718651.561 7                  22401112.414
 112372633.62047  87563292.10545  21383805.8054                   21383814.1524
 128154200.080 6                  24386941.523
 109064596.676 8                  20754294.922
 128749649.680 6                  24500233.625
 108669708.085 8                  20679146.000
 121829398.42047  94932193.53944  23183360.8134                   23183369.8134
 109261571.85448  85139006.31246  20791767.8914                   20791773.9574
 11  7 24  3  3  0.0000000  0  8G25G10G29G12G17G05G04G02
 117652803.564 7                  22388582.328
 112428930.23347  87607159.60145  21394518.5474                   21394527.1724
 128072935.421 6                  24371476.203
 109063519.365 8                  20754090.000
 128823929.706 6                  24514368.344
 108621307.637 8                  20669935.578
 121912597.59947  94997024.05744  23199193.8284                   23199202.2504
 109285276.47648  85157477.44746  20796278.6484                   20796284.0784
 11  7 24  3  3 30.0000000  0  7G25G10G29G12G05G04G02
 117587407.271 7                  22376138.211
 112485758.86447  87651441.65945  21405332.5864                   21405340.6724
 127991613.830 6                  24356001.703
 109063027.763 7                  20753996.406
 108573439.840 8                  20660826.805
 121995797.05747  95061854.81744  23215025.8674                   23215034.8404
 109309168.11648  85176094.34046  20800825.5704                   20800831.3794
 11  7 24  3  4  0.0000000  0  7G25G10G29G12G05G04G02
 117522464.525 7                  22363780.188
 112543116.64047  87696136.04145  21416247.5084                   21416256.2114
 127910235.446 6                  24340516.594
 109063121.759 8                  20754014.133
 108526105.619 8                  20651819.141
 122078995.65147  95126684.89744  23230857.8204                   23230866.4694
 109333245.08348  85194855.63046  20805406.8284                   20805413.0124
 11  7 24  3  4 30.0000000  0  7G25G10G29G12G05G04G02
 117457977.091 7                  22351508.328
 112601001.27547  87741240.95745  21427262.7194                   21427270.5944
 127828800.765 6                  24325018.969
 109063801.316 7                  20754143.766
 108479306.067 8                  20642913.742
 122162191.93847  95191513.19144  23246689.6414                   23246698.0664
 109357505.79848  85213760.08946  20810023.3914                   20810028.8594
 11  7 24  3  5  0.0000000  0  7G25G10G29G12G05G04G02
 117393947.737 7                  22339323.844
 112659410.56047  87786754.70445  21438377.4224                   21438385.6094
 127747310.707 6                  24309512.492
 109065067.112 8                  20754384.445
 108433043.130 8                  20634110.109
 122245385.35347  95256339.25844  23262520.4534                   23262528.8714
 109381949.96248  85232807.50546  20814675.1724                   20814680.6764
 11  7 24  3  5 30.0000000  0  7G25G10G29G12G05G04G02
 117330377.857 7                  22327227.078
 112718341.87147  87832675.22545  21449591.5234                   21449599.7274
 127665765.346 6                  24293995.336
 109066917.561 8                  20754736.742
 108387317.594 8                  20625408.789
 122328574.38347  95321161.88544  23278351.0394                   23278359.7344
 109406575.69248  85251996.40246  20819361.4534                   20819367.4184
 11  7 24  3  6  0.0000000  0  7G25G10G29G12G05G04G02
 117267270.302 7                  22315218.102
 112777793.62047  87879001.28145  21460905.2194                   21460913.1604
 127584166.006 6                  24278466.836
 109069353.919 8                  20755200.328
 108342131.207 8                  20616810.117
 122411758.44347  95385980.64444  23294180.7034                   23294189.3094
 109431382.73948  85271326.57846  20824082.0164                   20824087.6954
 11  7 24  3  6 30.0000000  0  7G25G10G29G12G05G04G02
 117204626.725 7                  22303297.281
 112837762.81447  87925730.52945  21472316.6884                   21472325.1844
 127502513.077 6                  24262928.688
 109072375.933 8                  20755775.242
 108297485.215 8                  20608314.391
 122494936.08446  95450794.41244  23310008.2194                   23310017.3984
 109456369.42048  85290796.71946  20828836.7734                   20828842.6684
 11  7 24  3  7  0.0000000  0  7G25G10G29G12G05G04G02
 117142449.894 7                  22291465.305
 112898248.02347  87972861.86245  21483826.6024                   21483834.7504
 127420807.638 7                  24247380.578
 109075984.215 8                  20756462.211
 108253381.233 8                  20599921.461
 122578106.92747  95515602.85543  23325835.6954                   23325843.8054
 109481535.45548  85310406.62546  20833625.5554                   20833631.6764
 11  7 24  3  7 30.0000000  0  7G25G10G29G12G05G04G02
 117080741.734 7                  22279722.594
 112959246.46847  88020393.11645  21495433.7664                   21495442.2274
 127339050.264 7                  24231822.734
 109080178.193 8                  20757260.438
 108209820.208 8                  20591632.336
 122661270.19346  95580405.42143  23341660.4224                   23341669.1954
 109506879.79948  85330155.47346  20838448.3364                   20838454.1644
 11  7 24  3  8  0.0000000  0  7G25G10G29G12G05G04G02
 117019504.680 7                  22268069.625
 113020756.23247  88068322.80745  21507139.2114                   21507147.0824
 127257241.895 6                  24216254.711
 109084958.299 8                  20758169.398
 108166803.719 8                  20583446.320
 122744424.75046  95645201.22243  23357484.5634                   23357493.8914
 109532401.51548  85350042.53246  20843305.0084                   20843310.8014
 11  7 24  3  8 30.0000000  0  7G25G10G29G12G05G04G02
 116958740.426 7                  22256506.469
 113082774.43047  88116648.69345  21518941.0234                   21518948.5744
 127175383.026 6                  24200677.844
 109090324.383 8                  20759190.813
 108124333.102 8                  20575364.469
 122827569.49347  95709989.40343  23373307.1414                   23373315.9064
 109558099.35348  85370066.82046  20848195.2814                   20848201.1724
 11  7 24  3  9  0.0000000  0  7G25G10G29G12G05G04G02
 116898450.948 8                  22245033.680
 113145298.62447  88165368.86445  21530839.0864                   21530846.3834
 127093474.307 7                  24185090.875
 109096275.751 8                  20760323.555
 108082409.341 8                  20567386.320
 122910703.36047  95774769.02344  23389126.7194                   23389134.6724
 109583972.14448  85390227.44446  20853118.6094                   20853124.1254
 11  7 24  3  9 30.0000000  0  7G25G10G29G12G05G04G02
 116838638.217 7                  22233651.992
 113208326.61147  88214481.59645  21542832.8834                   21542840.8094
 127011516.350 7                  24169494.477
 109102812.393 8                  20761567.320
 108041033.401 8                  20559512.859
 122993825.31246  95839539.35044  23404943.9304                   23404951.9844
 109610018.66248  85410523.43846  20858075.2974                   20858081.4024
 11  7 24  3 10  0.0000000  0  7G25G10G29G12G05G04G02
 116779305.001 7                  22222360.578
 113271856.29947  88263985.25845  21554921.9144                   21554930.3364
 126929510.520 7                  24153889.023
 109109934.763 8                  20762922.688
 108000207.083 8                  20551743.797
 123076935.30147  95904300.41244  23420759.0004                   23420768.2894
 109636239.03148  85430954.88846  20863064.7664                   20863070.5164
 11  7 24  3 10 30.0000000  0  7G25G10G29G12G05G04G02
 116720452.945 8                  22211161.727
 113335885.20147  88313877.90845  21567106.2344                   21567114.6604
 126847457.205 7                  24138275.070
 109117642.062 8                  20764388.969
 107959931.206 8                  20544079.570
 123160031.97647  95969051.10844  23436572.5234                   23436581.3244
 109662631.61948  85451520.55646  20868087.2034                   20868093.2194
 11  7 24  3 11  0.0000000  0  7G25G10G29G12G05G04G02
 116662084.395 7                  22200055.125
 113400410.92247  88364157.69445  21579385.1254                   21579393.4614
 126765357.682 7                  24122651.813
 109125935.143 8                  20765967.375
 107920207.204 8                  20536520.039
 123243114.55446  96033790.78043  23452382.0944                   23452390.6454
 109689195.91048  85472220.00446  20873142.2274                   20873148.0594
 11  7 24  3 11 30.0000000  0  7G25G10G29G12G05G04G02
 116604201.369 8                  22189039.969
 113465430.88347  88414822.59745  21591757.9924                   21591765.9774
 126683212.410 6                  24107020.477
 109134812.902 8                  20767656.695
 107881036.118 8                  20529066.023
 123326182.14746  96098518.77544  23468189.5944                   23468197.8444
 109715930.70848  85493052.32946  20878229.2114                   20878235.2544
 11  7 24  3 12  0.0000000  0  7G25G10G29G12G05G04G02
 116546805.758 7                  22178117.992
 113530942.69247  88465870.77245  21604224.3444                   21604231.9104
 126601021.854 6                  24091379.797
 109144275.507 8                  20769457.445
 107842419.094 8                  20521717.648
 123409234.19647  96163234.67644  23483994.0004                   23484001.7624
 109742835.16848  85514016.86446  20883349.2114                   20883355.1644
 11  7 24  3 12 30.0000000  0  7G25G10G29G12G05G04G02
 116489899.154 7                  22167289.039
 113596943.25447  88517299.79445  21616783.7424                   21616791.7304
 126518787.048 6                  24075731.031
 109154322.114 8                  20771369.125
 107804356.627 8                  20514474.289
 123492269.32047  96227937.41544  23499794.6414                   23499803.0554
 109769907.73348  85535112.38746  20888500.8204                   20888506.3364
 11  7 24  3 13  0.0000000  0  7G25G10G29G12G05G04G02
 116433484.089 7                  22156553.547
 113663430.93047  88569108.38145  21629436.3914                   21629443.9804
 126436509.379 6                  24060073.945
 109164953.198 8                  20773392.195
 107766850.446 8                  20507337.227
 123575287.09247  96292626.61944  23515592.3984                   23515601.2464
 109797148.41448  85556338.90946  20893684.7504                   20893690.0164
 11  7 24  3 13 30.0000000  0  7G25G10G29G12G05G04G02
 116377561.758 7                  22145911.797
 113730402.35747  88621293.92045  21642179.9924                   21642188.6994
 126354188.775 6                  24044408.000
 109176167.344 8                  20775526.078
 107729900.766 8                  20500305.984
 123658286.05547  96357301.17344  23531386.2734                   23531395.0824
 109824555.03148  85577694.71646  20898900.1484                   20898905.8484
 11  7 24  3 14  0.0000000  0  7G25G10G29G12G05G04G02
 116322134.627 8                  22135364.539
 113797855.95847  88673855.16645  21655016.1804                   21655024.4144
 126271826.433 6                  24028735.289
 109187964.819 8                  20777770.961
 107693509.313 8                  20493380.961
 123741265.59646  96421960.55943  23547176.5394                   23547185.3984
 109852127.15448  85599179.49646  20904147.2034                   20904152.0984
 11  7 24  3 14 30.0000000  0  7G25G10G29G12G05G04G02
 116267204.482 8                  22124911.672
 113865788.62947  88726789.71445  21667943.7344                   21667951.7234
 126189423.113 6                  24013054.328
 109200345.330 8                  20780127.203
 107657676.586 8                  20486561.922
 123824225.19546  96486604.41843  23562963.3284                   23562972.4144
 109879863.85148  85620792.51446  20909425.0634                   20909430.3054
 11  7 24  3 15  0.0000000  0  7G25G10G29G12G05G04G02
 116212773.527 8                  22114553.688
 113934198.33247  88780095.99645  21680961.7664                   21680969.0824
 126106979.987 6                  23997366.406
 109213308.374 8                  20782593.867
 107622403.982 8                  20479849.844
 123907164.00446  96551232.08343  23578746.6414                   23578755.3284
 109907764.62948  85642533.39646  20914734.0394                   20914739.8754
 11  7 24  3 15 30.0000000  0  7G25G10G29G12G05G04G02
 116158843.882 8                  22104291.375
 114003082.63347  88833772.08645  21694069.2274                   21694077.2734
 126024498.048 6                  23981669.727
 109226853.952 8                  20785171.406
 107587692.419 8                  20473244.672
 123990081.54846  96615843.20143  23594525.0164                   23594532.9224
 109935828.83148  85664401.61346  20920074.7194                   20920080.4064
 11  7 24  3 16  0.0000000  0  7G25G10G29G12G05G04G02
 116105416.659 8                  22094124.359
 114072438.07347  88887815.30145  21707266.9844                   21707275.2504
 125941977.641 7                  23965967.289
 109240980.873 8                  20787859.352
 107553542.169 8                  20466745.938
 124072976.48646  96680436.65743  23610299.5784                   23610306.7154
 109964054.54248  85686395.69746  20925445.5554                   20925451.6644
 11  7 24  3 16 30.0000000  0  7G25G10G29G12G05G04G02
 116052494.396 8                  22084053.281
 114142262.90947  88942224.27945  21720554.7194                   21720562.4304
 125859420.100 7                  23950256.633
 109255689.169 8                  20790658.547
 107519954.999 8                  20460354.305
 124155848.49447  96745012.27443  23626069.4614                   23626077.1684
 109992441.82148  85708515.67746  20930847.5234                   20930853.5474
 11  7 24  3 17  0.0000000  0  7G25G10G29G12G05G04G02
 116000078.256 8                  22074078.961
 114212554.06747  88996996.62045  21733930.7504                   21733938.4654
 125776825.800 7                  23934539.039
 109270978.214 8                  20793568.016
 107486931.084 8                  20454070.289
 124238696.25646  96809569.03043  23641834.2974                   23641843.7974
 110020988.91248  85730760.18246  20936279.6174                   20936286.0164
 11  7 24  3 17 30.0000000  0  7G25G10G29G12G05G04G02
 115948170.722 8                  22064201.156
 114283309.17147  89052130.47745  21747394.7734                   21747402.9964
 125694196.503 7                  23918815.523
 109286847.452 8                  20796587.688
 107454471.610 8                  20447893.344
 124321519.75047  96874106.83943  23657595.7894                   23657604.2774
 110049695.83548  85753129.23846  20941742.7034                   20941748.5554
 11  7 24  3 18  0.0000000  0  7G25G10G29G12G05G04G02
 115896773.094 8                  22054420.563
 114354525.34047  89107623.61145  21760947.4224                   21760954.8204
 125611532.393 7                  23903084.883
 109303295.829 8                  20799717.703
 107422576.951 8                  20441824.266
 124404317.62547  96938624.66044  23673352.3594                   23673359.7114
 110078560.74648  85775621.38946  20947235.2424                   20947241.2504
 11  7 24  3 18 30.0000000  0  7G25G10G29G12G05G04G02
 115845887.575 8                  22044737.555
 114426200.56147  89163474.43245  21774586.3754                   21774594.3014
 125528834.641 7                  23887347.430
 109320323.479 8                  20802957.977
 107391248.646 8                  20435862.531
 124487089.51747  97003122.29544  23689102.8674                   23689111.1374
 110107583.51948  85798236.54646  20952758.5004                   20952763.8324
 11  7 24  3 19  0.0000000  0  7G25G10G29G12G05G04G02
 115795515.511 8                  22035151.531
 114498331.71247  89219680.53045  21788312.4144                   21788320.3054
 125446103.952 7                  23871604.133
 109337929.005 8                  20806308.039
 107360486.682 8                  20430008.766
 124569834.31247  97067598.84444  23704848.5784                   23704857.2154
 110136762.50148  85820973.42946  20958310.9614                   20958316.8014
 11  7 24  3 19 30.0000000  0  7G25G10G29G12G05G04G02
 115745658.875 8                  22025664.320
 114570916.13947  89276239.82145  21802124.5234                   21802132.9024
 125363341.434 7                  23855855.680
 109356112.568 8                  20809768.836
 107330292.222 8                  20424262.922
 124652551.60447  97132053.91544  23720588.4384                   23720596.9384
 110166097.41748  85843831.80946  20963893.0234                   20963898.5904
 11  7 24  3 20  0.0000000  0  7G25G10G29G12G05G04G02
 115696319.351 8                  22016275.305
 114643951.03247  89333150.12945  21816023.0864                   21816031.0044
 125280548.292 7                  23840100.117
 109374873.049 8                  20813338.563
 107300665.768 8                  20418625.320
 124735240.64147  97196486.96043  23736323.8754                   23736332.0554
 110195587.29448  85866810.94546  20969504.9064                   20969510.3554
 11  7 24  3 20 30.0000000  0  7G25G10G29G12G05G04G02
 115647498.817 8                  22006984.914
 114717434.30647  89390409.82545  21830005.9304                   21830013.9144
 125197725.517 7                  23824339.359
 109394210.616 8                  20817018.352
 107271607.820 8                  20413095.734
 124817900.77546  97260897.50444  23752052.9304                   23752062.7154
 110225231.41648  85889910.26546  20975146.1484                   20975151.8834
 11  7 24  3 21  0.0000000  0  7G25G10G29G12G05G04G02
 115599198.999 8                  21997793.789
 114791363.48047  89448016.97945  21844074.5864                   21844082.5904
 125114874.002 7                  23808573.719
 109414123.548 8                  20820807.602
 107243119.634 8                  20407674.125
 124900531.48146  97325285.09843  23767777.3364                   23767786.2814
 110255028.95348  85913129.12646  20980816.5554                   20980822.0204
 11  7 24  3 21 30.0000000  0  7G25G10G29G12G05G04G02
 115551421.594 8                  21988702.047
 114865735.70247  89505969.35845  21858226.9924                   21858235.4264
 125031994.937 7                  23792801.945
 109434611.311 8                  20824706.570
 107215201.912 8                  20402361.828
 124983131.92846  97389649.07343  23783496.3914                   23783504.2624
 110284979.12048  85936466.93646  20986515.8284                   20986521.3404
 11  7 24  3 22  0.0000000  0  7G25G10G29G12G05G04G02
 115504167.765 8                  21979709.750
 114940547.88747  89564264.56745  21872463.1884                   21872471.3594
 124949088.887 6                  23777025.117
 109455673.328 8                  20828714.227
 107187854.706 8                  20397157.789
 125065701.05946  97453988.66343  23799208.5704                   23799217.3054
 110315080.48448  85959922.54946  20992243.8914                   20992249.6414
 11  7 24  3 22 30.0000000  0  7G25G10G29G12G05G04G02
 115457439.523 8                  21970817.750
 115015797.59147  89622900.70145  21886782.8284                   21886791.2114
 124866157.117 6                  23761244.156
 109477308.650 8                  20832831.672
 107161078.578 8                  20392062.469
 125148238.54546  97518303.62743  23814914.8834                   23814923.9884
 110345332.49048  85983495.55146  20998000.5634                   20998006.3874
 11  7 24  3 23  0.0000000  0  7G25G10G29G12G05G04G02
 115411238.436 8                  21962025.922
 115091482.12947  89681875.67445  21901185.1724                   21901192.9614
 124783200.465 6                  23745457.305
 109499516.560 8                  20837057.438
 107134874.293 8                  20387075.578
 125230743.82646  97582593.42243  23830614.1254                   23830623.7464
 110375734.44148  86007185.39246  21003785.9064                   21003791.9534
 11  7 24  3 23 30.0000000  0  7G25G10G29G12G05G04G02
 115365566.322 8                  21953335.156
 115167599.01547  89741187.53645  21915669.9224                   21915677.3164
 124700220.221 6                  23729667.016
 109522296.472 8                  20841392.289
 107109242.763 8                  20382198.398
 125313216.31346  97646857.70443  23846308.1484                   23846316.8554
 110406285.73148  86030991.59046  21009599.5314                   21009605.1214
 11  7 24  3 24  0.0000000  0  7G25G10G29G12G05G04G02
 115320424.717 8                  21944744.813
 115244145.10947  89800833.84545  21930236.4924                   21930243.6724
 124617217.430 6                  23713871.805
 109545647.221 8                  20845835.945
 107084184.201 8                  20377429.805
 125395655.22146  97711095.76743  23861996.4304                   23862005.2194
 110436985.40448  86054913.41146  21015441.2974                   21015446.8134
 11  7 24  3 24 30.0000000  0  7G25G10G29G12G05G04G02
 115275815.650 8                  21936256.008
 115321118.46047  89860813.09845  21944883.4454                   21944891.3284
 124534193.432 7                  23698073.180
 109569568.349 8                  20850387.789
 107059699.394 8                  20372770.438
 125478060.34146  97775307.53743  23877677.7114                   23877685.9494
 110467833.15648  86078950.61546  21021311.5004                   21021317.0594
 11  7 24  3 25  0.0000000  0  7G25G10G29G12G05G04G02
 115231739.516 8                  21927868.438
 115398514.74047  89921121.89145  21959611.3054                   21959618.9534
 124451148.350 7                  23682270.313
 109594058.030 8                  20855047.961
 107035787.820 8                  20368220.367
 125560430.46146  97839492.09143  23893351.5864                   23893359.9734
 110498826.92648  86103101.60246  21027209.4844                   21027214.9414
 11  7 24  3 25 30.0000000  0  7G25G10G29G12G05G04G02
 115188198.205 8                  21919582.805
 115476332.43647  89981759.06945  21974419.6174                   21974428.2814
 124368083.654 7                  23666463.547
 109619115.747 8                  20859816.383
 107012450.392 8                  20363779.211
 125642764.93847  97903648.85543  23909020.1564                   23909028.2154
 110529966.28448  86127366.03646  21033135.0474                   21033140.7154
 11  7 24  3 26  0.0000000  0  7G25G10G29G12G05G04G02
 115145193.533 8                  21911399.227
 115554568.78647  90042722.46245  21989307.8364                   21989315.8094
 124285000.855 7                  23650654.188
 109644740.673 8                  20864692.797
 106989687.908 8                  20359447.945
 125725063.44647  97967777.58043  23924680.9774                   23924689.2704
 110561250.94748  86151743.70146  21039087.9694                   21039094.4184
 11  7 24  3 26 30.0000000  0  7G25G10G29G12G05G04G02
 115102726.550 8                  21903318.039
 115633220.44047  90104009.46345  22004274.5084                   22004283.0744
 124201900.473 7                  23634839.852
 109670931.297 8                  20869676.328
 106967499.942 8                  20355225.523
 125807325.23547  98031877.67943  23940335.1254                   23940343.5474
 110592679.38248  86176233.39346  21045068.9224                   21045074.3284
 11  7 24  3 27  0.0000000  0  7G25G10G29G12G05G04G02
 115060799.257 8                  21895339.680
 115712285.10947  90165618.29245  22019320.1884                   22019328.1414
 124118783.771 7                  23619023.273
 109697687.393 8                  20874768.297
 106945887.858 8                  20351112.953
 125889550.04047  98095948.95244  23955981.7814                   23955990.8054
 110624251.62648  86200835.14846  21051077.0004                   21051082.9024
 11  7 24  3 27 30.0000000  0  7G25G10G29G12G05G04G02
 115019412.684 8                  21887464.141
 115791759.51547  90227546.41345  22034443.2274                   22034451.6094
 124035651.882 7                  23603203.313
 109725007.769 8                  20879966.820
 106924851.336 8                  20347109.508
 125971736.96347  98159990.70243  23971622.1564                   23971629.3164
 110655966.44648  86225547.99346  21057112.2894                   21057118.0664
 11  7 24  3 28  0.0000000  0  7G25G10G29G12G05G04G02
 114978568.827 8                  21879691.625
 115871641.52347  90289792.13445  22049644.0944                   22049652.4804
 123952506.474 7                  23587381.586
 109752891.275 8                  20885273.039
 106904391.458 8                  20343216.391
 126053886.05346  98224002.99944  23987253.6804                   23987262.0514
 110687823.90848  86250371.98846  21063174.3284                   21063179.9964
 11  7 24  3 28 30.0000000  0  7G25G10G29G12G05G04G02
 114938268.851 8                  21872022.727
 115951928.65847  90352353.53745  22064922.5554                   22064930.7344
 123869348.458 7                  23571557.219
 109781336.663 8                  20890686.125
 106884507.762 8                  20339432.344
 126135996.44146  98287985.11643  24002878.6254                   24002887.3204
 110719822.70548  86275306.11246  21069263.4384                   21069269.3324
 11  7 24  3 29  0.0000000  0  7G25G10G29G12G05G04G02
 114898514.166 8                  21864457.867
 116032617.66647  90415228.09145  22080276.9224                   22080285.2384
 123786178.773 7                  23555730.398
 109810343.142 8                  20896205.789
 106865200.706 8                  20335758.445
 126218067.66446  98351936.68943  24018495.7664                   24018505.1604
 110751962.19548  86300349.88246  21075379.5784                   21075385.4344
 11  7 24  3 29 30.0000000  0  7G25G10G29G12G05G04G02
 114859305.583 8                  21856996.703
 116113705.08547  90478413.09245  22095707.6644                   22095715.6804
 123702998.345 7                  23539901.250
 109839909.134 8                  20901831.891
 106846470.619 8                  20332194.148
 126300098.72146  98415856.94543  24034106.5084                   24034114.7774
 110784241.06048  86325502.25646  21081521.6724                   21081527.7624
 11  7 24  3 30  0.0000000  0  7G25G10G29G12G05G04G02
 114820644.648 8                  21849639.633
 116195188.54147  90541906.70645  22111213.4224                   22111221.6024
 123619808.357 6                  23524071.250
 109870033.392 7                  20907564.414
 106828317.494 8                  20328739.594
 126382089.37546  98479745.73743  24049709.2894                   24049717.5744
 110816658.63447  86350762.70046  21087690.8754                   21087696.8484
 11  7 24  3 30 30.0000000  0  7G25G10G29G12G05G04G02
 114782532.900 8                  21842387.063
 116277065.41647  90605706.86745  22126793.9774                   22126802.1094
 123536610.241 6                  23508238.453
 109900715.304 7                  20913402.977
 106810741.342 8                  20325395.070
 126464039.14646  98543602.66243  24065303.6094                   24065312.4304
 110849214.67947  86376131.04646  21093885.7274                   21093891.6484
 11  7 24  3 31  0.0000000  0  7G25G10G29G12G05G04G02
 114744971.503 8                  21835239.711
 116359332.68947  90669811.25045  22142448.8444                   22142457.1804
 123453405.192 6                  23492404.977
 109931953.196 8                  20919347.523
 106793742.405 8                  20322160.656
 126545947.44046  98607427.28743  24080889.7274                   24080898.7344
 110881908.14548  86401606.47646  21100107.6024                   21100113.3364
 11  7 24  3 31 30.0000000  0  7G25G10G29G12G05G04G02
 114707961.741 8                  21828196.781
 116441988.08947  90734218.05845  22158177.7974                   22158185.6094
 123370194.244 6                  23476570.695
 109963745.817 8                  20925397.344
 106777321.457 8                  20319035.484
 126627813.84746  98671219.26943  24096468.7034                   24096476.7424
 110914738.20948  86427188.35446  21106354.7194                   21106360.1914
 11  7 24  3 32  0.0000000  0  7G25G10G29G12G05G04G02
 114671504.687 8                  21821258.984
 116525028.11447  90798924.57745  22173979.8754                   22173987.9534
 123286978.445 7                  23460735.594
 109996092.118 8                  20931552.352
 106761477.966 8                  20316020.609
 126709637.52946  98734977.99743  24112038.7194                   24112048.6454
 110947704.12348  86452876.10146  21112628.1804                   21112634.1294
 11  7 24  3 32 30.0000000  0  7G25G10G29G12G05G04G02
 114635601.909 8                  21814427.070
 116608450.31747  90863928.89045  22189854.5784                   22189862.8134
 123203759.537 7                  23444899.000
 110028990.861 8                  20937813.305
 106746212.242 8                  20313115.844
 126791418.71646  98798703.55543  24127601.2584                   24127609.1994
 110980805.79048  86478669.61946  21118926.4304                   21118932.7504
 11  7 24  3 33  0.0000000  0  7G25G10G29G12G05G04G02
 114600254.906 8                  21807700.867
 116692252.16247  90929229.03245  22205801.7814                   22205809.2544
 123120538.837 6                  23429062.727
 110062441.034 8                  20944178.156
 106731524.554 8                  20310320.844
 126873156.90046  98862395.64343  24143156.5004                   24143163.3404
 111014042.86448  86504568.65046  21125251.8054                   21125257.4924
 11  7 24  3 33 30.0000000  0  7G25G10G29G12G05G04G02
 114565464.268 8                  21801080.016
 116776429.92647  90994822.08944  22221819.9534                   22221828.2974
 123037317.266 7                  23413226.398
 110096440.843 8                  20950648.414
 106717414.844 8                  20307636.031
 126954850.99347  98926053.39243  24158701.5554                   24158711.0274
 111047413.70548  86530571.90946  21131602.2584                   21131607.6294
 11  7 24  3 34  0.0000000  0  7G25G10G29G12G05G04G02
 114531231.267 8                  21794566.078
 116860981.22247  91060706.22445  22237909.7974                   22237917.3984
 122954095.828 7                  23397390.008
 110130989.170 8                  20957222.523
 106703882.949 8                  20305060.664
 127036500.89947  98989676.70243  24174239.6484                   24174248.5164
 111080917.84348  86556679.03546  21137978.0234                   21137983.3794
 11  7 24  3 34 30.0000000  0  7G25G10G29G12G05G04G02
 114497557.010 8                  21788158.063
 116945903.23847  91126879.24044  22254069.5164                   22254077.0664
 122870875.803 7                  23381553.703
 110166084.243 7                  20963900.875
 106690928.668 8                  20302595.461
 127118106.08046  99053265.13043  24189768.0784                   24189776.6484
 111114554.54347  86582889.47946  21144378.4144                   21144383.8204
 11  7 24  3 35  0.0000000  0  7G25G10G29G12G05G04G02
 114464442.500 8                  21781856.609
 117031193.13547  91193338.89644  22270300.1564                   22270308.2664
 122787658.479 7                  23365717.484
 110201724.842 7                  20970683.258
 106678551.892 8                  20300240.117
 127199665.99646  99116818.34943  24205288.7814                   24205297.6914
 111148323.02447  86609202.59846  21150804.5704                   21150810.4414
 11  7 24  3 35 30.0000000  0  7G25G10G29G12G05G04G02
 114431889.094 8                  21775662.000
 117116847.92247  91260082.88644  22286599.2734                   22286607.2854
 122704445.426 7                  23349882.734
 110237909.296 8                  20977568.578
 106666753.012 8                  20297995.336
 127281180.56246  99180336.19843  24220800.5554                   24220809.4344
 111182222.79948  86635618.03146  21157255.5704                   21157261.1024
 11  7 24  3 36  0.0000000  0  7G25G10G29G12G05G04G02
 114399897.880 8                  21769574.055
 117202865.00747  91327109.18044  22302967.9774                   22302975.9064
 122621237.851 7                  23334048.586
 110274636.643 8                  20984557.938
 106655531.745 8                  20295859.750
 127362649.14446  99243818.25543  24236302.9844                   24236311.5824
 111216253.45147  86662135.42946  21163731.1484                   21163736.7304
 11  7 24  3 36 30.0000000  0  7G25G10G29G12G05G04G02
 114368469.535 8                  21763593.688
 117289241.23747  91394415.33844  22319404.8444                   22319412.6484
 122538036.650 7                  23318215.906
 110311905.504 8                  20991649.797
 106644887.399 8                  20293834.266
 127444071.12846  99307263.95742  24251797.2894                   24251804.8674
 111250414.12448  86688754.14146  21170231.6954                   21170237.2624
 11  7 24  3 37  0.0000000  0  7G25G10G29G12G05G04G02
 114337605.910 8                  21757720.242
 117375974.55747  91461999.72944  22335909.2584                   22335917.5864
 122454844.015 7                  23302384.195
 110349714.356 8                  20998844.875
 106634821.504 8                  20291918.594
 127525446.71846  99370673.52443  24267282.7114                   24267291.0634
 111284704.61148  86715474.00546  21176757.0314                   21176762.0314
 11  7 24  3 37 30.0000000  0  7G25G10G29G12G05G04G02
 114307307.052 8                  21751954.688
 117463061.55247  91529859.71844  22352481.4924                   22352488.7894
 122371660.590 6                  23286555.305
 110388061.236 8                  21006141.891
 106625332.484 8                  20290113.141
 127606774.78846  99434046.04842  24282759.3204                   24282767.0394
 111319123.39548  86742293.85846  21183306.2584                   21183312.3364
 11  7 24  3 38  0.0000000  0  7G25G10G29G12G05G04G02
 114277574.060 8                  21746296.547
 117550498.78647  91597992.60545  22369120.8754                   22369128.3754
 122288487.659 6                  23270728.156
 110426944.402 8                  21013541.055
 106616420.163 8                  20288417.094
 127688055.20246  99497381.42543  24298225.2344                   24298234.2464
 111353669.86948  86769213.18546  21189880.4144                   21189886.6994
 11  7 24  3 38 30.0000000  0  7G25G10G29G12G05G04G02
 114248408.224 8                  21740746.734
 117638283.88247  91666396.56044  22385825.4924                   22385833.3094
 122205326.672 6                  23254903.328
 110466362.948 8                  21021042.281
 106608084.521 8                  20286830.820
 127769287.58046  99560679.37243  24313684.5394                   24313692.5554
 111388343.87948  86796231.91246  21196478.9144                   21196484.6804
 11  7 24  3 39  0.0000000  0  7G25G10G29G12G05G04G02
 114219810.298 8                  21735304.625
 117726413.80847  91735069.22844  22402596.0474                   22402604.3594
 122122179.005 6                  23239080.633
 110506315.003 8                  21028644.648
 106600325.610 8                  20285354.453
 127850471.66846  99623939.72343  24329132.5634                   24329140.2624
 111423144.79348  86823349.50546  21203100.9454                   21203106.8914
 11  7 24  3 39 30.0000000  0  7G25G10G29G12G05G04G02
 114191781.493 8                  21729970.883
 117814886.23147  91804008.83144  22419431.3134                   22419439.1804
 122039046.412 7                  23223261.023
 110546799.326 8                  21036348.555
 106593143.462 8                  20283987.633
 127931607.15746  99687162.13243  24344572.7664                   24344581.0354
 111458072.22148  86850565.68846  21209747.4454                   21209753.3164
 11  7 24  3 40  0.0000000  0  7G25G10G29G12G05G04G02
 114164322.301 8                  21724745.430
 117903697.67347  91873212.54644  22436331.8134                   22436339.9804
 121955929.556 7                  23207444.469
 110587813.849 8                  21044153.750
 106586536.939 8                  20282730.328
 128012693.53646  99750346.29143  24360002.8524                   24360010.9024
 111493125.18948  86877879.68746  21216417.6254                   21216423.8674
 11  7 24  3 40 30.0000000  0  8G25G10G29G12G26G05G04G02
 114137433.397 8                  21719628.992
 117992845.14347  91942678.08344  22453296.1644                   22453304.0274
 121872829.850 7                  23191631.430
 110629356.840 8                  21052058.625
 130204175.66456 101457862.62353  24777041.6414                   24777050.2974
 106580505.570 8                  20281582.586
 128093730.19446  99813491.73644  24375423.6954                   24375432.1294
 111528302.72048  86905290.74746  21223111.8134                   21223117.7974
 11  7 24  3 41  0.0000000  0  8G25G10G29G12G26G05G04G02
 114111116.208 8                  21714620.758
 118082326.26347  92012403.61144  22470323.5784                   22470332.0434
 121789749.249 7                  23175821.469
 110671427.170 8                  21060064.469
 130108689.20146 101383457.69443  24758869.5164                   24758879.3674
 106575050.052 8                  20280544.719
 128174717.47447  99876598.70843  24390834.9384                   24390843.5904
 111563604.97748  86932798.99946  21229829.7734                   21229835.5744
 11  7 24  3 41 30.0000000  0  8G25G10G29G12G26G05G04G02
 114085371.194 8                  21709721.227
 118172137.78547  92082386.61144  22487414.8284                   22487422.1644
 121706688.895 7                  23160015.625
 110714022.704 8                  21068170.500
 130013089.49546 101308964.52643  24740678.7734                   24740687.2234
 106570169.411 8                  20279615.711
 128255654.61847  99939666.61643  24406236.9144                   24406245.0944
 111599031.14348  86960403.79546  21236571.8674                   21236577.3404
 11  7 24  3 42  0.0000000  0  8G25G10G29G12G26G05G04G02
 114060199.148 8                  21704931.453
 118262276.90447  92152624.88944  22504567.5474                   22504575.2074
 121623650.061 7                  23144213.555
 110757141.832 8                  21076375.547
 129917379.73246 101234385.61243  24722464.6254                   24722474.6564
 106565863.178 8                  20278796.383
 128336541.17246 100002695.04243  24421628.4774                   24421636.8244
 111634580.52648  86988104.59746  21243336.1484                   21243341.8794
 11  7 24  3 42 30.0000000  0  8G25G10G29G12G26G05G04G02
 114035600.917 8                  21700250.750
 118352741.00247  92223116.38744  22521782.0944                   22521789.8594
 121540634.363 7                  23128416.070
 110800782.873 8                  21084680.125
 129821562.60146 101159723.00142  24704230.6414                   24704240.3954
 106562131.266 8                  20278085.961
 128417377.08747 100065684.05543  24437011.5864                   24437020.5354
 111670252.58248  87015901.01846  21250123.9454                   21250130.2734
 11  7 24  3 43  0.0000000  0  8G25G10G29G12G26G05G04G02
 114011576.919 8                  21695679.164
 118443526.54447  92293858.35144  22539058.4774                   22539065.3364
 121457643.101 7                  23112623.344
 110844944.088 8                  21093083.695
 129725640.96045 101084978.90242  24685978.3364                   24685986.9224
 106558972.523 8                  20277485.141
 128498161.65747 100128633.02743  24452384.2894                   24452393.1524
 111706046.61448  87043792.46146  21256935.7114                   21256941.6484
 11  7 24  3 43 30.0000000  0  8G25G10G29G12G26G05G04G02
 113988128.390 8                  21691217.297
 118534631.57247  92364849.27944  22556394.8444                   22556402.4804
 121374677.985 7                  23096835.469
 110889623.762 8                  21101586.484
 129629618.03745 101010155.99742  24667704.0164                   24667714.8554
 106556387.621 8                  20276992.992
 128578895.25847 100191542.31443  24467746.9144                   24467756.1174
 111741962.52148  87071778.88846  21263770.4304                   21263776.0704
 11  7 24  3 44  0.0000000  0  8G25G10G29G12G26G05G04G02
 113965255.693 8                  21686864.281
 118626052.71347  92436086.53144  22573791.8524                   22573799.3754
 121291740.015 7                  23081053.148
 110934819.934 8                  21110186.570
 129533496.84246 100935256.34442  24649414.5164                   24649423.6174
 106554375.410 8                  20276610.148
 128659577.13047 100254411.32843  24483101.2664                   24483109.9144
 111777999.48148  87099859.62546  21270627.9144                   21270633.1524
 11  7 24  3 44 30.0000000  0  8G25G10G29G12G26G05G04G02
 113942959.457 8                  21682621.703
 118717786.89547  92507567.71144  22591248.1724                   22591255.8954
 121208830.896 7                  23065275.570
 110980530.660 8                  21118885.063
 129437280.23046 100860282.42343  24631104.9384                   24631114.7344
 106552935.471 8                  20276336.133
 128740206.95946 100317239.77842  24498444.1724                   24498452.7894
 111814156.77748  87128034.14146  21277508.2894                   21277513.8404
 11  7 24  3 45  0.0000000  0  8G25G10G29G12G26G05G04G02
 113921240.371 8                  21678488.344
 118809831.63347  92579290.87244  22608763.9454                   22608770.8324
 121125952.087 6                  23049504.656
 111026754.371 8                  21127680.938
 129340971.14146 100785236.47743  24612777.6254                   24612787.3754
 106552067.363 8                  20276171.055
 128820784.69446 100380027.60042  24513776.9224                   24513785.2194
 111850434.08548  87156302.17146  21284411.5004                   21284417.5084
 11  7 24  3 45 30.0000000  0  8G25G10G29G12G26G05G04G02
 113900099.042 8                  21674465.445
 118902183.68447  92651253.50844  22626337.6174                   22626345.3324
 121043105.035 7                  23033738.781
 111073489.108 8                  21136574.531
 129244572.72347 100710120.81043  24594433.9454                   24594443.6294
 106551770.461 8                  20276114.523
 128901309.90345 100442774.52142  24529100.4454                   24529109.0434
 111886830.81048  87184663.25046  21291337.5634                   21291343.5044
 11  7 24  3 46  0.0000000  0  8G25G10G29G12G26G05G04G02
 113879535.956 8                  21670552.070
 118994839.92147  92723453.17144  22643969.3444                   22643977.1644
 120960291.318 7                  23017980.359
 111120733.099 8                  21145564.727
 129148087.74247 100634937.85143  24576072.9694                   24576082.7344
 106552043.944 8                  20276166.281
 128981782.29545 100505480.20742  24544412.8444                   24544422.6954
 111923346.50548  87213117.04546  21298286.5944                   21298291.8164
 11  7 24  3 46 30.0000000  0  8G25G10G29G12G26G05G04G02
 113859551.838 8                  21666749.320
 119087798.06847  92795888.08244  22661658.7344                   22661667.1484
 120877512.263 7                  23002227.953
 111168484.463 8                  21154651.344
 129051519.48647 100559689.91643  24557696.1724                   24557706.3284
 106552887.503 8                  20276326.906
 129062201.72946 100568144.65242  24559716.3834                   24559726.1214
 111959980.79448  87241663.25246  21305257.7584                   21305263.6844
 11  7 24  3 47  0.0000000  0  8G25G10G29G12G26G05G04G02
 113840147.215 8                  21663057.172
 119181054.98947  92868555.79244  22679404.8444                   22679412.8524
 120794769.511 7                  22986482.727
 111216741.256 8                  21163834.570
 128954871.14547 100484379.59444  24539305.3594                   24539314.7234
 106554300.531 8                  20276595.695
 129142567.94946 100630767.71442  24575010.9384                   24575019.3134
 111996732.95848  87270301.30546  21312251.3914                   21312257.0944
 11  7 24  3 47 30.0000000  0  8G25G10G29G12G26G05G04G02
 113821322.293 8                  21659474.586
 119274607.58547  92941453.89944  22697207.1414                   22697215.6414
 120712064.292 7                  22970744.563
 111265501.229 8                  21173113.594
 128858145.36146 100409008.92943  24520899.2814                   24520908.4734
 106556281.983 8                  20276973.047
 129222880.44746 100693348.86243  24590293.3834                   24590302.2894
 112033602.32548  87299030.67846  21319267.2894                   21319272.9224
 11  7 24  3 48  0.0000000  0  8G25G10G29G12G26G05G04G02
 113803077.752 8                  21656002.664
 119368453.49547  93014580.57944  22715065.6954                   22715073.8364
 120629398.410 7                  22955013.766
 111314762.728 8                  21182487.180
 128761345.10846 100333580.24943  24502477.3134                   24502487.6564
 106558831.445 8                  20277458.313
 129303139.12446 100755888.06143  24605566.6254                   24605574.6214
 112070588.28548  87327850.90646  21326305.0634                   21326311.0004
 11  7 24  3 48 30.0000000  0  8G25G10G29G12G26G05G04G02
 113785413.866 8                  21652641.289
 119462589.22747  93087933.08144  22732979.0394                   22732986.6374
 120546773.167 7                  22939290.727
 111364523.821 8                  21191956.859
 128664473.86846 100258096.25944  24484044.2114                   24484053.5704
 106561947.964 8                  20278050.797
 129383343.66846 100818385.04943  24620828.6094                   24620837.6214
 112107690.92248  87356762.05246  21333365.3984                   21333371.5314
 11  7 24  3 49  0.0000000  0  8G25G10G29G12G26G05G04G02
 113768331.229 8                  21649390.641
 119557012.18347  93161509.39844  22750947.5864                   22750954.8754
 120464190.370 7                  22923575.563
 111414782.162 8                  21201520.492
 128567534.54146 100182559.25743  24465596.7424                   24465607.1954
 106565631.171 8                  20278751.773
 129463494.01547 100880839.82843  24636081.1884                   24636089.7194
 112144909.40748  87385763.48346  21340448.3444                   21340454.2504
 11  7 24  3 49 30.0000000  0  8G25G10G29G12G26G05G04G02
 113751830.140 8                  21646250.680
 119651719.44847  93235307.26344  22768969.5084                   22768977.5784
 120381651.493 7                  22907869.070
 111465535.737 8                  21211178.398
 128470530.15346 100106971.49643  24447136.6724                   24447147.4774
 106569880.134 8                  20279560.344
 129543589.93946 100943252.17443  24651322.5394                   24651331.3134
 112182243.10948  87414854.68846  21347552.5554                   21347558.8594
 11  7 24  3 50  0.0000000  0  8G25G10G29G12G26G05G04G02
 113735911.061 8                  21643221.320
 119746708.07847  93309324.38144  22787045.1414                   22787053.2774
 120299158.021 7                  22892170.813
 111516782.615 8                  21220930.383
 128373463.92045 100031335.57243  24428665.3284                   24428675.8484
 106574694.190 8                  20280476.570
 129623631.42246 101005622.12243  24666554.4774                   24666563.2544
 112219691.82048  87444035.50446  21354679.0084                   21354684.9774
 11  7 24  3 50 30.0000000  0  8G25G10G29G12G26G05G04G02
 113720574.232 8                  21640302.883
 119841974.88547  93383558.26344  22805174.1334                   22805182.3634
 120216711.606 7                  22876481.695
 111568520.835 8                  21230776.008
 128276338.86646  99955653.80543  24410184.7424                   24410193.6134
 106580072.356 8                  20281499.992
 129703617.75446 101067949.16843  24681775.3444                   24681783.8984
 112257254.74747  87473305.31646  21361827.2034                   21361832.7074
 11  7 24  3 51  0.0000000  0  7G25G10G29G12G26G05G02
 113705820.396 8                  21637495.195
 119937517.69447  93458007.20344  22823354.8284                   22823362.9884
 120134314.011 7                  22860801.359
 111620748.777 8                  21240714.547
 128179158.54546  99879928.93243  24391690.8984                   24391700.6374
 106586014.485 8                  20282630.680
 112294932.29648  87502664.44246  21368996.5554                   21369002.5474
 11  7 24  3 51 30.0000000  0  7G25G10G29G12G26G05G02
 113691649.415 8                  21634798.352
 120033333.31846  93532668.68944  22841587.8204                   22841596.1684
 120051966.562 7                  22845131.773
 111673463.802 8                  21250746.133
 128081925.76946  99804163.19942  24373189.0004                   24373197.1954
 106592519.108 8                  20283868.836
 112332723.27748  87532111.95746  21376188.0634                   21376194.0354
 11  7 24  3 52  0.0000000  0  7G25G10G29G12G26G05G02
 113678061.403 8                  21632213.000
 120129418.58647  93607540.33844  22859872.3524                   22859880.6764
 119969670.910 7                  22829471.422
 111726663.768 8                  21260869.500
 127984643.48246  99728358.83343  24354676.7274                   24354685.3404
 106599585.135 8                  20285213.367
 112370627.26548  87561647.53746  21383400.8834                   21383407.3364
 11  7 24  3 52 30.0000000  0  7G25G10G29G12G26G05G02
 113665057.085 8                  21629738.445
 120225771.22047  93682620.33144  22878207.8594                   22878215.6644
 119887428.722 7                  22813821.336
 111780347.100 8                  21271085.219
 127887315.15747  99652518.61743  24336155.3204                   24336163.1884
 106607212.329 8                  20286664.266
 112408644.04348  87591270.99746  21390635.1334                   21390641.3204
 11  7 24  3 53  0.0000000  0  7G25G10G29G12G26G05G02
 113652636.187 8                  21627374.773
 120322387.76647  93757905.92644  22896593.6334                   22896600.9384
 119805241.293 7                  22798181.508
 111834510.905 8                  21281392.328
 127789943.77246  99576644.83643  24317626.0394                   24317634.3554
 106615399.008 8                  20288222.469
 112446773.14648  87620981.99046  21397891.0784                   21397896.8134
 11  7 24  3 53 30.0000000  0  7G25G10G29G12G26G05G02
 113640798.979 8                  21625122.031
 120419265.50947  93833395.10744  22915028.9844                   22915036.4184
 119723110.437 7                  22782552.602
 111889153.124 8                  21291790.266
 127692532.45546  99500739.93943  24299089.3674                   24299097.8364
 106624144.441 8                  20289886.695
 112485013.88648  87650779.95646  21405167.9304                   21405173.7384
 11  7 24  3 54  0.0000000  0  7G25G10G29G12G26G05G02
 113629545.636 8                  21622980.359
 120516401.45647  93909085.46944  22933513.3674                   22933520.7854
 119641037.726 7                  22766934.500
 111944271.667 8                  21302279.133
 127595084.33346  99424806.36543  24280545.6644                   24280554.3634
 106633447.483 8                  20291656.875
 112523365.98548  87680664.70246  21412465.8754                   21412472.0204
 11  7 24  3 54 30.0000000  0  7G25G10G29G12G26G05G02
 113618876.821 8                  21620950.531
 120613793.34646  93984975.24544  22952046.8054                   22952054.1724
 119559025.423 7                  22751328.031
 111999864.711 8                  21312858.258
 127497603.04546  99348846.98243  24261995.2034                   24262004.5984
 106643308.511 8                  20293533.359
 112561829.53448  87710636.29946  21419785.9454                   21419792.0044
 11  7 24  3 55  0.0000000  0  7G25G10G29G12G26G05G02
 113608792.392 8                  21619031.422
 120711437.88547  94061061.93044  22970626.7814                   22970635.0044
 119477074.813 7                  22735732.922
 112055929.789 8                  21323526.984
 127400091.82246  99272864.24343  24243439.0864                   24243449.2734
 106653725.840 8                  20295515.500
 112600403.84748  87740694.22046  21427125.9384                   21427131.7424
 11  7 24  3 55 30.0000000  0  7G25G10G29G12G26G05G02
 113599292.384 8                  21617223.875
 120809332.03547  94137343.07144  22989255.8054                   22989263.8794
 119395187.424 7                  22720150.180
 112112464.696 8                  21334284.914
 127302553.67646  99196860.56543  24224877.6884                   24224888.2384
 106664698.122 8                  20297603.266
 112639088.55848  87770838.15146  21434487.4384                   21434493.5634
 11  7 24  3 56  0.0000000  0  7G25G10G29G12G26G05G02
 113590376.781 8                  21615527.148
 120907473.26947  94213816.76944  23007931.3284                   23007940.0554
 119313364.967 7                  22704580.414
 112169467.139 8                  21345132.313
 127204991.66146  99120838.27643  24206312.5394                   24206322.8404
 106676224.350 8                  20299796.898
 112677883.23848  87801067.77446  21441870.7194                   21441875.6764
 11  7 24  3 56 30.0000000  0  7G25G10G29G12G26G05G02
 113582045.371 8                  21613941.211
 121005858.52947  94290480.58444  23026652.9534                   23026662.0824
 119231609.200 7                  22689022.500
 112226934.601 8                  21356068.195
 127107409.09246  99044799.98843  24187743.8204                   24187753.6914
 106688303.299 8                  20302095.453
 112716787.30548  87831382.63246  21449273.2734                   21449278.5984
 11  7 24  3 57  0.0000000  0  7G25G10G29G12G26G05G02
 113574298.512 8                  21612467.266
 121104485.08346  94367332.43944  23045421.0164                   23045429.5084
 119149921.931 7                  22673477.570
 112284865.290 8                  21367092.047
 127009809.29646  98968748.24343  24169171.0004                   24169180.1954
 106700934.269 8                  20304499.242
 112755800.58748  87861782.59646  21456697.5944                   21456703.2774
 11  7 24  3 57 30.0000000  0  7G25G10G29G12G26G05G02
 113567136.096 8                  21611104.352
 121203350.06347  94444370.09644  23064234.8284                   23064243.9574
 119068304.627 7                  22657946.711
 112343256.741 8                  21378203.523
 126912195.67446  98892685.74643  24150595.6644                   24150605.4694
 106714115.991 8                  20307007.594
 112794922.74048  87892267.40546  21464142.0784                   21464147.4144
 11  7 24  3 58  0.0000000  0  7G25G10G29G12G26G05G02
 113560557.892 8                  21609852.672
 121302450.41647  94521591.12644  23083093.3914                   23083102.1764
 118986758.958 7                  22642429.469
 112402106.339 8                  21389402.125
 126814571.18646  98816614.77643  24132018.6484                   24132027.2504
 106727847.018 8                  20309620.242
 112834153.10248  87922836.51346  21471607.3674                   21471613.1024
 11  7 24  3 58 30.0000000  0  7G25G10G29G12G26G05G02
 113554564.188 8                  21608712.023
 121401783.54447  94598993.58644  23101995.8444                   23102004.0354
 118905287.008 7                  22626925.523
 112461412.103 8                  21400687.594
 126716939.20746  98740537.97043  24113439.3914                   24113448.1644
 106742126.658 8                  20312337.789
 112873491.74748  87953490.01346  21479092.9064                   21479098.6174
 11  7 24  3 59  0.0000000  0  7G25G10G29G12G26G05G02
 113549154.574 8                  21607682.414
 121501346.40947  94676575.04444  23120941.5234                   23120949.8404
 118823890.223 7                  22611436.141
 112521171.488 8                  21412059.367
 126619303.10746  98664458.01043  24094860.2814                   24094869.4734
 106756953.512 8                  20315159.391
 112912938.06948  87984227.40946  21486599.6564                   21486605.3324
 11  7 24  3 59 30.0000000  0  7G25G10G29G12G26G05G02
 113544329.147 8                  21606764.266
 121601136.44547  94754333.51444  23139930.7584                   23139939.0084
 118742570.451 7                  22595961.180
 112581382.693 8                  21423517.242
 126521666.36046  98588377.44843  24076280.0084                   24076288.3714
 106772326.758 8                  20318084.672
 112952491.93548  88015048.60546  21494126.1954                   21494132.1374
 11  7 24  4  0  0.0000000  0  7G25G10G29G12G26G05G02
 113540087.367 8                  21605957.406
 121701150.57047  94832266.59544  23158962.6804                   23158970.9884
 118661329.164 7                  22580501.766
 112642042.389 8                  21435060.695
 126424031.74346  98512298.60643  24057701.0164                   24057710.0474
 106788244.302 8                  20321113.594
 112992152.64848  88045953.06946  21501673.6334                   21501679.3874
 11  7 24  4  0 30.0000000  0  7G25G10G29G12G26G05G02
 113536429.485 8                  21605261.273
 121801386.12247  94910372.22944  23178037.2814                   23178044.7074
 118580168.401 7                  22565057.125
 112703148.613 8                  21446688.844
 126326403.24947  98436224.48743  24039122.9924                   24039131.1804
 106804705.907 8                  20324246.125
 113031920.29648  88076940.84746  21509240.9064                   21509246.1604
 11  7 24  4  1  0.0000000  0  7G25G10G29G12G26G05G02
 113533355.184 8                  21604676.078
 121901840.25847  94988648.22643  23197152.7344                   23197160.4384
 118499090.090 7                  22549628.570
 112764699.289 8                  21458401.414
 126228783.73647  98360157.40243  24020546.7274                   24020555.4184
 106821710.031 8                  20327481.844
 113071794.46348  88108011.62346  21516828.8594                   21516834.2234
 11  7 24  4  1 30.0000000  0  7G25G10G29G12G26G05G02
 113530864.152 8                  21604201.945
 122002510.08447  95067092.22844  23216310.0394                   23216317.2704
 118418095.830 7                  22534215.594
 112826691.488 8                  21470197.859
 126131176.75647  98284100.04743  24001973.1094                   24001980.8634
 106839255.247 8                  20330820.547
 113111774.69848  88139165.05446  21524436.3524                   21524442.5784
 11  7 24  4  2  0.0000000  0  7G25G10G29G12G26G05G02
 113528956.297 8                  21603839.117
 122103392.84146  95145702.17143  23235506.4534                   23235514.1644
 118337187.669 7                  22518819.445
 112889122.928 8                  21482078.297
 126033585.70647  98208055.08043  23983401.6644                   23983409.6134
 106857340.510 8                  20334262.258
 113151860.91048  88170401.07446  21532065.0084                   21532070.4844
 11  7 24  4  2 30.0000000  0  7G25G10G29G12G26G05G02
 113527631.274 8                  21603586.742
 122204486.00046  95224476.08443  23254744.4064                   23254752.2774
 118256367.012 7                  22503439.664
 112951991.211 8                  21494041.383
 125936013.70247  98132024.98643  23964834.3594                   23964842.2584
 106875964.436 8                  20337806.039
 113192052.64748  88201719.31546  21539713.0394                   21539718.5514
 11  7 24  4  3  0.0000000  0  7G25G10G29G12G26G05G02
 113526888.604 8                  21603445.359
 122305786.23646  95303411.27743  23274021.3754                   23274028.9884
 118175635.811 7                  22488076.742
 113015293.922 8                  21506087.727
 125838464.30246  98056012.49343  23946270.3914                   23946279.7664
 106895125.438 8                  20341452.313
 113232349.79348  88233119.67846  21547381.4534                   21547386.6094
 11  7 24  4  3 30.0000000  0  7G25G10G29G12G26G05G02
 113526727.931 8                  21603415.031
 122407291.00046  95382505.89544  23293337.3754                   23293345.2074
 118094995.966 7                  22472731.797
 113079028.457 8                  21518216.234
 125740940.67546  97980020.07843  23927712.5394                   23927721.7544
 106914822.072 8                  20345200.164
 113272752.01948  88264601.92046  21555069.7894                   21555075.2114
 11  7 24  4  4  0.0000000  0  7G25G10G29G12G26G05G02
 113527148.945 8                  21603495.086
 122508997.64646  95461757.79244  23312691.5394                   23312700.0824
 118014449.079 7                  22457403.813
 113143192.149 8                  21530426.133
 125643446.36846  97904050.56343  23909159.9844                   23909169.4384
 106935053.206 8                  20349050.242
 113313258.95348  88296165.77146  21562777.6954                   21562784.0084
 11  7 24  4  4 30.0000000  0  7G25G10G29G12G26G05G02
 113528151.320 8                  21603685.688
 122610903.17247  95541164.69644  23332084.0314                   23332091.6254
 117933997.142 7                  22442094.414
 113207782.768 8                  21542717.453
 125545984.76846  97828106.49643  23890614.4064                   23890623.3204
 106955817.543 8                  20353001.375
 113353870.14448  88327810.84246  21570506.2664                   21570511.9534
 11  7 24  4  5  0.0000000  0  7G25G10G29G12G26G05G02
 113529734.636 8                  21603987.281
 122713004.68147  95620724.31144  23351513.4064                   23351521.1884
 117853641.905 7                  22426803.500
 113272797.672 8                  21555089.469
 125448559.38146  97752190.68643  23872074.0704                   23872083.2344
 106977113.468 8                  20357054.234
 113394585.68648  88359537.22646  21578254.1724                   21578259.3134
 11  7 24  4  5 30.0000000  0  7G25G10G29G12G26G05G02
 113531898.547 8                  21604398.945
 122815299.65147  95700434.65144  23370979.3754                   23370987.6524
 117773385.246 7                  22411531.500
 113338234.302 7                  21567541.164
 125351173.54247  97676305.63744  23853542.7274                   23853551.5704
 106998939.783 8                  20361207.539
 113435405.31948  88391344.73145  21586021.4694                   21586027.1024
 11  7 24  4  6  0.0000000  0  7G25G10G29G12G26G05G02
 113534642.258 8                  21604920.930
 122917785.29047  95780293.58444  23390481.5314                   23390489.4774
 117693228.937 7                  22396278.328
 113404090.096 8                  21580073.766
 125253830.36647  97600453.86844  23835019.1334                   23835028.1214
 107021294.669 8                  20365461.352
 113476328.48248  88423232.90046  21593808.9064                   21593814.5314
 11  7 24  4  6 30.0000000  0  7G25G10G29G12G26G05G02
 113537965.540 8                  21605553.352
 123020458.75147  95860298.86344  23410019.6094                   23410027.6684
 117613175.076 7                  22381044.531
 113470362.689 8                  21592684.750
 125156533.63947  97524638.25644  23816503.4534                   23816513.0124
 107044177.033 8                  20369815.695
 113517355.08048  88455201.66846  21601616.2114                   21601622.0084
 11  7 24  4  7  0.0000000  0  7G25G10G29G12G26G05G02
 113541867.589 8                  21606295.867
 123123317.03447  95940448.17144  23429592.7814                   23429600.9534
 117533225.279 7                  22365830.117
 113537049.023 8                  21605374.648
 125059286.49646  97448861.30743  23797997.9924                   23798006.7894
 107067584.821 8                  20374270.281
 113558484.81348  88487250.80346  21609443.2034                   21609448.8134
 11  7 24  4  7 30.0000000  0  7G25G10G29G12G26G05G02
 113546347.797 8                  21607148.258
 123226357.62546  96020739.53743  23449200.9304                   23449208.3914
 117453381.369 7                  22350636.867
 113604146.493 7                  21618142.898
 124962092.08446  97373125.40643  23779502.8444                   23779511.7034
 107091516.391 8                  20378824.164
 113599717.41448  88519380.09046  21617289.1094                   21617295.2584
 11  7 24  4  8  0.0000000  0  7G25G10G29G12G26G05G02
 113551406.051 8                  21608110.938
 123329578.11346  96101171.07043  23468842.7344                   23468850.4844
 117373645.500 7                  22335463.094
 113671653.152 7                  21630988.531
 124864954.64247  97297433.94343  23761018.6954                   23761026.6054
 107115971.345 8                  20383478.297
 113641052.91448  88551589.55746  21625155.1414                   21625161.0664
 11  7 24  4  8 30.0000000  0  7G25G10G29G12G26G05G02
 113557041.644 8                  21609183.797
 123432975.53946  96181740.46943  23488518.5394                   23488526.8244
 117294019.719 7                  22320311.086
 113739566.665 8                  21643912.359
 124767877.39647  97221789.34043  23742545.0554                   23742553.5044
 107140947.747 8                  20388230.992
 113682491.08548  88583879.03446  21633040.4454                   21633046.8364
 11  7 24  4  9  0.0000000  0  7G25G10G29G12G26G05G02
 113563253.938 8                  21610365.641
 123536547.14746  96262445.62043  23508227.7734                   23508235.4344
 117214505.835 7                  22305179.664
 113807883.422 8                  21656912.563
 124670863.85246  97146194.40343  23724084.0394                   23724092.7234
 107166444.073 8                  20393082.453
 113724031.90448  88616248.49646  21640945.5164                   21640951.2734
 11  7 24  4  9 30.0000000  0  7G25G10G29G12G26G05G02
 113570041.899 8                  21611657.461
 123640289.75046  96343284.02843  23527968.5554                   23527977.2894
 117135105.484 7                  22290070.172
 113876600.834 7                  21669988.953
 124573917.08446  97070651.44243  23705635.8524                   23705643.6684
 107192457.841 8                  20398032.586
 113765674.66948  88648697.39946  21648869.6334                   21648875.4144
